[[{"header":{"parameterUnit":"m.s-1","parameterCategory":1,"la1":30.6,"la2":28.766,"lo1":-90.7593,"lo2":-88.6598,"dy":0.0162,"dx":0.0183,"nx":116,"ny":114,"refTime":"2023-05-15T12:00:00:Z","depth":0,"parameterNumber":2,"parameterNumberName":"U-component_of_WINDS"},"data":[0.0,0.0,0.0,0.0,0.0,0.0,0.0,0.0,0.0,0.0,0.0,0.0,0.0,0.0,0.0,0.0,0.0,0.0,0.0,0.0,0.0,0.0,0.0,0.0,0.0,0.0,0.0,0.0,0.0,0.0,0.0,0.0,0.0,0.0,0.0,0.0,0.0,0.0,0.0,0.0,0.0,0.0,0.0,0.0,0.0,0.0,0.0,0.0,0.0,0.0,0.0,0.0,0.0,0.0,0.0,0.0,0.0,0.0,0.0,0.0,0.0,0.0,0.0,0.0,0.0,0.0,0.0,0.0,0.0,0.0,0.0,0.0,0.0,0.0,0.0,0.0,0.0,0.0,0.0,0.0,0.0,0.0,0.0,0.0,0.0,0.0,0.0,0.0,0.0,0.0,0.0,0.0,0.0,0.0,0.0,0.0,0.0,0.0,0.0,0.0,0.0,0.0,0.0,0.0,0.0,0.0,0.0,0.0,0.0,0.0,0.0,0.0,0.0,0.0,0.0,0.0,0.0,0.0,0.0,0.0,0.0,0.0,0.0,0.0,0.0,0.0,0.0,0.0,0.0,0.0,0.0,0.0,0.0,0.0,0.0,0.0,0.0,0.0,0.0,0.0,0.0,0.0,0.0,0.0,0.0,0.0,0.0,0.0,0.0,0.0,0.0,0.0,0.0,0.0,0.0,0.0,0.0,0.0,0.0,0.0,0.0,0.0,0.0,0.0,0.0,0.0,0.0,0.0,0.0,0.0,0.0,0.0,0.0,0.0,0.0,0.0,0.0,0.0,0.0,0.0,0.0,0.0,0.0,0.0,0.0,0.0,0.0,0.0,0.0,0.0,0.0,0.0,0.0,0.0,0.0,0.0,0.0,0.0,0.0,0.0,0.0,0.0,0.0,0.0,0.0,0.0,0.0,0.0,0.0,0.0,0.0,0.0,0.0,0.0,0.0,0.0,0.0,0.0,0.0,0.0,0.0,0.0,0.0,0.0,0.0,0.0,0.0,0.0,0.0,0.0,0.0,0.0,0.0,0.0,0.0,0.0,0.0,0.0,0.0,0.0,0.0,0.0,0.0,0.0,0.0,0.0,0.0,0.0,0.0,0.0,0.0,0.0,0.0,0.0,0.0,0.0,0.0,0.0,0.0,0.0,0.0,0.0,0.0,0.0,0.0,0.0,0.0,0.0,0.0,0.0,0.0,0.0,0.0,0.0,0.0,0.0,0.0,0.0,0.0,0.0,0.0,0.0,0.0,0.0,0.0,0.0,0.0,0.0,0.0,0.0,0.0,0.0,0.0,0.0,0.0,0.0,0.0,0.0,0.0,0.0,0.0,0.0,0.0,0.0,0.0,0.0,0.0,0.0,0.0,0.0,0.0,0.0,0.0,0.0,0.0,0.0,0.0,0.0,0.0,0.0,0.0,0.0,0.0,0.0,0.0,0.0,0.0,0.0,0.0,0.0,0.0,0.0,0.0,0.0,0.0,0.0,0.0,0.0,0.0,0.0,0.0,0.0,0.0,0.0,0.0,0.0,0.0,0.0,0.0,0.0,0.0,0.0,0.0,0.0,0.0,0.0,0.0,0.0,0.0,0.0,0.0,0.0,0.0,0.0,0.0,0.0,0.0,0.0,0.0,0.0,0.0,0.0,0.0,0.0,0.0,0.0,0.0,0.0,0.0,0.0,0.0,0.0,0.0,0.0,0.0,0.0,0.0,0.0,0.0,0.0,0.0,0.0,0.0,0.0,0.0,0.0,0.0,0.0,0.0,0.0,0.0,0.0,0.0,0.0,0.0,0.0,0.0,0.0,0.0,0.0,0.0,0.0,0.0,0.0,0.0,0.0,0.0,0.0,0.0,0.0,0.0,0.0,0.0,0.0,0.0,0.0,0.0,0.0,0.0,0.0,0.0,0.0,0.0,0.0,0.0,0.0,0.0,0.0,0.0,0.0,0.0,0.0,0.0,0.0,0.0,0.0,0.0,0.0,0.0,0.0,0.0,0.0,0.0,0.0,0.0,0.0,0.0,0.0,0.0,0.0,0.0,0.0,0.0,0.0,0.0,0.0,0.0,0.0,0.0,0.0,0.0,0.0,0.0,0.0,0.0,0.0,0.0,0.0,0.0,0.0,0.0,0.0,0.0,0.0,0.0,0.0,0.0,0.0,0.0,0.0,0.0,0.0,0.0,0.0,0.0,0.0,0.0,0.0,0.0,0.0,0.0,0.0,0.0,0.0,0.0,0.0,0.0,0.0,0.0,0.0,0.0,0.0,0.0,0.0,0.0,0.0,0.0,0.0,0.0,0.0,0.0,0.0,0.0,0.0,0.0,0.0,0.0,0.0,0.0,0.0,0.0,0.0,0.0,0.0,0.0,0.0,0.0,0.0,0.0,0.0,0.0,0.0,0.0,0.0,0.0,0.0,0.0,0.0,0.0,0.0,0.0,0.0,0.0,0.0,0.0,0.0,0.0,0.0,0.0,0.0,0.0,0.0,0.0,0.0,0.0,0.0,0.0,0.0,0.0,0.0,0.0,0.0,0.0,0.0,0.0,0.0,0.0,0.0,0.0,0.0,0.0,0.0,0.0,0.0,0.0,0.0,0.0,0.0,0.0,0.0,0.0,0.0,0.0,0.0,0.0,0.0,0.0,0.0,0.0,0.0,0.0,0.0,0.0,0.0,0.0,0.0,0.0,0.0,0.0,0.0,0.0,0.0,0.0,0.0,0.0,0.0,0.0,0.0,0.0,0.0,0.0,0.0,0.0,0.0,0.0,0.0,0.0,0.0,0.0,0.0,0.0,0.0,0.0,0.0,0.0,0.0,0.0,0.0,0.0,0.0,0.0,0.0,0.0,0.0,0.0,0.0,0.0,0.0,0.0,0.0,0.0,0.0,0.0,0.0,0.0,0.0,0.0,0.0,0.0,0.0,0.0,0.0,0.0,0.0,0.0,0.0,0.0,0.0,0.0,0.0,0.0,0.0,0.0,0.0,0.0,0.0,0.0,0.0,0.0,0.0,0.0,0.0,0.0,0.0,0.0,0.0,0.0,0.0,0.0,0.0,0.0,0.0,0.0,0.0,0.0,0.0,0.0,0.0,0.0,0.0,0.0,0.0,0.0,0.0,0.0,0.0,0.0,0.0,0.0,0.0,0.0,0.0,0.0,0.0,0.0,0.0,0.0,0.0,0.0,0.0,0.0,0.0,0.0,0.0,0.0,0.0,0.0,0.0,0.0,0.0,0.0,0.0,0.0,0.0,0.0,0.0,0.0,0.0,0.0,0.0,0.0,0.0,0.0,0.0,0.0,0.0,0.0,0.0,0.0,0.0,0.0,0.0,0.0,0.0,0.0,0.0,0.0,0.0,0.0,0.0,0.0,0.0,0.0,0.0,0.0,0.0,0.0,0.0,0.0,0.0,0.0,0.0,0.0,0.0,0.0,0.0,0.0,0.0,0.0,0.0,0.0,0.0,0.0,0.0,0.0,0.0,0.0,0.0,0.0,0.0,0.0,0.0,0.0,0.0,0.0,0.0,0.0,0.0,0.0,0.0,0.0,0.0,0.0,0.0,0.0,0.0,0.0,0.0,0.0,0.0,0.0,0.0,0.0,0.0,0.0,0.0,0.0,0.0,0.0,0.0,0.0,0.0,0.0,0.0,0.0,0.0,0.0,0.0,0.0,0.0,0.0,0.0,0.0,0.0,0.0,0.0,0.0,0.0,0.0,0.0,0.0,0.0,0.0,0.0,0.0,0.0,0.0,0.0,0.0,0.0,0.0,0.0,0.0,0.0,0.0,0.0,0.0,0.0,0.0,0.0,0.0,0.0,0.0,0.0,0.0,0.0,0.0,0.0,0.0,0.0,0.0,0.0,0.0,0.0,0.0,0.0,0.0,0.0,0.0,0.0,0.0,0.0,0.0,0.0,0.0,0.0,0.0,0.0,0.0,0.0,0.0,0.0,0.0,0.0,0.0,0.0,0.0,0.0,0.0,0.0,0.0,0.0,0.0,0.0,0.0,0.0,0.0,0.0,0.0,0.0,0.0,0.0,0.0,0.0,0.0,0.0,0.0,0.0,0.0,0.0,0.0,0.0,0.0,0.0,0.0,0.0,0.0,0.0,0.0,0.0,0.0,0.0,0.0,0.0,0.0,0.0,0.0,0.0,0.0,0.0,0.0,0.0,0.0,0.0,0.0,0.0,0.0,0.0,0.0,0.0,0.0,0.0,0.0,0.0,0.0,0.0,0.0,0.0,0.0,0.0,0.0,0.0,0.0,0.0,0.0,0.0,0.0,0.0,0.0,0.0,0.0,0.0,0.0,0.0,0.0,0.0,0.0,0.0,0.0,0.0,0.0,0.0,0.0,0.0,0.0,0.0,0.0,0.0,0.0,0.0,0.0,0.0,0.0,0.0,0.0,0.0,0.0,0.0,0.0,0.0,0.0,0.0,0.0,0.0,0.0,0.0,0.0,0.0,0.0,0.0,0.0,0.0,0.0,0.0,0.0,0.0,0.0,0.0,0.0,0.0,0.0,0.0,0.0,0.0,0.0,0.0,0.0,0.0,0.0,0.0,0.0,0.0,0.0,0.0,0.0,0.0,0.0,0.0,0.0,0.0,0.0,0.0,0.0,0.0,0.0,0.0,0.0,0.0,0.0,0.0,0.0,0.0,0.0,0.0,0.0,0.0,0.0,0.0,0.0,0.0,0.0,0.0,0.0,0.0,0.0,0.0,0.0,0.0,0.0,0.0,0.0,0.0,0.0,0.0,0.0,0.0,0.0,0.0,0.0,0.0,0.0,0.0,0.0,0.0,0.0,0.0,0.0,0.0,0.0,0.0,0.0,0.0,0.0,0.0,0.0,0.0,0.0,0.0,0.0,0.0,0.0,0.0,0.0,0.0,0.0,0.0,0.0,0.0,0.0,0.0,0.0,0.0,0.0,0.0,0.0,0.0,0.0,0.0,0.0,0.0,0.0,0.0,0.0,0.0,0.0,0.0,0.0,0.0,0.0,0.0,0.0,0.0,0.0,0.0,0.0,0.0,0.0,0.0,0.0,0.0,0.0,0.0,0.0,0.0,0.0,0.0,0.0,0.0,0.0,0.0,0.0,0.0,0.0,0.0,0.0,0.0,0.0,0.0,0.0,0.0,0.0,0.0,0.0,0.0,0.0,0.0,0.0,0.0,0.0,0.0,0.0,0.0,0.0,0.0,0.0,0.0,0.0,0.0,0.0,0.0,0.0,0.0,0.0,0.0,0.0,0.0,0.0,0.0,0.0,0.0,0.0,0.0,0.0,0.0,0.0,0.0,0.0,0.0,0.0,0.0,0.0,0.0,0.0,0.0,0.0,0.0,0.0,0.0,0.0,0.0,0.0,0.0,0.0,0.0,0.0,0.0,0.0,0.0,0.0,0.0,0.0,0.0,0.0,0.0,0.0,0.0,0.0,0.0,0.0,0.0,0.0,0.0,0.0,0.0,0.0,0.0,0.0,0.0,0.0,0.0,0.0,0.0,0.0,0.0,0.0,0.0,0.0,0.0,0.0,0.0,0.0,0.0,0.0,0.0,0.0,0.0,0.0,0.0,0.0,0.0,0.0,0.0,0.0,0.0,0.0,0.0,0.0,0.0,0.0,0.0,0.0,0.0,0.0,0.0,0.0,0.0,0.0,0.0,0.0,0.0,0.0,0.0,0.0,0.0,0.0,0.0,0.0,0.0,0.0,0.0,0.0,0.0,0.0,0.0,0.0,0.0,0.0,0.0,0.0,0.0,0.0,0.0,0.0,0.0,0.0,0.0,0.0,0.0,0.0,0.0,0.0,0.0,0.0,0.0,0.0,0.0,0.0,0.0,0.0,0.0,0.0,0.0,0.0,0.0,0.0,0.0,0.0,0.0,0.0,0.0,0.0,0.0,0.0,0.0,0.0,0.0,0.0,0.0,0.0,0.0,0.0,0.0,0.0,0.0,0.0,0.0,0.0,0.0,0.0,0.0,0.0,0.0,0.0,0.0,0.0,0.0,0.0,0.0,0.0,0.0,0.0,0.0,0.0,0.0,0.0,0.0,0.0,0.0,0.0,0.0,0.0,0.0,0.0,0.0,0.0,0.0,0.0,0.0,0.0,0.0,-1.8106,0.0,0.0,0.0,0.0,0.0,0.0,0.0,0.0,0.0,0.0,0.0,0.0,0.0,0.0,0.0,0.0,0.0,0.0,0.0,0.0,0.0,0.0,0.0,0.0,0.0,0.0,0.0,0.0,0.0,0.0,0.0,0.0,0.0,0.0,0.0,0.0,0.0,0.0,0.0,2.4197,2.4463,2.4793,2.4573,2.4679,2.5061,0.0,0.0,0.0,0.0,0.0,0.0,0.0,0.0,0.0,0.0,0.0,0.0,0.0,0.0,0.0,0.0,0.0,0.0,0.0,0.0,0.0,0.0,0.0,0.0,0.0,0.0,0.0,0.0,0.0,0.0,0.0,0.0,0.0,0.0,0.0,0.0,0.0,0.0,0.0,0.0,0.0,0.0,0.0,0.0,0.0,0.0,0.0,0.0,0.0,0.0,0.0,0.0,0.0,0.0,0.0,0.0,0.0,0.0,0.0,0.0,0.0,0.0,0.0,0.0,0.0,0.0,0.0,0.0,0.0,0.0,0.0,-1.0893,0.0,0.0,0.0,0.0,0.0,0.0,0.0,0.0,0.0,0.0,0.0,0.0,0.0,0.0,0.0,0.0,0.0,0.0,0.0,0.0,0.0,0.0,0.0,0.0,0.0,0.0,0.0,0.0,0.0,0.0,0.0,0.0,0.0,0.0,0.0,0.0,0.0,0.0,2.4148,2.4361,2.4526,2.3936,2.3755,2.392,2.435,0.0,0.0,0.0,0.0,0.0,0.0,0.0,0.0,0.0,0.0,0.0,0.0,0.0,0.0,0.0,0.0,0.0,0.0,0.0,0.0,0.0,0.0,0.0,0.0,0.0,0.0,0.0,0.0,0.0,0.0,0.0,0.0,0.0,0.0,0.0,0.0,0.0,0.0,0.0,0.0,0.0,0.0,0.0,0.0,0.0,0.0,0.0,0.0,0.0,0.0,0.0,0.0,0.0,0.0,0.0,0.0,0.0,0.0,0.0,0.0,0.0,0.0,0.0,0.0,-2.5751,-2.5602,-2.5751,-2.3746,-1.9785,-1.3315,-1.0179,-0.8945,0.0,0.0,0.0,0.0,0.0,0.0,0.0,0.0,0.0,0.0,0.0,0.0,0.0,0.0,0.0,0.0,0.0,0.0,0.0,0.0,0.0,0.0,0.0,0.0,0.0,0.0,0.0,0.0,0.0,0.0,0.0,0.0,0.0,0.0,1.9825,2.0866,2.3143,2.4312,2.412,2.2647,2.2445,2.1473,1.9948,2.1942,2.2865,2.2874,0.0,0.0,0.0,0.0,0.0,0.0,0.0,0.0,0.0,0.0,0.0,0.0,0.0,0.0,0.0,0.0,0.0,0.0,0.0,0.0,0.0,0.0,0.0,0.0,0.0,0.0,0.0,0.0,0.0,0.0,0.0,0.0,0.0,0.0,0.0,0.0,0.0,0.0,0.0,0.0,0.0,-2.3,-2.4587,0.0,0.0,0.0,0.0,0.0,0.0,0.0,0.0,0.0,0.0,0.0,0.0,0.0,0.0,-2.5593,-2.5595,-2.5607,-2.5615,-2.6378,-2.6339,-2.5634,-2.6378,-2.5997,-2.4229,-1.5249,0.0,-0.6719,-0.3906,0.0,0.0,0.0,0.0,0.0,0.0,0.0,0.0,0.0,0.0,0.0,0.0,0.0,0.0,0.0,0.0,0.0,0.0,0.0,0.0,0.0,0.0,0.0,0.0,0.0,0.0,0.0,0.0,0.0,0.0,0.0,0.0,1.6929,1.7238,1.9241,2.3162,2.3308,2.2958,2.2155,2.0638,1.937,1.8451,1.8963,1.9799,2.085,2.0582,0.0,0.0,0.0,0.0,0.0,0.0,0.0,0.0,0.0,0.0,0.0,0.0,0.0,0.0,0.0,0.0,0.0,0.0,0.0,0.0,0.0,0.0,0.0,0.0,0.0,0.0,0.0,0.0,0.0,0.0,0.0,0.0,0.0,0.0,0.0,0.0,0.0,0.0,0.0,-2.4232,-2.4809,-2.479,-2.5069,-2.5316,0.0,0.0,0.0,0.0,0.0,0.0,0.0,0.0,0.0,-2.57,-2.5632,-2.5598,-2.5604,-2.56,-2.5574,-2.5557,-2.5926,-2.5916,-2.5557,-2.5931,-2.5931,-2.539,-2.1198,-1.2904,-0.2174,-0.0502,0.2137,0.5054,0.0,0.0,0.0,0.0,0.0,0.4992,0.0,0.0,0.0,0.0,0.0,0.0,0.0,0.0,0.0,0.0,0.0,0.0,0.0,0.0,0.0,1.8997,0.0,0.0,0.0,0.0,0.0,0.0,0.0,1.0857,1.3574,1.5297,1.8377,2.2898,2.2355,2.1853,2.1306,1.8811,1.7317,1.6704,1.6014,1.6836,1.8708,1.8488,1.8426,1.8438,0.0,0.0,0.0,0.0,0.0,0.0,0.0,0.0,0.0,0.0,0.0,0.0,0.0,0.0,0.0,0.0,0.0,0.0,0.0,0.0,0.0,0.0,0.0,0.0,0.0,0.0,0.0,0.0,0.0,0.0,0.0,0.0,0.0,0.0,0.0,0.0,0.0,-2.4565,-2.5096,-2.4831,-2.5105,-2.5368,0.0,0.0,0.0,0.0,0.0,0.0,-2.5698,-2.5703,-2.5698,-2.5699,-2.564,-2.559,-2.5593,-2.5605,-2.5574,-2.5525,-2.5745,-2.5746,-2.5546,-2.5837,-2.5831,-2.5422,-2.228,-1.3418,-0.0953,0.198,0.3799,0.4677,0.4294,0.4508,0.4992,0.4453,0.4229,0.4116,0.0,0.0,0.0,0.0,0.0,0.0,0.0,0.0,0.0,0.0,0.0,0.0,0.0,0.0,1.8344,1.739,1.6076,1.5192,0.0,0.0,0.0,0.0,0.0,0.9872,1.044,1.5259,1.9096,2.1786,2.1993,2.1156,1.9293,1.717,1.5258,1.3606,1.3372,1.4528,1.6606,1.6156,1.5794,1.5492,1.5492,0.0,0.0,0.0,0.0,0.0,0.0,0.0,0.0,0.0,0.0,0.0,0.0,0.0,0.0,0.0,0.0,0.0,0.0,0.0,0.0,0.0,0.0,0.0,0.0,0.0,0.0,0.0,0.0,0.0,0.0,0.0,0.0,0.0,0.0,0.0,0.0,0.0,0.0,-2.5077,-2.5091,0.0,0.0,0.0,0.0,-2.5595,-2.5661,-2.5694,-2.5693,-2.5694,-2.5701,-2.5701,-2.5634,-2.5593,-2.5598,-2.56,-2.5609,-2.5595,-2.6436,-2.6405,-2.5628,-2.6719,-2.6637,-2.4951,-1.3301,-0.7722,-0.6375,0.0052,0.2916,0.3195,0.3188,0.3458,0.3782,0.2907,0.3074,0.3458,0.0,0.0,0.0,0.0,0.0,0.0,0.0,0.0,0.0,0.0,0.0,0.0,0.0,1.8649,1.729,1.691,1.5314,1.4226,1.4025,0.0,0.0,0.0,0.0,0.8153,1.1853,1.6864,1.9901,2.0867,2.0575,1.9433,1.7486,1.5368,1.4014,1.3372,1.321,1.3563,1.4332,1.4378,1.4527,1.4801,1.4801,1.4824,0.0,0.0,0.0,0.0,0.0,0.0,0.0,0.0,0.0,0.0,0.0,0.0,0.0,0.0,0.0,0.0,0.0,0.0,0.0,0.0,0.0,0.0,0.0,0.0,0.0,0.0,0.0,0.0,0.0,0.0,0.0,0.0,0.0,0.0,0.0,0.0,0.0,-2.5182,-2.5244,0.0,0.0,-2.5515,-2.5561,-2.5664,-2.5693,-2.5698,-2.5701,-2.5702,-2.5703,-2.5702,-2.5677,-2.5913,-2.6431,-2.6389,-2.6458,-2.6639,-2.6937,-2.655,-2.5361,-2.049,-1.4928,-0.8904,-0.4741,-0.3329,-0.3785,-0.0457,0.1884,0.3363,0.2687,0.2629,0.2905,0.2406,0.224,0.2183,0.0,0.0,0.0,0.0,0.0,0.0,0.0,0.0,0.0,0.0,0.0,1.9758,1.9551,1.7674,1.632,1.6092,1.4424,1.3228,1.2928,0.0,0.0,0.0,0.6609,0.8162,1.3471,1.7512,1.9788,2.0308,1.9757,1.8468,1.6435,1.4326,1.3314,1.3314,1.3113,1.3027,1.3027,1.3248,1.361,1.3956,1.3956,1.4071,1.4316,0.0,0.0,0.0,0.0,0.0,0.0,0.0,0.0,0.0,0.0,0.0,0.0,0.0,0.0,0.0,0.0,0.0,0.0,0.0,0.0,0.0,0.0,0.0,0.0,0.0,0.0,0.0,0.0,0.0,0.0,0.0,0.0,0.0,0.0,0.0,-2.5313,-2.5274,-2.535,-2.5426,-2.548,-2.5515,-2.5682,-2.603,-2.6104,-2.6266,-2.6523,-2.6562,-2.6582,-2.6582,-2.6552,-2.6802,-2.7323,-2.7279,-2.7244,-2.7222,-2.7222,-2.5111,-2.1028,-1.5706,-1.0076,-0.4301,-0.1453,-0.0617,-0.1231,-0.0298,0.116,0.2784,0.2023,0.1903,0.213,0.1961,0.1513,0.0954,0.0,0.0,0.0,0.0,0.0,0.0,0.0,0.0,0.0,0.0,1.876,1.7907,1.7827,1.6617,1.5567,1.4949,1.3474,1.2278,1.146,0.921,0.0,0.0,0.7535,1.0043,1.4994,1.708,1.877,2.0165,1.9703,1.8388,1.6263,1.4178,1.3218,1.317,1.3007,1.2929,1.2929,1.2929,1.2929,1.2929,1.2929,1.3027,1.3172,0.0,0.0,0.0,0.0,0.0,0.0,0.0,0.0,0.0,0.0,0.0,0.0,0.0,0.0,0.0,0.0,0.0,0.0,0.0,0.0,0.0,0.0,0.0,0.0,0.0,0.0,0.0,0.0,0.0,0.0,0.0,0.0,0.0,-2.5387,-2.5284,-2.5274,-2.5418,-2.5437,-2.5484,-2.558,-2.5629,-2.6018,-2.679,-2.6974,-2.7382,-2.8153,-2.8261,-2.8281,-2.8301,-2.8232,-2.8205,-2.8242,-2.819,-2.7891,-2.7405,-2.7079,-2.183,-1.2407,-1.2757,-1.2997,-1.2529,-0.351,0.0432,0.0369,0.0357,0.0764,0.1404,0.1132,0.1231,0.1515,0.1459,0.0842,-0.0056,0.0,0.0,0.0,0.0,0.0,0.0,0.0,0.0,0.0,0.0,1.9212,1.8468,1.7867,1.6782,1.5611,1.4413,1.3433,1.192,0.9554,0.0,0.0,0.0,0.9573,1.2594,1.7303,1.9219,2.0636,2.1541,2.0019,1.8217,1.6128,1.4133,1.318,1.3162,1.3344,1.3392,1.343,1.3752,1.3931,1.3894,1.3525,1.3668,1.414,0.0,0.0,0.0,0.0,0.0,0.0,0.0,0.0,0.0,0.0,0.0,0.0,0.0,0.0,0.0,0.0,0.0,0.0,0.0,0.0,0.0,0.0,0.0,0.0,0.0,0.0,0.0,0.0,0.0,0.0,0.0,0.0,-2.5369,-2.5274,-2.5313,-2.5614,-2.6327,-2.6418,-2.6701,-2.739,-2.7472,-2.7608,-2.7876,-2.7871,-2.7964,-2.8195,-2.8176,-2.8179,-2.8239,-2.8209,-2.8491,-2.9135,-2.9113,-2.9322,-2.9684,-2.2237,-1.3362,-0.3562,-0.4677,-0.574,-0.6595,-0.2853,-0.1622,-0.2157,-0.1233,-0.078,-0.0702,-0.0,0.0784,0.1403,0.0673,-0.0056,-0.0673,0.0,0.0,0.0,0.0,0.0,0.0,0.0,0.0,0.0,0.0,1.9045,1.8299,1.734,1.6637,1.5623,1.4193,1.3022,1.1294,0.8824,0.0,0.0,0.0,1.2207,1.5184,1.917,2.0242,2.0821,2.1005,1.9427,1.7412,1.5025,1.4427,1.3909,1.3583,1.38,1.3931,1.3967,1.4212,1.4444,1.4582,1.4362,1.4316,1.4444,1.4536,1.4628,1.4731,1.472,1.4731,1.4686,1.4697,0.0,0.0,0.0,0.0,0.0,0.0,0.0,0.0,0.0,0.0,0.0,0.0,0.0,0.0,0.0,0.0,0.0,0.0,0.0,0.0,0.0,0.0,0.0,0.0,-2.5697,-2.6418,-2.4649,-2.5328,-2.6326,-2.7245,-2.7371,-2.76,-2.8151,-2.8198,-2.8367,-2.873,-2.8746,-2.8886,-2.9234,-2.9215,-2.9199,-2.9249,-2.9214,-2.8565,-2.7248,-2.7223,-2.7139,-2.6943,-2.0977,-1.2048,-0.0939,-0.2067,-0.303,0.0,-0.2691,-0.2513,-0.2891,-0.2184,-0.1815,0.0,0.0,0.0,0.0,0.0,-0.0729,-0.1066,0.0,0.0,0.0,0.0,0.0,0.0,0.0,0.0,0.0,0.0,0.0,1.7853,1.668,1.6362,1.5623,1.4143,1.2522,1.0756,0.0,0.0,0.0,1.2798,1.4915,1.7441,2.0582,2.066,2.0367,1.9754,1.8692,1.6742,1.3996,1.4971,1.4994,1.4258,1.4351,1.4468,1.456,1.456,1.4812,1.5232,1.5334,1.4994,1.4536,1.4755,1.4766,1.4766,1.5322,1.5153,1.4754,1.5017,0.0,0.0,0.0,0.0,0.0,0.0,0.0,0.0,0.0,0.0,0.0,0.0,0.0,0.0,0.0,0.0,0.0,0.0,0.0,0.0,0.0,0.0,0.0,0.0,-2.5262,-2.7011,-2.399,-2.5363,-2.6955,-2.7693,-2.8103,-2.824,-2.8027,-2.828,-2.8808,-2.9605,-2.9237,-2.9484,-3.065,0.0,0.0,0.0,0.0,-2.7428,-2.3486,-2.3389,-2.2703,-2.1395,-2.1094,-1.4752,-0.3344,-0.3334,-0.3295,-0.3293,-0.2956,-0.2774,-0.2695,-0.275,-0.2364,-0.1758,-0.0738,-0.028,-0.0224,-0.0954,-0.1234,0.0,0.0,0.0,0.0,0.0,0.0,0.0,0.0,0.0,0.0,1.9818,1.9375,1.8541,1.6824,1.6637,1.594,1.4218,1.2724,1.1079,0.0,0.0,1.0771,1.3712,1.558,1.793,2.0945,2.188,2.2006,2.1368,2.0327,1.8569,1.6163,1.5714,1.5118,1.4468,1.4892,1.504,1.5051,1.5756,1.6107,1.625,1.6637,1.6324,1.568,1.5603,1.5768,1.5988,1.5647,1.5546,1.5534,1.5198,1.5142,1.4994,1.4035,0.0,0.0,0.0,0.0,0.0,0.0,0.0,0.0,0.0,0.0,0.0,0.0,0.0,0.0,0.0,0.0,0.0,0.0,0.0,0.0,-1.9479,-2.0107,-2.1616,-2.4801,-2.567,-2.5944,-2.578,-2.7731,-2.8467,-2.689,-2.8743,-3.0403,-3.1274,-2.7851,-2.7201,-3.0599,-2.4735,0.0,-2.5127,-2.2684,-2.0717,-1.9421,-1.942,-1.9036,-1.8339,0.0,0.0,-1.0848,-0.6215,-0.41,-0.403,-0.3556,-0.3499,-0.3729,-0.3198,-0.2597,-0.1993,-0.0624,-0.0449,-0.101,-0.1122,-0.1401,-0.168,0.0,0.0,0.0,0.0,0.0,0.0,0.0,0.0,0.0,0.0,2.036,1.9771,1.825,1.7652,1.6933,1.5868,1.375,0.0,0.0,1.1257,1.317,1.6362,1.8037,1.9926,2.2046,2.2031,2.1795,2.1393,1.9842,1.8195,1.6455,1.6405,1.5915,1.5028,1.5412,1.568,1.5932,1.6337,1.665,1.6863,1.7115,1.6976,1.6612,1.6337,1.6175,1.61,1.6001,1.5591,1.5175,1.5277,1.5096,1.4686,1.38,1.1426,0.7249,0.0,0.0,0.0,0.0,0.0,0.0,0.0,0.0,0.0,0.0,0.0,0.0,0.0,0.0,-2.236,0.0,0.0,-2.1789,-2.1467,-2.3335,-2.496,-2.5398,-2.7243,-2.8413,-2.8056,-2.9611,-3.0006,-2.8225,-3.0029,-3.1144,-3.0772,-2.8789,-2.8296,-2.9863,-2.4527,-2.2148,-2.3801,-2.0712,-1.8337,-1.6798,-1.6481,-1.5353,-1.3382,-1.1613,-1.0508,-0.9885,-0.6766,-0.5352,-0.5352,-0.4885,-0.4745,-0.4741,-0.4233,-0.3581,-0.2936,-0.2089,-0.1704,-0.1459,-0.1291,-0.1625,-0.2127,0.0,0.0,0.0,0.0,0.0,0.0,0.0,0.0,0.0,0.0,2.1205,2.0861,1.9656,1.8691,1.7795,0.0,0.0,0.0,0.0,1.4072,1.6269,1.9071,2.0702,2.2027,2.3086,2.2291,2.1571,2.0969,1.9425,1.7912,1.6435,1.7233,1.7037,1.5964,1.6107,1.6423,1.6808,1.6765,1.6976,1.7323,1.7406,1.7354,1.7194,1.6879,1.6388,1.5886,1.6076,1.5456,1.4676,1.5192,1.4959,1.4041,1.2144,0.8943,0.4335,-0.3773,-0.9762,0.0,0.0,0.0,0.0,0.0,0.0,0.0,0.0,0.0,-2.3151,-2.3361,-2.3391,-2.356,-2.4275,-2.4902,-2.4819,-2.3287,-2.6404,-2.824,-2.586,-2.8215,-3.029,-3.0611,-3.1236,-3.086,-2.8858,-3.0355,-3.086,-2.9529,-2.9035,-2.8798,-2.8695,-2.4616,-2.2536,-2.3047,-1.9821,-1.7055,-1.4978,-1.4194,-1.2415,-0.9562,-0.8811,-0.7976,-0.7172,-0.6719,-0.6465,-0.64,-0.6145,-0.5806,-0.541,-0.5192,-0.47,-0.3955,-0.3771,-0.3191,-0.2372,-0.1797,-0.2073,-0.2687,0.0,0.0,0.0,0.0,0.0,0.0,0.0,0.0,0.0,0.0,0.0,0.0,0.0,0.0,0.0,0.0,0.0,0.0,1.5512,1.8141,1.9877,2.0204,2.2098,2.3131,2.3106,2.3844,2.3102,2.081,2.1251,2.0089,1.7558,1.8426,1.8352,1.7531,1.7585,1.7407,1.7157,1.7516,1.7666,1.776,1.8189,1.7779,1.6925,1.6886,1.6586,1.6055,1.5386,1.5079,1.4958,1.4971,1.472,1.3389,0.7419,0.8265,0.8435,-0.688,0.0,-1.2236,-1.8095,-2.0208,-2.091,-2.1556,-2.1674,-2.1661,0.0,0.0,-2.228,-2.0567,-2.0058,-1.9771,-1.9155,-1.8812,-1.8936,-2.009,-2.0888,-2.2619,-2.6152,-2.6346,-2.7138,-2.9766,-3.0071,-2.8723,-2.532,-2.7405,-2.8847,-2.8488,-2.5178,-2.4381,-2.7097,-2.0707,-1.8043,-2.0366,-1.6717,-1.4388,-1.3641,-1.2463,-1.1496,-1.0636,-0.9115,-0.834,-0.8217,-0.7293,-0.6662,-0.64,-0.6334,-0.6059,-0.5574,-0.5537,-0.5217,-0.464,-0.425,-0.4355,-0.4454,-0.3044,-0.2959,-0.3461,0.0,0.0,0.0,0.0,0.0,0.0,0.0,0.0,0.0,0.0,0.0,0.0,0.0,0.0,0.0,0.0,0.0,0.0,1.6987,1.9166,2.1036,2.2206,2.3072,2.3712,2.4137,2.4226,2.3633,2.237,2.2063,2.0994,1.9203,1.9298,1.8861,1.7987,1.7987,1.8066,1.8249,1.8302,1.8549,1.8921,1.8798,1.83,1.7529,1.6987,1.6314,1.5578,1.5384,1.3108,0.0,0.0,1.212,0.8485,0.5887,0.6161,0.5024,-0.7529,-1.1131,0.0,-1.8332,-2.0014,-2.0273,0.0,-2.135,-2.1505,-2.1757,-2.199,-2.2029,-2.1538,-2.1732,-2.1985,-2.2079,-2.2301,-2.2787,0.0,-2.4254,-2.5087,-2.6626,-2.6885,-2.7237,-2.8213,-2.826,-2.7748,-2.6464,-2.8224,-2.9059,-2.8047,-2.6877,-2.6478,-2.7067,-2.216,-1.9693,-2.0571,-1.6666,-1.4873,-1.5538,-1.4563,-1.409,-1.4148,-1.3127,-1.1966,-1.0719,-1.0114,-0.914,-0.7902,-0.7767,-0.7507,-0.7116,-0.6836,-0.6544,-0.6258,-0.5724,-0.5692,-0.5776,-0.4276,-0.4014,-0.4343,0.0,0.0,0.0,0.0,0.0,0.0,0.0,0.0,0.0,0.0,0.0,0.0,0.0,0.0,0.0,0.0,0.0,1.9844,1.9167,2.0733,2.2353,2.3832,2.4024,2.4351,2.4968,2.4475,2.397,2.3505,2.2593,2.167,2.0671,2.0332,1.9632,1.8722,1.8769,1.8933,1.9103,1.8968,1.9082,1.9313,1.8862,1.8223,1.7479,1.6634,1.5662,1.4626,1.3737,1.0573,0.0,1.0079,0.7724,0.3396,0.2043,0.1294,-0.0883,-0.9875,-1.2755,-1.405,-1.8738,-1.984,-1.983,-2.0638,-2.1071,-2.137,-2.1584,-2.1661,-2.186,-2.2496,-2.3028,-2.3625,-2.4554,-2.5245,-2.5847,-2.6403,-2.6999,-2.7355,-2.7072,-2.7277,-2.7336,-2.7099,-2.6876,-2.6879,-2.7186,-2.8268,-2.8373,-2.6923,-2.7464,-2.7346,-2.6134,-2.3732,-2.2066,-2.1334,-1.8272,-1.7103,-1.8049,-1.695,-1.6639,-1.6982,-1.6131,-1.4674,-1.2789,-1.182,-1.0607,-0.9268,-0.9128,-0.8865,-0.8484,-0.8291,-0.8096,-0.7862,-0.7296,-0.7175,-0.7087,-0.5983,-0.5466,-0.5277,0.0,0.0,0.0,0.0,0.0,0.0,0.0,0.0,0.0,0.0,0.0,0.0,0.0,0.0,0.0,0.0,0.0,2.2558,2.2922,2.4023,2.4671,2.4677,2.5032,2.5239,2.5189,2.4924,2.4372,2.3506,2.3005,2.2392,2.1665,2.1635,2.1132,2.023,2.0522,2.015,1.9376,1.9376,1.9023,1.8414,1.8214,1.7334,1.6106,1.5555,1.4634,1.317,0.9456,0.0,0.6419,0.3175,0.1225,-0.0796,-0.6201,-0.7464,0.0,-1.5485,-1.7347,-1.746,-1.8938,-1.9401,-1.9655,-2.034,-2.0812,-2.107,-2.0958,-2.1182,-2.1613,-2.2344,-2.2362,-2.2631,-2.3996,-2.4576,-2.5042,-2.5649,-2.6295,-2.6879,-2.7316,-2.6814,-2.6503,-2.694,-2.6372,-2.593,0.0,-2.6076,-2.5683,-2.4651,-2.4846,-2.4492,-2.3304,-2.3896,-2.3668,-2.2198,-2.1626,-2.1043,-2.0497,-1.8874,-1.8038,-1.8038,-1.6434,-1.5042,-1.3784,-1.1238,-1.0015,-0.9952,-0.9952,-0.9697,-0.9308,-0.9761,-0.9633,-0.9221,-0.9024,-0.889,-0.8808,-0.8482,-0.7544,-0.6357,0.0,0.0,0.0,0.0,0.0,0.0,0.0,0.0,0.0,0.0,0.0,0.0,0.0,0.0,0.0,0.0,0.0,2.3198,2.3604,2.4408,2.4985,2.5223,2.5328,2.534,2.5277,2.4946,2.4576,2.41,2.3812,2.328,2.2556,2.2556,2.209,2.1225,2.0828,2.0423,2.0004,1.9215,1.8873,1.878,1.7981,1.7214,1.6526,1.5527,1.281,0.8977,0.0,0.2874,0.183,0.1641,-0.1663,-0.6032,-0.7956,-0.8577,-0.9827,-1.5929,-1.7341,-1.7384,-1.952,-1.989,-1.983,-2.0621,-2.1071,-2.137,-2.1524,-2.1631,-2.1757,-2.2049,-2.2587,-2.296,-2.2822,-2.3355,-2.3872,-2.4073,-2.4632,-2.5122,-2.5316,-2.5951,-2.6172,-2.5473,-2.564,0.0,0.0,0.0,0.0,-2.6076,-2.6188,-2.6127,-2.5895,-2.5607,-2.5058,-2.4162,-2.3255,-2.2192,-2.1082,-2.0338,-1.9526,-1.8655,-1.6567,-1.5351,-1.4896,-1.248,-1.1296,-1.1045,-1.1045,-1.067,-1.005,-0.9927,-0.9927,-0.9888,-0.9116,-0.9054,-0.9382,-0.8954,-0.8598,-0.819,0.0,0.0,0.0,0.0,0.0,0.0,0.0,0.0,0.0,0.0,0.0,0.0,0.0,0.0,0.0,0.0,0.0,0.0,2.445,2.4802,2.5113,2.5375,2.5236,2.5115,2.5041,2.4797,2.4535,2.4265,2.4022,2.3674,2.3177,2.3135,2.2729,2.1995,2.1238,2.0727,2.0361,1.9228,1.8709,1.8571,1.77,1.6983,1.6278,1.4875,1.1477,0.0,0.2653,-0.0516,-0.2745,-0.2906,-0.6172,-1.0138,-1.0235,-1.1036,-1.2693,-1.6478,-1.7425,-1.7714,-1.9716,-2.0273,-2.0511,-2.1375,-2.1869,-2.2178,-2.2252,-2.2128,-2.1945,-2.1928,-2.2341,-2.259,-2.2114,-2.2375,-2.2817,-2.3226,-2.3686,-2.4056,-2.4328,-2.5199,-2.561,-2.5056,-2.5425,-2.5534,0.0,0.0,0.0,-2.606,-2.6409,-2.6588,-2.6397,-2.5933,-2.5357,-2.4638,-2.3767,-2.2764,-2.164,-2.1212,-2.0494,-1.9564,-1.7362,-1.6226,-1.5994,-1.3872,-1.2589,-1.2042,-1.2166,-1.1859,-1.1163,-1.0739,-1.0749,-1.0937,-0.9672,-0.9562,-1.0017,-0.94,-0.9263,-0.9256,0.0,0.0,0.0,0.0,0.0,0.0,0.0,0.0,0.0,0.0,0.0,0.0,0.0,0.0,0.0,0.0,0.0,0.0,2.5461,2.5315,2.5192,2.5201,2.4869,2.4655,2.461,2.4452,2.4246,2.4002,2.3738,2.358,2.3508,2.344,2.3105,2.2531,2.1702,2.0985,2.0332,1.9317,1.8443,1.7697,1.7377,1.6528,1.5286,1.3396,1.039,0.6575,0.1877,-0.2759,-0.7142,-1.004,-1.193,-1.3091,-1.3251,-1.4906,-1.691,-1.7401,-1.7955,-1.8625,-1.9609,-2.0635,-2.1609,-2.2455,-2.304,-2.3354,-2.304,-2.261,-2.2209,-2.1928,-2.1675,-2.1565,0.0,-2.1701,-2.1921,-2.3064,-2.3335,-2.3692,-2.4405,-2.4554,-2.4901,0.0,0.0,0.0,0.0,0.0,0.0,-2.4745,0.0,-2.5834,-2.5002,-2.5139,-2.4789,-2.3914,-2.3432,-2.2877,-2.2208,-2.1493,-2.0917,-2.0562,-1.877,-1.7625,-1.7009,-1.5252,-1.3897,-1.2948,-1.3199,-1.3017,-1.2488,-1.2035,-1.2078,-1.229,-1.0743,-1.0431,-1.0663,-0.9963,-0.9681,-0.9614,0.0,0.0,0.0,0.0,0.0,0.0,0.0,0.0,0.0,0.0,0.0,0.0,0.0,0.0,0.0,0.0,0.0,0.0,2.5411,2.5289,2.5201,2.5189,2.4743,2.4549,2.4752,2.4227,2.4023,2.4135,2.3881,2.3753,2.371,2.3553,2.2964,2.2024,2.109,2.005,1.8956,1.7938,1.7326,1.694,1.6453,1.5463,1.3915,1.0642,0.6152,0.1077,-0.2514,-0.6826,-1.084,-1.1171,-1.3032,-1.5259,-1.5538,-1.6833,-1.843,-1.9422,-1.9667,-1.9883,-2.1005,-2.1483,-2.1754,-2.2043,-2.2333,-2.2524,-2.2495,-2.2182,-2.1886,-2.1645,-2.1554,-2.1404,-2.1065,-2.0996,-2.1349,-2.2408,-2.2524,0.0,-2.4096,-2.4748,0.0,-2.5388,0.0,-2.6207,-2.6207,-2.667,0.0,0.0,-2.6075,-2.6489,-2.7313,-2.6861,-2.6202,-2.5331,-2.4902,-2.396,-2.2521,-2.1423,-2.0621,-2.0133,-1.9206,-1.8452,-1.7868,-1.6168,-1.5008,-1.4314,-1.3863,-1.3416,-1.3016,-1.2689,-1.2605,-1.2605,-1.1579,-1.1339,-1.1526,-1.1169,-1.0773,-1.0443,0.0,0.0,0.0,0.0,0.0,0.0,0.0,0.0,0.0,0.0,0.0,0.0,0.0,0.0,0.0,0.0,0.0,0.0,0.0,2.5146,2.5001,2.4872,2.4451,2.4295,2.4452,2.4004,2.3842,2.4019,0.0,0.0,2.375,2.3616,2.3249,2.2638,2.154,2.0453,1.9372,1.8095,1.7033,0.0,0.0,1.3536,1.0597,0.7809,0.2759,-0.3173,-0.5758,-0.9856,-1.4028,-1.4226,-1.5059,-1.6218,-1.7258,-1.8476,-1.9631,-2.034,-2.061,-2.0929,-2.1986,-2.2446,-2.2694,-2.2926,-2.305,-2.3013,-2.2752,-2.2283,-2.184,-2.1691,-2.1524,-2.1339,-2.0909,-2.0761,-2.0939,0.0,0.0,0.0,-2.3651,-2.4414,-2.506,0.0,-2.6044,0.0,-2.6704,-2.7072,-2.718,0.0,-2.6995,-2.7316,-2.7823,-2.743,-2.6755,-2.5721,-2.5287,-2.4336,-2.2804,-2.2138,-2.1485,-2.0775,-2.0157,-1.9425,-1.8532,-1.7096,-1.6006,-1.5206,0.0,-1.4114,-1.3597,-1.3246,-1.3194,-1.3199,-1.2147,-1.1881,-1.2052,-1.1688,-1.1333,-1.0997,0.0,0.0,0.0,0.0,0.0,0.0,0.0,0.0,0.0,0.0,0.0,0.0,0.0,0.0,0.0,0.0,0.0,0.0,0.0,0.0,0.0,0.0,2.406,2.3896,0.0,0.0,0.0,0.0,0.0,0.0,0.0,0.0,2.3468,2.3414,2.2265,2.1253,2.0379,1.8765,1.7255,1.5898,1.5031,1.1674,0.6959,0.0,0.0,0.0,-0.8725,-1.2537,-1.6602,-1.7832,-1.7546,-1.6954,-1.8657,-1.9857,-2.0689,-2.082,-2.1305,-2.1999,-2.2829,-2.3434,-2.3967,-2.432,-2.4238,-2.3924,-2.3304,-2.2521,-2.1882,-2.1751,0.0,-2.1261,-2.1007,-2.0745,-2.0712,-2.131,0.0,-2.2424,-2.3154,-2.3769,-2.4602,-2.5878,-2.6123,-2.6444,-2.7116,-2.7269,-2.7377,-2.7487,-2.8025,-2.8102,-2.7565,-2.7338,-2.6615,-2.5365,-2.4777,-2.4015,-2.2912,-2.2927,-2.2571,-2.1731,-2.1326,-2.0471,-1.9188,-1.8125,-1.6976,-1.5833,0.0,0.0,-1.4282,-1.387,-1.385,-1.3919,-1.2798,-1.2442,-1.2449,-1.213,-1.1756,-1.1455,0.0,0.0,0.0,0.0,0.0,0.0,0.0,0.0,0.0,0.0,2.6223,2.5283,0.0,0.0,0.0,0.0,0.0,0.0,0.0,0.0,0.0,0.0,2.3663,2.3399,0.0,0.0,0.0,0.0,0.0,0.0,0.0,0.0,0.0,0.0,0.0,0.0,1.9296,1.8052,1.7247,1.6731,1.5949,1.2274,0.6517,0.0,0.0,0.0,-1.3422,-1.6177,-1.782,-1.9136,-1.9578,-1.9644,-2.009,-2.1038,-2.2017,-2.2275,-2.2887,-2.3515,-2.368,-2.4236,-2.4748,-2.454,-2.393,-2.3321,-2.3154,-2.225,0.0,0.0,-2.1166,-2.0893,-2.0844,-2.0744,-2.0845,-2.131,-2.1435,-2.1848,-2.2894,-2.3168,-2.3705,0.0,-2.5697,-2.629,0.0,0.0,0.0,0.0,0.0,0.0,-2.8242,-2.727,-2.5839,-2.383,-2.287,-2.2249,-2.1939,-2.2176,-2.1952,-2.1336,-2.1522,-2.1064,-2.0001,-1.9162,-1.816,-1.7045,0.0,0.0,-1.5029,-1.4836,-1.4681,-1.4508,-1.3937,-1.3679,-1.3615,-1.355,-1.2923,-1.2192,0.0,0.0,0.0,0.0,0.0,0.0,0.0,2.9206,2.8616,2.8624,2.7221,2.616,2.6002,2.5912,2.5803,0.0,0.0,0.0,0.0,0.0,0.0,0.0,0.0,0.0,0.0,0.0,0.0,0.0,0.0,0.0,0.0,0.0,0.0,0.0,0.0,0.0,0.0,0.0,0.0,0.0,0.0,0.0,0.0,0.0,0.0,0.0,0.0,-1.8816,-1.9856,-2.0825,-2.1373,-2.1627,-2.1562,-2.2024,-2.2607,-2.2668,-2.3229,-2.3912,-2.4438,-2.5068,-2.5436,-2.494,-2.4373,-2.3671,-2.2718,0.0,0.0,0.0,-2.1198,-2.099,-2.1055,-2.0777,0.0,-2.0895,-2.1039,-2.1369,-2.1919,-2.258,0.0,-2.4245,-2.4971,-2.5773,0.0,0.0,0.0,0.0,0.0,0.0,-2.7666,-2.5968,-2.4586,-2.3752,-2.2405,-2.1812,-2.2122,-2.1952,-2.1688,-2.1369,-2.1288,-2.0742,-1.9855,-1.9173,-1.8377,-1.7379,-1.6606,0.0,-1.5215,-1.5156,-1.4961,-1.4688,-1.4627,-1.4305,-1.3855,-1.3765,-1.3332,-1.2833,0.0,0.0,0.0,0.0,0.0,0.0,0.0,2.9457,2.8863,2.864,2.7652,2.6852,2.65,2.6251,2.5925,0.0,0.0,0.0,0.0,0.0,0.0,0.0,0.0,0.0,0.0,0.0,0.0,0.0,0.0,0.0,0.0,0.0,0.0,0.0,0.0,0.0,0.0,0.0,0.0,0.0,0.0,0.0,0.0,0.0,0.0,0.0,0.0,-2.0844,-2.1836,-2.2224,-2.2643,-2.2977,-2.273,-2.279,-2.2902,-2.2816,-2.3265,-2.4036,-2.5028,-2.5767,-2.6115,-2.5507,-2.4981,-2.4207,-2.2564,-2.1913,0.0,-2.1524,-2.1293,-2.1151,-2.1246,-2.0794,-2.0407,0.0,-2.0681,-2.0898,-2.0983,-2.1888,-2.2778,0.0,-2.4145,0.0,0.0,0.0,0.0,0.0,0.0,0.0,-2.6281,-2.4622,-2.3564,-2.3325,-2.2092,-2.1693,-2.2216,-2.1797,-2.1471,-2.1373,-2.0932,-2.0376,-1.9604,-1.9097,-1.8459,-1.7644,-1.6989,0.0,0.0,-1.5323,-1.5079,-1.4834,-1.497,-1.4655,-1.4022,-1.3737,-1.3534,-1.336,0.0,0.0,0.0,0.0,0.0,0.0,0.0,2.835,2.7757,2.6782,2.6451,2.6239,2.6068,2.5492,2.4728,0.0,0.0,0.0,0.0,0.0,0.0,0.0,0.0,0.0,0.0,0.0,0.0,0.0,0.0,0.0,0.0,0.0,0.0,0.0,0.0,0.0,0.0,0.0,0.0,0.0,0.0,0.0,0.0,0.0,0.0,0.0,0.0,-2.2373,-2.3003,-2.2669,0.0,-2.3324,-2.3247,-2.3102,-2.2995,-2.3045,0.0,0.0,-2.5323,-2.6144,-2.6654,-2.6271,-2.5443,-2.4415,-2.3321,0.0,-2.1738,-2.1554,-2.1291,-2.1118,-2.1198,-2.0811,-2.0426,-2.0185,-2.0281,-2.0436,-2.0693,-2.0873,-2.1452,-2.2649,0.0,0.0,0.0,0.0,0.0,0.0,0.0,0.0,0.0,-2.4046,-2.3193,-2.1246,-2.1225,-2.1305,-2.1404,-2.126,-2.1087,-2.0927,-2.0889,-2.0494,-1.9798,-1.9604,-1.9162,-1.8555,0.0,0.0,0.0,-1.5642,-1.5313,-1.5156,-1.5156,-1.4942,-1.4604,-1.4203,-1.3941,-1.3772,0.0,0.0,0.0,0.0,0.0,0.0,2.7302,2.7122,2.689,2.6448,2.6122,2.5695,2.4999,2.4475,2.4292,2.4627,0.0,0.0,0.0,0.0,0.0,0.0,0.0,0.0,0.0,0.0,0.0,0.0,0.0,0.0,0.0,0.0,0.0,0.0,0.0,0.0,0.0,0.0,0.0,0.0,0.0,0.0,0.0,0.0,0.0,0.0,0.0,0.0,-2.314,-2.3146,-2.3164,-2.3199,-2.3077,-2.3003,-2.297,0.0,-2.3714,-2.4433,-2.4835,-2.5549,-2.6029,-2.5376,-2.4812,-2.4105,-2.3027,0.0,-2.1982,-2.1994,-2.1598,-2.1276,-2.1509,-2.0942,-2.0407,-2.0357,-2.0235,0.0,-2.0318,-2.0661,-2.1228,-2.2069,0.0,0.0,0.0,0.0,0.0,0.0,0.0,0.0,0.0,-2.3115,-2.2644,-2.1746,-2.1215,-2.1011,-2.1302,-2.0927,-2.0823,-2.1011,-2.0654,-2.0309,-1.9926,-1.9888,-1.9436,-1.8661,0.0,0.0,0.0,-1.6312,-1.5931,-1.572,-1.543,-1.5137,-1.4855,-1.4544,-1.4373,-1.4301,0.0,0.0,0.0,0.0,0.0,2.5665,2.5319,2.5194,2.4996,2.447,2.4179,2.3768,2.323,2.2738,2.2932,2.4223,2.3786,0.0,0.0,0.0,0.0,0.0,0.0,0.0,0.0,0.0,0.0,0.0,0.0,0.0,0.0,0.0,0.0,0.0,0.0,0.0,0.0,0.0,0.0,0.0,0.0,0.0,0.0,0.0,0.0,0.0,0.0,0.0,0.0,0.0,0.0,-2.3119,-2.297,-2.2919,-2.2919,-2.3045,-2.353,-2.4081,-2.4417,-2.4953,-2.5287,-2.4686,-2.437,-2.3885,0.0,0.0,-2.2226,-2.2275,-2.1866,-2.157,-2.1811,-2.1135,-2.0509,-2.0527,-2.0254,-2.0025,-2.001,-2.0385,-2.0872,0.0,0.0,0.0,0.0,0.0,0.0,0.0,0.0,0.0,0.0,-2.2694,-2.2235,-2.2095,-2.1541,-2.1232,-2.1173,-2.0833,-2.0732,-2.0913,-2.0489,-2.0195,-2.0042,-2.0042,-1.9708,-1.9044,0.0,0.0,0.0,-1.7045,-1.6549,-1.6161,-1.5806,-1.542,-1.504,-1.4715,-1.4649,-1.465,0.0,0.0,0.0,0.0,0.0,0.0,2.2712,2.2379,2.1629,2.0003,1.9788,1.999,2.0651,2.0086,2.0194,2.1517,2.1383,0.0,0.0,0.0,0.0,0.0,0.0,0.0,0.0,0.0,0.0,1.5519,1.457,0.0,0.0,0.0,0.0,0.0,0.0,0.0,0.0,0.0,0.0,0.0,0.0,0.0,0.0,0.0,0.0,0.0,0.0,0.0,0.0,0.0,0.0,0.0,0.0,-2.2952,-2.2902,-2.2995,-2.3045,-2.332,-2.4251,-2.4513,-2.4537,-2.4659,-2.4396,-2.3833,0.0,-2.2554,-2.2443,-2.2237,-2.2096,-2.1982,-2.1998,-2.1339,-2.0745,-2.063,-2.0308,-2.003,-1.9833,-1.9812,0.0,0.0,0.0,0.0,0.0,0.0,0.0,0.0,0.0,0.0,0.0,0.0,-2.2095,-2.1602,-2.2203,-2.1969,-2.0901,-2.0901,-2.0738,-2.0524,-2.0524,-2.0398,-2.0182,-2.0182,-2.0131,0.0,0.0,0.0,0.0,-1.7754,-1.7045,-1.6492,-1.6368,-1.5816,-1.5157,-1.4772,-1.4649,-1.465,0.0,0.0,0.0,0.0,0.0,0.0,0.0,1.868,1.8545,1.7984,1.7901,1.7972,1.8242,1.8036,1.7624,1.7035,1.9261,0.0,0.0,0.0,0.0,0.0,0.0,0.0,0.0,0.0,1.4046,1.2902,1.3642,1.2196,0.8639,0.0,0.0,0.0,0.0,0.0,0.0,0.0,0.0,0.0,0.0,0.0,0.0,0.0,0.0,0.0,0.0,0.0,0.0,0.0,0.0,0.0,0.0,0.0,0.0,-2.2868,-2.2995,-2.3154,-2.345,-2.3545,-2.3545,-2.3545,-2.342,-2.3197,-2.2885,-2.2747,-2.2668,-2.2544,-2.2281,-2.2039,-2.2027,-2.1584,-2.1135,-2.0861,-2.0597,-2.0376,0.0,0.0,0.0,0.0,0.0,0.0,0.0,0.0,0.0,0.0,0.0,0.0,0.0,0.0,-2.3113,-2.2095,-2.1541,-2.1131,-2.0762,-2.0762,-2.0712,-2.0662,-2.0662,-2.0562,-2.041,-2.041,0.0,0.0,0.0,0.0,0.0,-1.8608,-1.7918,-1.7268,-1.6652,-1.6046,-1.5488,-1.5264,-1.5071,-1.501,0.0,0.0,0.0,0.0,0.0,0.0,0.0,1.5614,1.5746,1.5465,1.5522,1.5598,1.5711,1.5711,1.5439,1.4697,1.6846,0.0,0.0,0.0,0.0,0.0,0.0,0.0,0.0,1.2669,1.2034,1.1014,0.9906,0.7056,0.2603,0.0534,-0.2163,0.0,0.0,0.0,0.0,0.0,0.0,0.0,0.0,0.0,-2.2996,0.0,0.0,0.0,0.0,0.0,0.0,0.0,0.0,0.0,0.0,0.0,0.0,0.0,-2.3171,-2.2995,-2.3045,-2.307,-2.3045,-2.302,-2.2944,0.0,-2.2868,-2.2816,-2.2764,-2.2712,-2.248,-2.2243,-2.2186,-2.184,-2.1448,-2.1119,-2.0795,-2.0496,0.0,0.0,0.0,0.0,0.0,0.0,0.0,0.0,0.0,0.0,0.0,0.0,0.0,0.0,-2.3377,-2.242,-2.1813,-2.1361,-2.1033,-2.0898,-2.0799,-2.0699,-2.0699,-2.0662,-2.0562,-2.0562,0.0,0.0,0.0,0.0,0.0,-1.8794,-1.8113,-1.7441,-1.6869,-1.6285,-1.573,-1.5604,-1.543,-1.5264,0.0,0.0,0.0,0.0,0.0,0.0,0.0,1.3109,1.3263,1.2437,1.2627,1.2953,1.3296,1.3211,1.3297,1.372,0.0,0.0,0.0,0.0,0.0,0.0,0.0,0.0,0.0,0.9694,0.9213,0.9232,0.3881,0.0168,-0.2014,-0.3904,-0.757,-1.2553,-1.379,0.0,0.0,0.0,0.0,0.0,0.0,0.0,0.0,0.0,0.0,0.0,0.0,0.0,0.0,0.0,0.0,0.0,0.0,0.0,0.0,0.0,0.0,0.0,0.0,-2.2995,-2.2995,-2.2977,-2.2893,-2.279,-2.279,-2.2738,0.0,-2.2685,-2.2579,-2.2515,-2.2487,-2.2147,-2.1721,-2.1401,-2.0942,-2.0496,0.0,0.0,0.0,0.0,0.0,0.0,0.0,0.0,0.0,0.0,0.0,0.0,0.0,0.0,0.0,-2.2505,-2.27,-2.2395,-2.1568,-2.118,-2.0898,-2.0699,-2.066,-2.0646,-2.0633,-2.0607,0.0,0.0,0.0,0.0,0.0,-1.8361,-1.769,-1.7103,-1.6852,-1.6384,-1.5823,-1.5641,-1.5477,-1.5371,0.0,0.0,0.0,0.0,0.0,0.0,0.0,0.0,0.0,0.0,0.9724,1.0638,1.2538,1.1284,0.9945,0.0,0.0,0.0,0.0,0.0,0.0,0.0,0.0,0.0,0.0,0.8598,0.6743,0.2581,-0.1058,-0.3727,-0.5614,-1.0486,-1.3388,-1.4591,-1.626,0.0,0.0,0.0,0.0,0.0,0.0,0.0,0.0,0.0,0.0,0.0,-2.5029,-2.4889,0.0,0.0,0.0,0.0,0.0,0.0,0.0,0.0,-2.3848,-2.3667,-2.3024,0.0,-2.279,-2.2842,-2.279,-2.2712,0.0,-2.2712,-2.2685,-2.2632,-2.2605,-2.2542,-2.2432,-2.2349,-2.2135,-2.1751,-2.1291,-2.0862,0.0,0.0,0.0,0.0,0.0,0.0,0.0,0.0,0.0,0.0,0.0,0.0,0.0,0.0,0.0,-2.2204,-2.1921,-2.1584,-2.1131,-2.1033,-2.0961,-2.0838,-2.0413,-2.0092,-1.9982,-1.9525,0.0,0.0,0.0,0.0,-1.8175,-1.758,-1.6923,-1.6327,-1.614,-1.5616,-1.5039,-1.4715,-1.4824,-1.5044,0.0,0.0,0.0,0.0,0.0,0.0,0.0,0.0,0.0,0.0,0.0,0.6456,0.7827,0.6932,0.0,0.0,0.0,0.0,0.0,0.0,0.0,0.0,0.0,0.0,0.4458,0.4802,0.3222,-0.0523,-0.5745,-0.9108,-1.074,-1.4413,-1.6434,-1.7177,-1.9478,0.0,0.0,0.0,0.0,0.0,-2.5543,0.0,0.0,0.0,0.0,0.0,-2.5637,-2.5718,0.0,-2.6106,-2.6249,-2.633,0.0,0.0,0.0,0.0,-2.4469,-2.3883,-2.344,-2.3023,-2.2764,-2.279,-2.2764,-2.2712,-2.2712,-2.2712,-2.2685,-2.2659,-2.2596,-2.2542,-2.246,-2.2276,-2.2032,-2.1827,-2.1291,0.0,0.0,0.0,0.0,0.0,0.0,0.0,0.0,0.0,0.0,0.0,0.0,0.0,0.0,0.0,-2.2171,-2.187,-2.1435,-2.104,-2.074,-2.0867,-2.0609,-2.0083,-2.0017,-1.9845,-1.9582,-1.9101,0.0,0.0,0.0,0.0,-1.7545,-1.6824,-1.6184,-1.5665,-1.5502,-1.5185,-1.4829,-1.4566,-1.474,-1.5074,0.0,0.0,0.0,0.0,0.0,0.0,0.0,0.0,0.0,0.0,0.0,0.0,0.0,0.0,0.0,0.0,0.0,0.0,0.0,0.0,0.0,0.0,0.0,0.3184,0.0444,0.0184,-0.0852,-0.2782,-0.9948,-1.411,-1.5431,-1.6705,-1.8203,-1.9972,-2.242,-2.3816,0.0,0.0,0.0,0.0,-2.649,0.0,0.0,0.0,0.0,0.0,0.0,0.0,0.0,-2.6862,-2.7208,-2.773,-2.773,0.0,0.0,0.0,0.0,0.0,-2.394,-2.3404,-2.2902,-2.2808,-2.2824,-2.2823,-2.2746,-2.2712,-2.2712,-2.2712,-2.2605,-2.2515,-2.2443,-2.2147,0.0,0.0,0.0,0.0,0.0,0.0,0.0,0.0,0.0,0.0,0.0,0.0,0.0,0.0,0.0,0.0,0.0,0.0,0.0,-2.1335,-2.094,-2.0561,-2.0104,-2.0429,-2.0102,-1.9133,-1.9529,-1.9509,-1.9123,-1.8792,0.0,0.0,0.0,0.0,-1.6995,-1.6126,-1.5516,-1.5081,-1.4879,-1.479,-1.4738,-1.4511,-1.47,-1.5004,0.0,0.0,0.0,0.0,0.0,0.0,0.0,0.0,0.0,0.0,0.0,0.0,0.0,0.0,0.0,0.0,0.0,0.0,0.0,0.0,0.0,0.0,0.0389,0.0895,-0.1018,-0.2516,-0.4942,-0.8463,-1.2828,-1.533,-1.6009,-1.8398,-2.053,-2.2368,-2.2938,-2.3484,-2.4078,-2.4482,-2.4936,-2.5491,-2.6588,0.0,0.0,0.0,0.0,0.0,0.0,0.0,0.0,-2.7326,-2.7465,-2.7376,-2.7376,0.0,0.0,0.0,0.0,0.0,-2.4188,-2.3674,-2.3423,-2.2867,-2.3195,-2.346,-2.2823,-2.2712,-2.2712,-2.2712,-2.2685,-2.2535,-2.2141,-2.226,-2.226,0.0,0.0,0.0,0.0,0.0,0.0,0.0,0.0,0.0,0.0,0.0,0.0,0.0,0.0,0.0,0.0,0.0,0.0,-1.9989,-1.9827,-1.9362,-1.8623,-1.9355,-1.9562,-1.9256,-1.8813,-1.8442,-1.8249,-1.7695,-1.7431,0.0,0.0,-1.656,-1.6311,-1.5427,-1.4878,-1.4576,-1.4143,-1.3934,-1.3779,-1.3624,-1.386,-1.4368,0.0,0.0,0.0,0.0,0.0,0.0,0.0,0.0,0.0,0.0,0.0,0.0,0.0,0.0,0.0,0.0,0.0,0.0,0.0,0.0,0.0,-0.4455,-0.396,-0.4168,-0.5148,-0.6104,-0.8252,-1.1716,-1.455,-1.6439,-1.7432,-2.0329,-2.2209,-2.3101,-2.4254,-2.4937,-2.5213,-2.586,-2.6254,-2.6567,0.0,0.0,0.0,0.0,0.0,0.0,0.0,0.0,0.0,0.0,-2.7421,-2.7362,-2.733,0.0,0.0,0.0,0.0,0.0,-2.4643,-2.4115,-2.3588,-2.2875,-2.289,-2.3007,-2.2664,-2.2579,-2.2579,-2.2579,-2.2552,-2.2415,0.0,0.0,-2.1645,-2.0975,0.0,0.0,0.0,0.0,0.0,0.0,0.0,0.0,0.0,0.0,0.0,0.0,0.0,0.0,0.0,0.0,0.0,0.0,-1.953,-1.9124,-1.8745,-1.8508,-1.8428,-1.8441,-1.8395,-1.8206,-1.7872,-1.7413,-1.7212,-1.7183,0.0,-1.6423,-1.5844,-1.5311,-1.472,-1.4093,-1.381,-1.3668,-1.3594,-1.3744,-1.3972,-1.4292,0.0,0.0,0.0,0.0,0.0,0.0,0.0,0.0,0.0,0.0,0.0,0.0,0.0,0.0,0.0,0.0,0.0,0.0,0.0,0.0,-0.642,-0.6506,-0.7989,-0.8794,-0.8706,-0.9242,-1.0926,-1.3824,-1.5704,-1.7601,-1.9458,-2.1909,-2.3216,-2.3608,-2.5227,-2.5928,-2.5964,-2.6935,-2.7282,-2.7203,0.0,0.0,0.0,0.0,0.0,0.0,0.0,0.0,0.0,0.0,0.0,0.0,0.0,0.0,0.0,-2.7023,-2.6082,-2.5005,-2.4876,-2.4259,-2.3532,-2.2848,-2.2743,-2.2747,-2.2576,-2.2525,-2.2515,-2.2515,-2.2405,0.0,0.0,-2.1584,0.0,0.0,0.0,0.0,0.0,0.0,0.0,0.0,0.0,0.0,0.0,0.0,0.0,0.0,0.0,0.0,0.0,0.0,0.0,0.0,-1.9581,-1.9139,-1.895,-1.8147,-1.7733,-1.7679,-1.7982,-1.7969,-1.7597,-1.7337,-1.7212,-1.7225,-1.7002,-1.6411,-1.5599,-1.5299,-1.472,-1.3952,-1.3716,-1.3621,-1.3625,-1.4029,-1.4216,-1.4327,0.0,0.0,0.0,0.0,0.0,0.0,0.0,0.0,0.0,0.0,0.0,0.0,0.0,0.0,0.0,0.0,0.0,0.0,0.0,0.0,-0.8292,-0.9163,-1.094,-1.1181,-0.9636,-1.0946,-1.2802,-1.508,-1.6454,-1.8937,-2.2292,-2.2606,-2.3363,-2.4508,-2.4974,-2.5114,-2.5059,-2.6137,-2.633,-2.6016,-2.6952,0.0,0.0,0.0,0.0,0.0,0.0,0.0,0.0,0.0,0.0,0.0,0.0,0.0,-2.621,-2.6175,-2.5678,-2.4996,-2.4551,-2.3887,-2.3219,-2.274,-2.3148,-2.3502,-2.276,-2.2579,-2.2596,-2.2515,-2.226,0.0,0.0,-2.1584,0.0,0.0,0.0,0.0,0.0,0.0,0.0,0.0,0.0,0.0,0.0,0.0,0.0,0.0,0.0,0.0,0.0,0.0,0.0,0.0,0.0,-1.931,-1.8553,-1.8461,-1.8108,-1.7516,-1.7363,-1.7334,-1.7404,-1.7253,-1.7031,-1.6765,-1.6595,-1.6163,-1.5591,-1.513,-1.472,-1.4408,-1.3952,-1.3716,-1.3672,-1.4138,-1.4224,-1.4216,0.0,0.0,0.0,0.0,0.0,0.0,0.0,0.0,0.0,0.0,0.0,0.0,0.0,0.0,0.0,0.0,0.0,0.0,0.0,0.0,-0.9742,-0.9697,-1.1912,-1.2821,-1.2204,-1.3681,-1.5349,-1.7214,-1.9031,-2.086,-2.2603,-2.2844,-2.3201,-2.3681,-2.4379,-2.4648,-2.4648,-2.5368,-2.5572,-2.5481,-2.6087,-2.6298,0.0,0.0,0.0,0.0,0.0,0.0,0.0,0.0,-2.6245,-2.6104,-2.6104,-2.6104,-2.6005,-2.5609,-2.4928,-2.4232,-2.3629,-2.2879,-2.2245,-2.2265,-2.2502,-2.2638,-2.2511,-2.2487,-2.246,-2.2377,-2.2118,0.0,0.0,0.0,0.0,0.0,0.0,0.0,0.0,0.0,0.0,0.0,0.0,0.0,0.0,0.0,0.0,0.0,0.0,0.0,0.0,0.0,0.0,0.0,0.0,-1.9049,-1.85,-1.8175,-1.7868,-1.7625,-1.7447,-1.7365,-1.7404,-1.7253,-1.6976,-1.6552,-1.6522,-1.6032,-1.5277,-1.5006,-1.4686,-1.4269,-1.3952,-1.3716,-1.3631,-1.3807,-1.4142,-1.4573,0.0,0.0,0.0,0.0,0.0,0.0,0.0,0.0,0.0,0.0,0.0,0.0,0.0,0.0,0.0,0.0,0.0,0.0,0.0,-1.0478,-1.1045,-1.0836,-1.2915,-1.4136,-1.4255,-1.5803,-1.7213,-1.8412,-2.0508,-2.1888,-2.2586,-2.2814,-2.3083,-2.3348,-2.3906,-2.4184,-2.4241,-2.4887,-2.5098,-2.5091,-2.5702,-2.5842,0.0,0.0,0.0,0.0,0.0,0.0,0.0,0.0,-2.5852,-2.5742,-2.5742,-2.5742,-2.5611,-2.4909,-2.419,-2.3422,-2.2834,-2.2064,-2.1491,-2.1836,-2.1866,-2.1882,-2.2032,-2.2192,-2.222,-2.202,-2.1886,-2.1661,-2.1214,0.0,0.0,0.0,0.0,0.0,0.0,0.0,0.0,0.0,0.0,0.0,0.0,0.0,0.0,0.0,0.0,0.0,0.0,0.0,0.0,0.0,0.0,0.0,-1.85,-1.8135,-1.7868,-1.7679,-1.7625,-1.7502,-1.7432,-1.7295,-1.6989,-1.6552,-1.638,-1.5812,-1.5062,-1.4823,-1.4547,-1.4176,-1.3905,-1.3716,-1.3689,-1.3776,-1.4181,-1.4655,0.0,0.0,0.0,0.0,0.0,0.0,0.0,0.0,0.0,0.0,0.0,0.0,0.0,0.0,0.0,0.0,0.0,0.0,-1.1059,-1.1677,-1.2282,-1.2948,-1.4222,-1.5069,-1.5352,-1.7146,-1.8255,-1.8525,-2.0434,-2.1779,-2.2512,-2.2586,-2.3053,-2.3782,-2.3709,-2.3709,-2.3839,-2.4648,-2.4863,-2.4701,-2.5966,-2.6112,-2.56,0.0,0.0,0.0,0.0,0.0,0.0,0.0,-2.5269,-2.4966,-2.4966,-2.5005,-2.4863,-2.4128,-2.3358,-2.2717,-2.2287,-2.1584,-2.1071,-2.1415,-2.1477,-2.1462,-2.1417,-2.1705,-2.1866,-2.1401,-2.1554,-2.1601,-2.0925,0.0,0.0,0.0,0.0,0.0,0.0,0.0,0.0,0.0,0.0,0.0,0.0,0.0,0.0,0.0,0.0,0.0,0.0,0.0,0.0,0.0,0.0,0.0,-1.85,-1.85,-1.8254,-1.7679,-1.7679,-1.7625,-1.7475,-1.7282,-1.7031,-1.6667,-1.6051,-1.5534,-1.5062,-1.4605,-1.4326,-1.4176,-1.3905,-1.3821,-1.3826,-1.4187,-1.4304,-1.4398,0.0,0.0,0.0,0.0,0.0,0.0,0.0,0.0,0.0,0.0,0.0,0.0,0.0,0.0,0.0,0.0,0.0,0.0,0.0,-1.1052,-1.1615,-1.1794,-1.3614,-1.4647,-1.4765,-1.6968,-1.8727,-1.9978,-2.1286,-2.2077,-2.231,-2.2646,-2.2737,-2.2723,-2.3201,-2.3257,-2.3046,-2.4312,-2.482,-2.488,-2.544,-2.553,-2.5317,0.0,0.0,0.0,0.0,0.0,0.0,0.0,0.0,0.0,-2.4036,-2.4302,-2.448,-2.3701,-2.2964,-2.2282,-2.1882,-2.0782,-1.9934,-2.0845,0.0,0.0,-2.0909,-2.1524,-2.1882,0.0,-2.123,-2.1055,-2.0827,0.0,0.0,0.0,0.0,0.0,0.0,0.0,0.0,0.0,0.0,0.0,0.0,0.0,0.0,0.0,0.0,0.0,0.0,0.0,0.0,0.0,0.0,0.0,-1.8069,-1.7989,-1.7868,-1.7679,-1.7569,-1.7487,-1.7432,-1.735,-1.6863,-1.6051,-1.5876,-1.5355,-1.4605,-1.4466,-1.4291,-1.4057,-1.3962,-1.3868,-1.3784,-1.3824,-1.4231,-1.478,0.0,0.0,0.0,0.0,0.0,0.0,0.0,0.0,0.0,0.0,0.0,0.0,0.0,0.0,0.0,0.0,0.0,0.0,0.0,0.0,-1.1608,-1.2212,-1.3674,-1.4923,-1.5891,-1.7357,-1.8833,-2.0258,-2.1334,-2.1779,-2.1589,-2.2463,-2.2637,-2.2235,-2.2944,-2.3146,-2.3022,-2.4033,-2.449,-2.4595,-2.513,-2.5185,-2.4922,0.0,0.0,0.0,0.0,0.0,0.0,0.0,0.0,0.0,-2.3718,-2.3891,-2.3815,-2.3091,-2.2526,-2.1973,-2.122,-2.0429,-1.9927,-2.0122,-2.0162,-2.0177,-2.0509,0.0,0.0,0.0,-2.0909,-2.0761,-2.0628,0.0,0.0,0.0,0.0,0.0,0.0,0.0,0.0,0.0,0.0,0.0,0.0,0.0,0.0,0.0,0.0,0.0,0.0,0.0,0.0,0.0,0.0,0.0,-1.8135,-1.8016,-1.7868,-1.7679,-1.7515,-1.7432,-1.7404,-1.7141,-1.6693,-1.6064,-1.5668,-1.504,-1.4326,-1.4326,-1.4186,-1.3973,-1.3926,-1.3868,-1.3773,-1.3668,-1.3972,-1.4429,0.0,0.0,0.0,0.0,0.0,0.0,0.0,0.0,0.0,0.0,0.0,0.0,0.0,0.0,0.0,0.0,0.0,0.0,0.0,0.0,-1.1965,-1.3468,-1.4154,-1.5603,-1.7984,-1.8038,-1.8566,-1.9695,-2.0782,-2.1104,-2.0688,-2.2147,-2.2625,-2.2245,-2.2908,-2.327,-2.3478,-2.3826,-2.4007,-2.4193,-2.5029,-2.5018,-2.4497,-2.5163,0.0,0.0,0.0,0.0,0.0,0.0,0.0,0.0,-2.3708,-2.3506,-2.2966,-2.238,-2.2032,-2.1641,-2.0575,-2.0486,-2.0493,-1.9455,-1.9542,0.0,-2.0142,-2.0189,-2.027,-2.0494,0.0,-2.0628,0.0,0.0,0.0,0.0,0.0,0.0,0.0,0.0,0.0,0.0,0.0,0.0,0.0,0.0,0.0,0.0,0.0,0.0,0.0,0.0,0.0,0.0,0.0,0.0,-1.85,-1.8319,-1.8055,0.0,-1.7529,-1.7406,-1.7321,-1.6833,-1.6522,-1.638,-1.5457,-1.4686,-1.4176,-1.4176,-1.4093,-1.3973,-1.3868,-1.3821,-1.3773,-1.3668,-1.3594,-1.3542,0.0,0.0,0.0,0.0,0.0,0.0,0.0,0.0,0.0,0.0,0.0,0.0,0.0,0.0,0.0,0.0,0.0,0.0,0.0,0.0,-1.1421,-1.2158,-1.3683,-1.5381,-1.7368,-1.7368,-1.7918,-1.9016,-2.0181,-2.0933,-2.1225,-2.2024,-2.2299,-2.2326,-2.2918,-2.3097,-2.3027,-2.4013,-2.4569,-2.4778,-2.4554,-2.4514,-2.4489,-2.3375,-2.2932,0.0,0.0,0.0,0.0,0.0,0.0,0.0,-2.2072,-2.2159,-2.2289,-2.2055,-2.1538,-2.1102,-2.1413,-2.0468,0.0,-1.9752,-1.9542,-1.9336,-1.942,-1.9406,-1.9639,-2.0597,-2.0361,0.0,0.0,0.0,0.0,0.0,0.0,0.0,0.0,0.0,0.0,0.0,0.0,0.0,0.0,0.0,0.0,0.0,0.0,0.0,0.0,0.0,0.0,0.0,0.0,-1.8592,-1.85,-1.8055,-1.7747,0.0,-1.7461,-1.7183,-1.6693,-1.7044,-1.6735,-1.5876,-1.496,-1.4384,-1.4057,-1.4186,-1.4046,-1.3821,-1.3821,-1.3821,-1.3773,-1.3668,-1.3488,-1.339,0.0,0.0,0.0,0.0,0.0,0.0,0.0,0.0,0.0,0.0,0.0,0.0,0.0,0.0,0.0,0.0,0.0,0.0,0.0,0.0,0.0,-1.2597,-1.4094,-1.5507,-1.6733,-1.7024,-1.7867,-1.9306,-1.9936,-2.0456,-2.0972,-2.21,-2.2485,-2.2321,-2.2933,-2.3063,-2.2853,-2.3838,-2.4013,-2.3655,-2.3716,-2.3522,-2.3135,-2.2475,-2.2059,-2.172,-2.1524,0.0,0.0,0.0,0.0,0.0,0.0,0.0,-2.121,-2.1113,-2.0801,-2.0542,-2.0634,-1.992,0.0,-1.9209,0.0,-1.8606,-1.8808,-1.8707,-1.8822,-1.9823,0.0,0.0,0.0,0.0,0.0,0.0,0.0,0.0,0.0,0.0,0.0,0.0,0.0,0.0,0.0,0.0,0.0,0.0,0.0,0.0,0.0,0.0,0.0,0.0,-1.9124,-1.8707,-1.85,-1.8175,-1.7814,-1.7516,-1.7432,-1.7099,-1.6522,-1.6337,-1.5844,-1.5085,-1.4593,-1.4244,-1.402,-1.4104,-1.3962,-1.3716,-1.3716,-1.3716,-1.3716,-1.3621,-1.3369,-1.2995,0.0,0.0,0.0,0.0,0.0,0.0,0.0,0.0,0.0,0.0,0.0,0.0,0.0,0.0,0.0,0.0,0.0,0.0,0.0,0.0,0.0,0.0,-1.4697,-1.5565,-1.628,-1.6885,-1.7924,-1.9436,-1.9613,-2.0045,-2.0637,-2.2189,-2.2711,-2.2447,-2.293,-2.2987,-2.2776,-2.3318,-2.3039,-2.2213,-2.2708,-2.2369,-2.1595,-2.1817,-2.1411,-2.0777,-2.1272,-2.131,-2.1186,-2.1944,0.0,0.0,0.0,0.0,-2.008,-2.008,-2.0004,-1.9876,-1.9441,-1.9208,-1.8977,-1.8354,-1.8024,0.0,-1.824,-1.8095,-1.8069,0.0,0.0,0.0,0.0,0.0,0.0,0.0,0.0,0.0,0.0,0.0,0.0,0.0,0.0,0.0,0.0,0.0,0.0,0.0,0.0,0.0,0.0,0.0,-1.9762,-1.969,-1.9325,-1.8898,-1.85,-1.8319,-1.8002,-1.7516,-1.7253,-1.6863,-1.6337,-1.5412,-1.4789,-1.4512,-1.4419,-1.4244,-1.402,-1.402,-1.3821,-1.3621,-1.3621,-1.3621,-1.3573,-1.3515,-1.3112,-1.2511,0.0,0.0,0.0,0.0,0.0,0.0,0.0,0.0,0.0,0.0,0.0,0.0,0.0,0.0,0.0,0.0,0.0,0.0,0.0,0.0,0.0,0.0,-1.4529,-1.5177,-1.6363,-1.6805,-1.7317,-1.7955,-1.8956,-1.9977,-2.1021,-2.1973,-2.2602,-2.2965,-2.2664,-2.2591,-2.2627,-2.2286,-2.2139,-2.2066,-2.1592,-2.1444,-2.1525,-2.0588,-2.0468,-2.0736,-1.9987,-2.0365,-2.1126,-2.0428,-2.0385,0.0,0.0,0.0,-1.9656,-1.9656,-1.932,-1.9033,-1.9302,0.0,-1.7894,0.0,-1.7604,-1.7475,0.0,0.0,0.0,0.0,0.0,0.0,0.0,0.0,0.0,0.0,0.0,0.0,0.0,0.0,0.0,0.0,0.0,0.0,0.0,0.0,0.0,0.0,0.0,0.0,0.0,-2.0045,-2.0045,-1.9726,-1.9325,-1.8898,-1.85,-1.8135,-1.7788,-1.7475,-1.6484,-1.5964,-1.5876,-1.4915,-1.4697,-1.4971,-1.4558,-1.4244,-1.402,-1.402,-1.3821,-1.3621,-1.3621,-1.3621,-1.3515,-1.3064,-1.2511,-1.1864,0.0,0.0,0.0,0.0,0.0,0.0,0.0,0.0,0.0,0.0,0.0,0.0,0.0,0.0,0.0,0.0,0.0,0.0,0.0,0.0,0.0,-1.3863,-1.4291,-1.5056,-1.6207,-1.6765,-1.7525,-1.8631,-1.9168,-2.0008,-2.1113,-2.1717,-2.2383,-2.3078,-2.2075,-2.1784,-2.1946,-2.1808,-2.1389,-2.0896,-2.1072,-2.0837,-2.0279,-1.9672,-1.9482,-1.9482,-1.941,-1.9737,-2.0266,-2.0225,-2.02,-2.0043,-1.9891,0.0,0.0,0.0,-1.908,-1.8814,-1.84,-1.7847,-1.7282,0.0,-1.7029,-1.7115,-1.7115,0.0,0.0,0.0,0.0,0.0,0.0,0.0,0.0,0.0,0.0,0.0,0.0,0.0,0.0,0.0,0.0,0.0,0.0,0.0,0.0,0.0,0.0,0.0,-1.9347,-1.931,-1.9221,-1.9035,-1.863,0.0,-1.8175,-1.8003,-1.7611,-1.7089,-1.6225,-1.5656,-1.5355,-1.464,-1.4419,-1.4593,-1.4362,-1.414,-1.3868,-1.3868,-1.3621,-1.316,-1.316,-1.2977,-1.2686,-1.2442,-1.199,-1.1451,0.0,0.0,0.0,0.0,0.0,0.0,0.0,0.0,0.0,0.0,0.0,0.0,0.0,0.0,0.0,0.0,0.0,0.0,0.0,0.0,0.0,-1.345,-1.4261,-1.5125,-1.6055,-1.689,-1.7945,-1.9124,-1.9253,-1.9929,-2.1009,-2.1184,-2.1804,-2.2714,-2.1562,-2.1158,-2.1197,-2.1202,-2.0717,-2.0035,-2.0471,-2.0158,-1.9353,-1.8983,-1.8625,-1.8452,-1.8927,-1.9116,-1.9285,-1.9957,-1.9925,-1.9588,-1.9588,-1.9312,0.0,0.0,0.0,-1.8386,0.0,0.0,-1.6655,-1.6249,-1.6466,-1.6735,0.0,0.0,0.0,0.0,0.0,0.0,0.0,0.0,0.0,0.0,0.0,0.0,0.0,0.0,0.0,0.0,0.0,0.0,0.0,0.0,0.0,0.0,0.0,0.0,-1.8936,-1.8745,-1.863,-1.85,-1.8214,-1.7989,-1.7882,-1.7828,-1.7447,-1.6795,-1.6139,-1.5534,-1.5062,-1.4455,-1.4176,-1.414,-1.414,-1.3941,-1.3621,-1.3621,-1.3218,-1.2579,-1.2579,-1.2335,-1.2008,-1.1859,-1.156,-1.1167,0.0,0.0,0.0,0.0,0.0,0.0,0.0,0.0,0.0,0.0,0.0,0.0,0.0,-1.0434,-1.0238,-1.0047,0.0,0.0,0.0,0.0,0.0,-1.345,-1.4522,0.0,-1.6064,-1.7551,-1.8394,-1.8435,-1.8882,-1.973,-2.0795,-2.0217,-2.0614,-2.1847,-2.123,-2.083,-2.0462,-2.0107,-1.9977,-1.9857,-1.9626,-1.9441,-1.9321,-1.8392,-1.8173,-1.835,-1.8235,-1.8391,-1.8714,-1.8964,-1.9047,-1.9035,-1.9035,-1.9011,-1.8987,0.0,0.0,0.0,0.0,-1.6281,0.0,-1.5836,-1.6076,0.0,0.0,0.0,0.0,0.0,0.0,0.0,0.0,0.0,0.0,0.0,0.0,0.0,0.0,0.0,0.0,0.0,0.0,0.0,0.0,0.0,0.0,0.0,0.0,0.0,-1.8539,-1.886,-1.8898,-1.85,-1.8461,-1.8293,-1.7882,-1.7652,-1.7269,-1.6795,-1.6139,-1.5534,-1.5062,-1.4455,-1.414,-1.402,-1.402,-1.3621,-1.3064,-1.3064,-1.2628,-1.2049,-1.2049,-1.1999,-1.1959,-1.1519,-1.1217,-1.0905,0.0,0.0,0.0,0.0,0.0,0.0,0.0,0.0,0.0,0.0,0.0,0.0,0.0,-1.0174,-1.011,-0.9983,-0.9862,0.0,0.0,0.0,0.0,-1.3755,-1.4872,-1.5897,-1.6865,-1.7887,-1.8526,0.0,0.0,-1.9281,-1.9716,-1.975,-1.9865,-2.0049,-2.0147,-2.0221,-2.0172,-1.9857,-1.9736,-1.9694,-1.9477,-1.9419,-1.9321,-1.837,-1.8057,0.0,0.0,0.0,0.0,-1.8236,-1.8494,-1.8774,-1.8934,-1.8987,-1.8987,-1.8987,-1.8482,-1.7808,0.0,0.0,0.0,-1.5876,-1.5869,-1.6001,0.0,0.0,0.0,0.0,0.0,0.0,0.0,0.0,0.0,0.0,0.0,0.0,0.0,0.0,0.0,0.0,0.0,0.0,0.0,0.0,0.0,0.0,0.0,0.0,-1.8095,-1.8254,-1.8254,-1.8095,-1.8095,-1.8029,-1.7882,-1.7365,-1.6824,-1.6343,-1.5656,-1.5096,-1.4651,-1.4233,-1.4057,-1.3962,-1.3467,-1.3112,-1.2861,-1.2482,-1.2049,-1.1569,-1.1569,-1.1318,-1.1015,-1.0871,-1.0718,-1.0608,0.0,0.0,0.0,0.0,0.0,0.0,0.0,0.0,0.0,0.0,0.0,0.0,0.0,0.0,-1.0047,-1.0174,-1.0328,-1.0766,-1.1594,-1.2021,-1.2722,-1.3816,-1.495,-1.5991,-1.6977,0.0,0.0,0.0,0.0,0.0,0.0,-1.9682,-1.9592,-1.938,-1.9692,-1.9771,0.0,0.0,0.0,-1.9562,0.0,-1.9269,-1.9091,-1.8235,0.0,0.0,0.0,0.0,0.0,0.0,0.0,-1.8038,-1.8375,-1.8667,-1.8881,-1.8987,-1.8614,-1.8121,-1.7772,0.0,0.0,0.0,0.0,-1.5792,0.0,0.0,0.0,0.0,0.0,0.0,0.0,0.0,0.0,0.0,0.0,0.0,0.0,0.0,0.0,0.0,0.0,0.0,0.0,0.0,0.0,0.0,0.0,0.0,-1.7747,-1.7747,-1.7788,-1.7882,-1.7882,-1.7882,-1.7882,-1.7186,-1.657,-1.6114,-1.54,-1.4834,-1.4384,-1.4104,-1.3915,-1.3668,-1.2871,-1.253,-1.2482,-1.2008,-1.1469,-1.1023,-1.1023,-1.082,-1.0522,-1.0522,-1.055,-1.0541,0.0,0.0,0.0,0.0,0.0,0.0,0.0,0.0,0.0,-1.0394,0.0,0.0,0.0,0.0,0.0,-1.0461,-1.118,-1.1811,-1.2253,-1.3088,-1.3616,-1.3616,0.0,0.0,0.0,0.0,0.0,0.0,0.0,0.0,0.0,0.0,-1.9806,-1.9806,-1.9806,-1.9557,-1.9121,0.0,-1.9605,-1.9573,0.0,-1.896,-1.8594,0.0,0.0,0.0,-1.7032,-1.6955,0.0,-1.6743,0.0,0.0,0.0,-1.7941,-1.8667,-1.8881,-1.8626,-1.8166,0.0,0.0,0.0,0.0,0.0,0.0,0.0,0.0,0.0,0.0,0.0,0.0,0.0,0.0,0.0,0.0,0.0,0.0,0.0,0.0,0.0,0.0,0.0,0.0,0.0,0.0,0.0,0.0,0.0,-1.7393,-1.7393,-1.7393,-1.7529,-1.7882,-1.7882,-1.7882,-1.7882,-1.7144,-1.6527,-1.6071,-1.54,-1.4834,-1.4384,-1.4104,-1.3716,-1.317,-1.2344,-1.1999,-1.1959,-1.1469,-1.0972,-1.0522,-1.0522,-1.0522,-1.0522,-1.0522,-1.064,-1.0786,0.0,0.0,0.0,0.0,0.0,0.0,-1.1648,-1.0901,-1.04,0.0,0.0,0.0,-1.0062,-1.0343,-1.0533,-1.0672,-1.1229,-1.1744,-1.2066,-1.3185,-1.3995,-1.4277,-1.5388,-1.6082,0.0,0.0,0.0,0.0,0.0,0.0,0.0,0.0,0.0,0.0,-1.9261,-1.9079,-1.8793,-1.9336,0.0,-1.9759,-1.8731,-1.8268,0.0,0.0,0.0,0.0,0.0,-1.5763,-1.5864,0.0,-1.612,-1.6528,0.0,-1.7941,-1.8614,-1.8667,-1.8442,-1.8031,-1.7659,0.0,0.0,0.0,0.0,0.0,0.0,0.0,0.0,0.0,0.0,0.0,0.0,0.0,0.0,0.0,0.0,0.0,0.0,0.0,0.0,0.0,0.0,0.0,0.0,0.0,0.0,0.0,-1.7002,-1.7044,-1.7044,-1.7282,-1.7447,-1.7529,-1.7679,-1.7584,-1.7256,-1.6582,-1.5976,-1.5511,-1.4915,-1.4466,-1.4233,-1.4057,-1.3668,-1.3016,-1.2295,-1.181,-1.1469,-1.0922,-1.0616,-1.0522,-1.0522,-1.0522,-1.0522,-1.0522,-1.0693,-1.0909,0.0,0.0,0.0,0.0,0.0,0.0,-1.1662,-1.0982,-1.051,0.0,0.0,0.0,-1.0103,-1.0568,-1.0912,-1.1013,-1.1576,-1.2231,-1.2856,-1.3748,-1.4477,-1.4996,-1.5708,-1.6196,-1.6493,0.0,0.0,0.0,0.0,0.0,0.0,0.0,0.0,0.0,0.0,0.0,0.0,0.0,0.0,0.0,-1.7861,0.0,0.0,-1.6504,-1.586,0.0,0.0,0.0,-1.5118,-1.4991,-1.5332,0.0,0.0,0.0,0.0,0.0,-1.8224,-1.7993,-1.7855,-1.7357,-1.6779,0.0,0.0,0.0,0.0,-1.5457,0.0,0.0,0.0,0.0,0.0,0.0,0.0,0.0,0.0,0.0,0.0,0.0,0.0,0.0,0.0,0.0,0.0,0.0,0.0,0.0,-1.6565,-1.665,-1.665,-1.6989,-1.7199,-1.7199,-1.7199,-1.7073,-1.6795,-1.6064,-1.5579,-1.5311,-1.4697,-1.4326,-1.4176,-1.3847,-1.3314,-1.2618,-1.1999,-1.1418,-1.0922,-1.0624,-1.0522,-1.0522,-1.0522,-1.0522,-1.0522,-1.0522,-1.0693,-1.0987,0.0,0.0,0.0,-1.1706,-1.1335,-1.1186,-1.1335,-1.0961,-1.0803,0.0,0.0,-1.0393,-1.0453,-1.0906,-1.1242,-1.148,-1.2016,-1.2835,-1.3841,-1.4392,-1.4894,-1.552,-1.5674,-1.5996,-1.6733,-1.5926,0.0,0.0,0.0,0.0,0.0,0.0,0.0,0.0,0.0,0.0,0.0,0.0,0.0,-1.7441,-1.6769,-1.6551,0.0,0.0,-1.5752,-1.5173,-1.4747,-1.4601,-1.4529,-1.4189,-1.4597,0.0,0.0,0.0,0.0,0.0,-1.7799,-1.7788,-1.817,-1.7728,-1.7189,0.0,0.0,0.0,-1.4741,-1.5108,0.0,0.0,0.0,0.0,0.0,0.0,0.0,0.0,0.0,0.0,0.0,0.0,0.0,0.0,0.0,0.0,0.0,0.0,-1.6107,-1.5836,-1.6076,-1.6238,-1.6238,-1.6607,-1.6791,-1.6791,-1.6565,-1.6423,-1.638,-1.5623,-1.5266,-1.5175,-1.464,-1.428,-1.4082,-1.3457,-1.2812,-1.207,-1.151,-1.1023,-1.0522,-1.0522,-1.0522,-1.0522,-1.0522,-1.0522,-1.047,-1.0419,-1.0693,-1.0988,0.0,0.0,-1.1855,-1.1335,-1.1186,-1.1111,-1.1186,-1.0888,-1.0737,-1.0791,0.0,-1.081,-1.125,-1.1576,-1.1655,-1.1548,-1.1955,-1.2182,-1.1964,-1.3411,-1.435,-1.4506,-1.5289,-1.5886,-1.6331,-1.5654,0.0,0.0,0.0,0.0,0.0,0.0,0.0,0.0,0.0,0.0,0.0,0.0,0.0,-1.5408,-1.5606,0.0,-1.6035,-1.5221,-1.4498,-1.3991,-1.4138,-1.403,-1.3812,-1.4258,-1.4784,-1.5225,0.0,0.0,0.0,-1.6595,0.0,0.0,0.0,0.0,0.0,0.0,0.0,0.0,-1.5114,-1.5658,-1.6066,0.0,0.0,0.0,0.0,0.0,0.0,0.0,0.0,0.0,0.0,0.0,0.0,0.0,0.0,0.0,0.0,0.0,-1.5869,-1.5792,-1.5881,-1.5913,-1.5913,-1.6088,-1.6175,-1.6175,-1.612,-1.5901,-1.5534,-1.5277,-1.4971,-1.4547,-1.4466,-1.4035,-1.3409,-1.3256,-1.2579,-1.146,-1.1368,-1.1023,-1.0522,-1.0522,-1.0522,-1.0522,-1.0522,-1.0522,-1.0462,-1.0087,-1.0415,-1.0895,-1.1507,-1.1229,-1.1153,-1.1241,-1.1088,-1.0965,-1.1061,-1.1003,-1.0966,-1.1105,-1.1123,-1.1103,-1.1006,-1.1247,-1.1268,-1.0913,-1.1277,-1.1464,-1.1522,-1.2459,-1.3245,-1.4031,-1.4506,-1.5055,-1.5631,-1.5388,-1.5511,0.0,0.0,0.0,0.0,0.0,0.0,0.0,0.0,0.0,0.0,0.0,-1.4247,-1.4013,-1.4363,0.0,-1.5234,-1.4576,-1.4045,-1.3627,-1.3598,-1.3559,-1.3571,-1.407,-1.4488,0.0,0.0,-1.5294,-1.5468,0.0,-1.5911,-1.5796,0.0,0.0,0.0,-1.5628,0.0,0.0,0.0,-1.4963,-1.5171,0.0,0.0,0.0,0.0,0.0,0.0,0.0,0.0,0.0,0.0,0.0,0.0,0.0,0.0,0.0,0.0,0.0,-1.5379,-1.5266,-1.504,-1.5051,-1.5424,-1.5311,-1.5344,-1.5546,-1.5412,-1.5232,-1.5006,-1.4823,-1.4651,-1.4373,-1.4035,-1.3658,-1.317,-1.2579,-1.195,-1.1276,-1.1023,-1.0777,-1.0522,-1.0522,-1.0522,-1.0522,-1.0522,-1.0581,-1.068,-1.0181,-1.0393,-1.0799,-1.0622,-1.0429,-1.0351,-1.1064,-1.091,-1.0682,-1.0848,-1.0887,-1.097,0.0,-1.1218,-1.0983,-1.0466,-1.0588,-1.0634,-1.0279,-1.0417,-1.069,-1.1203,-1.1403,-1.2055,-1.3229,-1.3682,-1.4223,-1.493,-1.5327,-1.5459,0.0,0.0,0.0,0.0,0.0,0.0,0.0,0.0,0.0,0.0,0.0,0.0,-1.3306,0.0,-1.3989,-1.4411,-1.4117,-1.3791,-1.3449,-1.3172,-1.3227,-1.345,-1.389,-1.4198,-1.4506,-1.4951,-1.4784,0.0,0.0,0.0,0.0,0.0,0.0,0.0,0.0,0.0,-1.5101,0.0,0.0,0.0,0.0,0.0,0.0,0.0,0.0,0.0,0.0,0.0,0.0,0.0,0.0,0.0,0.0,0.0,0.0,0.0,0.0,-1.4823,-1.4571,-1.4258,-1.4305,-1.4869,-1.4525,-1.4525,-1.4915,-1.4605,-1.4466,-1.4523,-1.428,-1.4129,-1.4082,-1.3552,-1.3122,-1.2822,-1.1841,-1.1309,-1.1124,-1.0675,-1.0462,-1.036,-1.036,-1.0308,-1.0257,-1.0419,-1.0585,-1.0723,-1.0186,-1.0232,-1.0404,-0.9954,-0.996,-0.996,-1.0035,-1.0035,-1.003,-0.9997,-1.0067,0.0,0.0,0.0,0.0,0.0,0.0,0.0,-0.9976,0.0,0.0,-0.9561,0.0,-1.0913,-1.1068,-1.2857,-1.4087,-1.4444,-1.5363,-1.5701,-1.5397,0.0,0.0,0.0,0.0,0.0,0.0,-1.4776,0.0,0.0,0.0,-1.4069,0.0,-1.4037,-1.391,0.0,-1.3656,-1.3433,-1.3164,-1.3054,-1.3022,-1.3164,0.0,-1.401,-1.413,0.0,-1.4565,-1.4515,-1.4625,0.0,0.0,0.0,0.0,0.0,0.0,-1.5351,0.0,0.0,0.0,0.0,0.0,0.0,0.0,0.0,0.0,0.0,0.0,0.0,0.0,0.0,0.0,0.0,0.0,0.0,0.0,0.0,0.0,0.0,-1.4071,-1.4118,-1.4165,-1.4118,-1.3836,-1.3894,-1.4269,-1.3695,-1.3552,-1.3905,-1.3515,-1.3208,-1.2957,-1.2909,-1.2423,-1.1601,-1.1451,-1.1108,-1.0573,-1.0522,-1.0249,-0.9873,-0.9873,-0.9666,-0.942,-1.0205,-1.0272,-0.9874,-0.947,-0.9341,-0.9298,-0.9638,-0.9586,-0.9509,-1.0044,0.0,-0.9771,-0.9862,-0.9922,0.0,0.0,0.0,0.0,0.0,0.0,0.0,0.0,0.0,-0.9106,0.0,0.0,-0.9802,-1.0406,-1.1288,-1.2097,-1.2785,-1.3999,-1.4575,-1.4435,-1.5103,0.0,0.0,0.0,0.0,0.0,-1.4274,0.0,-1.4055,0.0,-1.3894,0.0,0.0,0.0,0.0,-1.3815,-1.3561,-1.3044,-1.2873,-1.2867,-1.305,0.0,-1.3709,0.0,0.0,0.0,0.0,0.0,0.0,0.0,0.0,0.0,0.0,0.0,0.0,0.0,-1.426,0.0,-1.4759,0.0,0.0,0.0,0.0,0.0,0.0,0.0,0.0,0.0,0.0,0.0,0.0,0.0,0.0,0.0,0.0,0.0,0.0,0.0,0.0,-1.3228,-1.3494,-1.3238,-1.3359,-1.3955,-1.3709,-1.3741,-1.4155,-1.3741,-1.3412,-1.3143,-1.2506,-1.194,-1.141,-1.1057,-1.0718,-1.0522,-1.0522,-1.0249,-0.9814,-0.9814,-0.9562,-0.9211,-0.9577,-0.9738,-0.9707,-0.9404,-0.9354,-0.9256,-0.9369,-0.9169,-0.9086,-0.9782,0.0,0.0,0.0,0.0,0.0,0.0,0.0,0.0,-0.917,-0.917,0.0,0.0,-0.8703,-0.8703,0.0,0.0,-0.9087,0.0,0.0,0.0,0.0,-1.2888,-1.3571,-1.3482,0.0,0.0,0.0,0.0,0.0,0.0,0.0,-1.3991,-1.3987,0.0,0.0,-1.3416,-1.3661,-1.3631,-1.3533,-1.3739,-1.3465,-1.2909,-1.2717,-1.2744,-1.2928,-1.2989,-1.3346,0.0,-1.3571,0.0,0.0,0.0,0.0,0.0,-1.4327,0.0,0.0,0.0,0.0,0.0,0.0,0.0,0.0,0.0,0.0,0.0,0.0,0.0,0.0,0.0,0.0,0.0,0.0,0.0,0.0,0.0,0.0,0.0,0.0,0.0,0.0,0.0,0.0,0.0,-1.289,-1.2666,-1.2868,-1.3639,-1.3547,-1.3691,-1.4121,-1.3714,-1.3351,-1.2976,-1.2216,-1.1671,-1.1403,-1.0853,-1.0661,-1.074,-1.0438,-1.0089,-0.9738,-0.9539,-0.9197,-0.8844,-0.8844,-0.8978,-0.9207,-0.9276,-0.9311,-0.9195,-0.8708,-0.8713,-0.8713,0.0,0.0,0.0,0.0,0.0,0.0,0.0,0.0,0.0,0.0,0.0,0.0,0.0,0.0,-0.8703,-0.8703,0.0,-0.9015,0.0,0.0,-1.1023,0.0,0.0,-1.3131,-1.285,0.0,0.0,0.0,0.0,0.0,0.0,0.0,-1.4266,-1.3818,-1.3825,-1.3462,-1.2938,-1.2952,-1.3057,-1.32,0.0,-1.2901,-1.2575,-1.2629,0.0,0.0,-1.2928,-1.2981,0.0,0.0,0.0,0.0,0.0,0.0,0.0,0.0,0.0,0.0,-1.4446,0.0,0.0,0.0,0.0,-1.5007,0.0,0.0,0.0,0.0,0.0,-1.3888,-1.3869,-1.3646,0.0,0.0,0.0,0.0,0.0,0.0,0.0,0.0,0.0,0.0,0.0,0.0,0.0,-1.2175,-1.2126,-1.251,-1.3282,-1.2931,-1.2961,-1.3431,-1.3041,-1.2546,-1.1952,-1.1936,-1.1752,-1.1503,-1.1122,-1.1153,-1.1416,-1.031,-0.9797,-0.9638,-0.8958,-0.8368,-0.7955,-0.7955,-0.7961,-0.8051,-0.8741,-0.8909,-0.8733,-0.8703,-0.8703,-0.8703,0.0,0.0,0.0,0.0,-0.8703,0.0,0.0,0.0,0.0,0.0,-0.8703,-0.8703,0.0,0.0,-0.876,-0.8907,-0.8982,0.0,0.0,0.0,-1.0124,0.0,0.0,0.0,0.0,0.0,0.0,0.0,0.0,0.0,0.0,0.0,-1.3032,0.0,0.0,0.0,0.0,0.0,-1.3226,-1.293,0.0,0.0,-1.2877,-1.2709,-1.2621,0.0,-1.2683,-1.2867,-1.2981,-1.292,-1.3155,-1.345,-1.3216,-1.3338,0.0,0.0,0.0,-1.3094,-1.395,0.0,0.0,0.0,0.0,0.0,0.0,0.0,0.0,0.0,0.0,-1.4023,-1.3901,-1.3792,-1.3714,0.0,0.0,0.0,0.0,0.0,0.0,0.0,0.0,0.0,0.0,0.0,0.0,0.0,-1.1499,-1.1956,-1.2672,-1.2773,-1.3042,-1.3477,-1.3067,-1.2651,-1.2315,-1.2028,-1.1616,-1.1035,-1.0928,-1.0767,-1.0508,-1.0115,-0.9695,-0.9212,-0.8948,-0.8479,-0.7901,-0.7901,-0.8009,-0.8171,-0.8416,-0.8508,-0.8414,-0.8703,0.0,0.0,0.0,0.0,0.0,0.0,0.0,0.0,0.0,-0.8703,0.0,-0.8703,0.0,-0.8732,0.0,-0.8817,-0.8907,-0.9115,-0.9204,0.0,-0.955,-0.9715,0.0,0.0,0.0,0.0,0.0,0.0,-1.2661,0.0,0.0,0.0,0.0,0.0,-1.2452,-1.2526,0.0,-1.2077,0.0,0.0,-1.2792,0.0,0.0,-1.2841,0.0,0.0,-1.2058,-1.2058,-1.2243,-1.2428,-1.2552,-1.256,-1.2858,-1.3155,-1.292,-1.2981,-1.3216,-1.3277,-1.2911,0.0,0.0,-1.3199,0.0,-1.389,0.0,0.0,0.0,0.0,0.0,0.0,0.0,-1.4116,-1.3605,-1.3793,-1.3831,0.0,-1.3137,0.0,0.0,0.0,0.0,0.0,0.0,0.0,0.0,0.0,0.0,0.0,0.0,-1.1548,-1.1911,-1.252,-1.2957,-1.3078,-1.2982,-1.2687,-1.227,-1.2172,-1.1702,-1.0865,-1.0923,-1.0755,-1.0317,-0.9928,-0.9552,-0.9141,-0.8875,-0.8459,-0.8039,-0.8039,-0.8201,-0.8429,-0.8429,-0.8427,-0.8337,0.0,0.0,0.0,0.0,-0.8703,0.0,0.0,0.0,-0.8627,0.0,-0.8627,-0.8632,-0.8641,-0.8718,-0.8803,-0.902,-0.9039,0.0,-0.9327,-0.953,0.0,0.0,-0.9847,-1.0207,-1.0549,0.0,0.0,0.0,0.0,0.0,0.0,0.0,0.0,0.0,-1.2826,0.0,-1.1929,-1.1929,-1.1632,-1.1186,-1.1781,-1.1833,-1.1546,-1.1833,0.0,-1.17,-1.1178,-1.0982,-1.1108,-1.1615,-1.174,-1.1864,-1.2375,-1.2498,-1.2498,-1.2498,-1.2498,-1.256,-1.2858,-1.2858,-1.2858,-1.2773,0.0,0.0,0.0,0.0,-1.3706,0.0,0.0,0.0,0.0,0.0,0.0,-1.3009,-1.3597,-1.3858,-1.2782,0.0,0.0,0.0,0.0,0.0,0.0,0.0,0.0,0.0,0.0,0.0,0.0,0.0,0.0,-1.0956,-1.2192,-1.2627,-1.2236,-1.2674,-1.2552,-1.174,-1.2305,-1.1996,-1.0975,-1.117,-1.1138,-1.0892,-0.984,-0.9415,-0.9427,-0.8657,-0.8321,-0.8309,-0.8309,-0.8471,-0.8634,-0.8699,-0.8638,-0.8409,-0.8703,-0.8703,-0.8703,0.0,-0.8703,-0.8703,0.0,0.0,0.0,0.0,-0.8012,-0.8069,-0.8217,-0.8627,-0.9025,-0.9228,-0.9247,0.0,0.0,0.0,0.0,-0.9866,-0.9923,-1.0207,-1.0549,-1.0838,0.0,-1.1192,0.0,0.0,-1.1335,0.0,0.0,0.0,0.0,0.0,-1.1335,-1.1335,-1.126,-1.1186,-1.1781,-1.1833,0.0,0.0,-1.139,-1.0978,-1.1002,-1.0982,-1.1045,-1.1178,-1.124,-1.1233,-1.1365,-1.1428,-1.1428,-1.1428,-1.1428,-1.1428,-1.1483,-1.1233,-1.1108,-1.171,-1.1578,-1.1516,0.0,0.0,0.0,0.0,0.0,0.0,0.0,0.0,0.0,-1.2826,-1.283,-1.2613,0.0,0.0,0.0,-1.1056,0.0,0.0,0.0,0.0,0.0,0.0,0.0,0.0,0.0,0.0,0.0,-1.0621,-1.1185,-1.1465,-1.1358,-1.1421,-1.1421,-1.124,-1.1365,-1.1052,-1.0485,-1.0537,-1.0292,-0.9856,-0.9586,-0.9346,-0.9198,-0.8957,-0.8753,-0.8579,-0.8579,-0.8374,-0.8099,-0.878,-0.8678,-0.819,-0.8703,0.0,0.0,-0.8959,0.0,0.0,-0.8385,0.0,0.0,-0.8023,-0.826,0.0,-0.8577,-0.8912,-0.9237,-0.9445,-0.9464,0.0,-0.9767,0.0,0.0,-1.0033,-1.0038,-1.0294,-1.0895,-1.0883,0.0,-1.1519,0.0,0.0,-1.1111,0.0,0.0,0.0,0.0,-1.1111,0.0,-1.1111,-1.1111,-1.1111,-1.1484,0.0,0.0,-1.1133,-1.0849,-1.0527,-1.038,-1.0358,-1.0358,-1.0611,-1.0674,-1.0737,-1.0926,-1.0982,-1.0982,-1.0982,-1.0982,-1.0982,-1.0982,-1.08,-1.0674,-1.0912,-1.0787,-1.0724,-1.1329,-1.1655,-1.1728,0.0,0.0,0.0,0.0,0.0,0.0,-1.2634,-1.2118,0.0,0.0,0.0,0.0,0.0,0.0,0.0,0.0,0.0,0.0,0.0,0.0,0.0,0.0,0.0,0.0,-0.9905,-1.0636,-1.0926,-1.0674,-1.0926,-1.0926,-1.0674,-1.0926,-1.0611,-0.9989,-1.018,-0.9989,-0.9484,-0.9484,-0.9328,-0.9126,-0.9126,-0.8853,-0.8434,-0.8171,-0.785,-0.758,-0.7964,-0.7711,-0.7095,0.0,0.0,0.0,0.0,0.0,0.0,0.0,-0.8495,0.0,-0.8119,0.0,-0.9087,-0.9114,-0.9201,-0.9455,-0.9667,0.0,-0.9762,-1.0024,-1.0038,-1.0038,-1.0038,-1.0038,-1.0371,-1.1193,-1.0657,-1.0765,0.0,0.0,0.0,0.0,0.0,0.0,0.0,0.0,0.0,0.0,-1.1099,-1.1111,0.0,-1.1111,-1.1111,-1.1063,-1.0604,-1.0387,-1.0272,-0.9748,-0.9544,-0.9548,-1.0053,-1.018,-1.0238,-1.0674,-1.08,-1.08,-1.08,-1.08,-1.08,-1.08,-1.08,-1.0737,-1.0301,-1.018,-1.0301,-1.0528,-1.0654,-1.0661,-1.0701,-1.124,0.0,0.0,0.0,0.0,0.0,0.0,0.0,0.0,0.0,0.0,0.0,0.0,0.0,0.0,0.0,0.0,0.0,0.0,0.0,0.0,0.0,0.0,0.0,-1.0227,0.0,-1.018,0.0,-1.0611,-1.018,-1.0611,-1.0358,-0.9548,-0.9989,-0.9926,-0.9484,-0.9484,-0.9346,-0.9118,-0.9057,-0.8618,-0.7892,-0.7307,-0.6981,-0.6985,-0.6728,-0.6203,-0.5675,0.0,0.0,0.0,0.0,0.0,-0.8484,-0.7705,-0.7166,-0.6816,-0.6776,-0.7351,-0.7816,-0.7966,-0.891,-0.9672,-0.988,-0.9899,0.0,0.0,0.0,0.0,-1.0038,-1.0038,-1.0297,-1.0958,-1.0831,-1.1013,0.0,0.0,0.0,0.0,0.0,0.0,0.0,0.0,0.0,-1.0803,-1.1021,0.0,-1.1111,-1.1111,-1.1111,-1.1099,-1.1009,-1.0707,-1.0315,-1.0155,-0.985,-0.9548,-0.9612,-0.9612,-0.967,-0.9734,-0.9734,-0.9734,-0.9734,-0.9734,-0.9734,-0.9734,-0.9734,-0.9734,-0.9676,-0.9612,-0.967,-0.9728,-0.9728,-0.979,-1.0017,-1.0012,-0.9988,-1.0095,0.0,0.0,0.0,0.0,0.0,0.0,0.0,0.0,0.0,0.0,0.0,0.0,0.0,0.0,0.0,0.0,0.0,0.0,0.0,0.0,0.0,0.0,0.0,0.0,0.0,0.0,-0.9612,-0.9734,-0.967,-0.9484,-0.9612,-0.9612,-0.9484,-0.9484,-0.9454,-0.9406,-0.8815,-0.8099,-0.7261,-0.6449,-0.6005,-0.5811,-0.5219,-0.4824,-0.4694,0.0,0.0,0.0,0.0,0.0,0.0,0.0,-0.6605,0.0,-0.7114,-0.7737,-0.8321,-0.8841,-0.9456,-0.9842,-1.0028,-1.0038,-1.0038,-1.0038,-1.0038,-1.0038,-1.0038,-1.0038,0.0,-1.0899,-1.0776,-1.095,-1.1534,0.0,0.0,0.0,0.0,0.0,0.0,0.0,-1.0803,0.0,0.0,0.0,-1.1111,-1.1111,-1.1111,-1.1093,-1.096,-1.0671,-1.0315,-1.0107,-0.9808,-0.9484,-0.9484,-0.9484,-0.9508,-0.964,-0.9682,-0.9682,-0.9682,-0.9682,-0.9658,-0.952,-0.9484,-0.9484,-0.9484,-0.9484,-0.9484,-0.9484,-0.9586,-0.9718,-0.9844,-0.988,-0.9989,-1.0319,-1.0373,0.0,0.0,0.0,0.0,0.0,0.0,0.0,0.0,0.0,0.0,0.0,0.0,0.0,0.0,0.0,0.0,0.0,0.0,0.0,0.0,0.0,0.0,0.0,0.0,0.0,-0.9484,-0.9484,-0.9484,-0.9484,-0.9484,-0.9484,-0.9484,-0.9151,-0.8952,-0.8759,-0.7637,-0.692,-0.6461,-0.5543,-0.5153,-0.5024,-0.4628,-0.4364,-0.4367,0.0,-0.9004,0.0,0.0,-0.8272,0.0,0.0,-0.6498,-0.6503,-0.746,-0.8208,-0.8978,-0.9685,-0.9864,-1.0038,-1.0038,-1.0038,-1.0038,-1.0038,-1.0038,-1.0038,-1.0038,-0.9908,-1.0213,-1.0824,-1.0589,-1.075,0.0,0.0,0.0,0.0,0.0,0.0,0.0,0.0,0.0,0.0,0.0,-1.1037,-1.1111,-1.1111,-1.1111,-1.1087,-1.0882,-1.0604,-1.0309,-1.0158,-0.9832,-0.9574,-0.9628,-0.961,-0.961,-0.9874,-0.9958,-0.9958,-0.9958,-0.9916,-0.9826,-0.9622,-0.9526,-0.9484,-0.9484,-0.9484,-0.9496,-0.9556,-0.9682,-0.9838,-1.0,-1.0266,-1.0463,-1.0547,-1.0534,0.0,0.0,0.0,0.0,0.0,0.0,0.0,0.0,0.0,0.0,0.0,0.0,0.0,0.0,0.0,0.0,0.0,0.0,0.0,0.0,0.0,0.0,-0.9368,0.0,-0.9646,0.0,-0.9646,-0.9622,-0.9568,-0.9568,-0.9467,-0.9285,-0.8753,-0.8231,-0.7647,-0.637,-0.5771,-0.5547,-0.4852,-0.4584,-0.4495,-0.4367,-0.43,-0.43,0.0,0.0,0.0,0.0,0.0,0.0,0.0,-0.6831,-0.6898,-0.7067,-0.7571,-0.8185,-0.889,-0.9598,-1.0038,-1.0038,-1.0038,-1.0038,-1.0038,-1.0038,-1.0038,-1.0038,-0.9771,-0.9908,-1.0502,-1.0338,-1.0567,0.0,0.0,0.0,0.0,0.0,0.0,0.0,0.0,0.0,0.0,-1.0644,-1.0738,-1.1111,-1.1111,-1.1111,-1.1105,-1.1087,-1.0767,-1.0357,-1.0568,-1.0327,-0.9874,-1.0107,-1.003,-0.988,-1.0212,-1.029,-1.029,-1.029,-1.0054,-0.9868,-0.9844,-0.9664,-0.9484,-0.9484,-0.9484,-0.9544,-0.9784,-0.967,-0.9718,-1.0496,-1.0671,-1.0682,-1.0584,-1.0465,-1.039,0.0,0.0,0.0,0.0,0.0,0.0,0.0,0.0,0.0,0.0,0.0,0.0,0.0,0.0,0.0,0.0,0.0,0.0,0.0,0.0,-0.8941,-0.8941,-0.9787,0.0,-1.026,-1.026,-1.0134,-0.9838,-0.9838,-0.9365,-0.8619,-0.8554,-0.7642,-0.6284,-0.5962,-0.54,-0.4703,-0.4549,-0.4458,-0.43,-0.43,-0.43,-0.43,0.0,0.0,0.0,0.0,0.0,0.0,0.0,-0.696,-0.7235,-0.8038,-0.8316,-0.8715,-0.9506,-0.9859,-1.0038,-1.0038,-1.0038,-0.9899,-0.9776,-0.9767,-0.971,-0.9578,-0.9497,-0.9601,-0.9941,-1.0158,-1.0374,0.0,0.0,0.0,0.0,0.0,0.0,0.0,0.0,-1.0312,-1.0592,-1.0548,-1.0738,-1.1111,-1.1111,-1.1111,-1.1111,-1.1111,-1.0882,-1.0574,-1.0683,-1.0484,-1.0212,-1.0478,-1.0393,-1.0218,-1.0484,-1.0562,-1.0562,-1.0562,-1.049,-1.0339,-0.9958,-0.9796,-0.9676,-0.952,-0.9484,-0.955,-0.9814,-0.991,-1.0152,-1.0622,-1.0846,-1.0924,-1.0888,-1.0797,-1.0599,0.0,0.0,0.0,0.0,0.0,0.0,0.0,0.0,0.0,0.0,0.0,0.0,0.0,0.0,0.0,0.0,0.0,0.0,-0.7559,0.0,-0.8429,-0.8981,-0.9361,-0.976,-1.003,-1.0254,-0.9839,-0.8974,-0.9114,-0.8389,-0.702,-0.6841,-0.6254,-0.5345,-0.5101,-0.4852,-0.454,-0.4519,-0.4401,-0.43,-0.43,-0.43,-0.43,-0.6539,0.0,-0.7437,0.0,-0.6606,-0.6618,-0.6581,-0.6844,-0.7251,-0.8201,-0.8627,-0.9157,-0.9951,-1.0038,-1.0038,-1.0038,-1.0038,-0.9889,-0.9743,-0.9734,-0.9639,-0.9426,-0.936,0.0,-0.9571,-0.9813,-1.0155,-1.0513,-1.0812,0.0,0.0,0.0,0.0,0.0,-0.9846,-0.9992,-1.0513,-1.0368,-1.0588,-1.0962,-1.1037,-1.1037,-1.0962,-1.1037,-1.0948,-1.0731,-1.081,-1.0671,-1.0484,-1.0749,-1.0713,-1.0592,-1.0773,-1.0834,-1.0834,-1.0834,-1.0725,-1.0544,-1.0248,-0.9934,-0.973,-0.9628,-0.9598,-0.9664,-0.9928,-0.9988,-1.0049,-1.03,-1.0777,-1.1037,-1.0812,-1.0738,-1.0456,0.0,0.0,0.0,0.0,0.0,0.0,0.0,-0.6513,-0.6601,-0.6346,0.0,0.0,0.0,0.0,0.0,0.0,0.0,0.0,0.0,0.0,0.0,0.0,0.0,-0.9111,-0.9441,-0.9684,-0.9276,-0.8344,-0.8078,-0.7293,-0.6117,-0.5597,-0.5193,-0.487,-0.4671,-0.4534,-0.4474,-0.451,-0.4431,-0.43,-0.43,-0.4325,-0.429,-0.5819,-0.6454,-0.6772,-0.5844,-0.5828,-0.5866,-0.5752,-0.6346,-0.6779,-0.6868,-0.8009,-0.9157,-0.9951,-1.0038,-1.0038,-1.0038,-1.0038,-1.0038,-1.0038,-1.0038,-0.9856,0.0,0.0,-0.9389,-0.9571,-0.9438,-0.97,-1.0513,0.0,0.0,-1.1111,0.0,0.0,-0.9916,-0.9468,-0.9771,-1.0443,-1.0067,-1.0143,-1.0519,-1.0962,-1.0887,-1.0513,-1.0962,-1.0948,-1.0755,-1.1015,-1.0936,-1.0755,-1.1015,-1.1105,-1.1099,-1.1105,-1.1105,-1.1105,-1.1105,-1.0737,-1.0387,-1.0641,-1.0146,-0.955,-0.9802,-0.9868,-0.9934,-1.0266,-0.9689,-0.9189,-0.9424,-1.033,-1.0887,-1.0067,-0.9922,-0.9614,-0.8851,0.0,0.0,0.0,0.0,0.0,0.0,-0.6651,-0.6863,-0.5557,0.0,0.0,0.0,0.0,0.0,0.0,0.0,0.0,-0.5658,-0.666,0.0,-0.6896,-0.8134,-0.8609,-0.8447,-0.8447,-0.8341,-0.8285,-0.7077,-0.6433,-0.6151,-0.5297,-0.487,-0.4884,-0.4856,-0.4686,-0.4482,-0.4676,-0.4507,-0.43,-0.43,-0.4314,-0.4281,-0.5749,-0.6003,-0.6139,-0.5752,-0.5763,-0.595,-0.6349,-0.6691,-0.6956,-0.7394,-0.7834,-0.8452,-0.9157,-0.9685,-1.0038,0.0,-1.0038,-0.9894,0.0,-0.9606,-0.9436,-0.9233,-0.9015,-0.8946,-0.8957,-0.9199,-0.9544,-1.0067,0.0,0.0,0.0,-0.9997,-0.9625,-0.9473,-0.9089,-0.9165,-0.9695,-0.9549,-0.9846,-1.0519,-1.0663,-1.0812,-1.0887,-1.1037,-1.1057,-1.0997,-1.1081,-1.1057,-1.1003,-1.1081,-1.1111,-1.1111,-1.1111,-1.1111,-1.1111,-1.1111,-1.0997,-1.084,-1.0749,-1.0538,-1.0321,-1.023,-0.9782,-0.943,-0.9669,-0.9712,-0.949,-0.9035,-0.9632,-1.0067,-0.9231,-0.9079,-0.8856,-0.8016,0.0,0.0,0.0,0.0,0.0,0.0,0.0,-0.5988,0.0,-0.5787,0.0,0.0,0.0,0.0,0.0,0.0,0.0,0.0,-0.6141,0.0,-0.7315,-0.752,-0.7862,-0.8105,-0.8165,-0.7748,-0.6966,-0.5818,-0.5288,-0.5211,-0.4907,-0.4822,-0.4974,-0.4852,-0.4743,-0.4682,-0.472,-0.4588,-0.4175,-0.3157,-0.28,-0.2933,-0.5746,-0.579,-0.5817,-0.5746,-0.5733,-0.5819,-0.6343,-0.6432,-0.6517,-0.6959,-0.7221,-0.757,-0.8097,-0.8982,0.0,-0.9951,-1.0038,0.0,-0.9658,-0.9521,-0.9318,-0.9034,-0.8897,-0.8784,-0.8703,0.0,0.0,-0.9695,-1.0067,-1.0218,-1.0067,-0.9544,-0.9246,-0.9089,-0.878,-0.8932,-0.9322,-0.9322,-0.962,-1.0067,-1.0218,-1.0293,-1.0443,-1.0588,-1.0738,-1.0887,-1.0887,-1.0962,-1.1111,-1.1111,-1.0887,-1.0663,-1.0663,-1.0438,-1.0282,-1.0588,-1.0593,-1.0427,-1.007,-0.9774,-0.9619,-0.9559,-0.9182,-0.8816,-0.8744,-0.913,-0.9236,-0.8399,-0.8851,-0.9236,-0.8399,-0.8246,-0.8016,-0.7176,0.0,-0.6872,0.0,0.0,0.0,0.0,0.0,0.0,0.0,-0.5671,0.0,0.0,0.0,0.0,0.0,0.0,0.0,-0.5656,-0.5783,0.0,-0.6633,-0.663,-0.6732,-0.7001,-0.7114,-0.6729,-0.5875,-0.5275,-0.4977,-0.4898,-0.4822,-0.4876,-0.5007,-0.489,-0.485,-0.4815,-0.4183,-0.4062,-0.4182,-0.3299,-0.2272,-0.1415,-0.5733,-0.5733,0.0,0.0,-0.5733,0.0,-0.5733,-0.5733,-0.5733,-0.5733,-0.6257,-0.6779,-0.6779,-0.8009,-0.9065,-0.9772,0.0,0.0,0.0,-0.9527,-0.9431,-0.9044,-0.9011,0.0,-0.8708,-0.8703,-0.8937,-0.9322,-0.9695,-0.9695,-0.9322,-0.9246,-0.9013,-0.8623,-0.8699,-0.8856,-0.917,-0.9246,-0.9246,-0.9322,-0.9695,-0.962,-0.9397,-0.9771,-1.0143,-1.0363,-1.0438,-1.0588,-1.0881,-1.0881,-1.0438,-0.9765,-0.9765,-0.9311,-0.8851,-0.9614,-0.9606,-0.9327,-0.8874,-0.8337,-0.8013,-0.8276,-0.8323,-0.8083,-0.752,-0.8016,-0.8399,-0.7561,-0.8093,-0.8399,-0.7557,-0.7407,-0.7176,-0.6416,-0.6338,-0.6338,-0.6338,0.0,0.0,0.0,0.0,0.0,0.0,-0.5817,-0.5759,0.0,0.0,0.0,0.0,0.0,-0.5463,-0.5535,-0.5575,-0.5559,-0.5321,-0.5479,-0.5479,-0.5243,-0.5482,-0.5326,-0.5018,-0.5168,-0.5168,-0.5018,-0.5018,-0.5018,-0.501,-0.4904,-0.4872,-0.4829,-0.3272,-0.3192,-0.4009,-0.4009,-0.2241,0.0218,0.0,0.0,-0.5733,-0.5733,-0.5733,-0.5733,-0.5733,-0.5733,-0.5733,-0.5733,-0.5819,-0.6169,-0.6779,-0.7129,-0.757,-0.8273,-0.9198,-0.963,-0.9412,-0.9256,-0.9124,-0.903,-0.8864,-0.8755,-0.8703,-0.8703,-0.8937,-0.9322,-0.9397,-0.9397,-0.9322,-0.9013,-0.8551,-0.8012,-0.8475,-0.8475,-0.8165,-0.8627,-0.9013,-0.9322,-0.9397,-0.9544,-0.9771,-0.9846,-0.9685,-0.9377,-0.9528,-0.9221,-0.8836,-0.8988,-0.8912,-0.8765,-0.8765,-0.8694,-0.8703,-0.8927,-0.8969,-0.8864,-0.8765,-0.8628,-0.8562,-0.8609,-0.817,-0.7503,-0.6788,-0.7176,-0.7561,-0.6721,-0.7253,-0.7561,-0.6718,-0.6567,-0.649,-0.6338,-0.6338,-0.6338,-0.6338,0.0,0.0,0.0,-0.6067,-0.5976,-0.5976,-0.5976,-0.5842,0.0,0.0,0.0,0.0,0.0,-0.5306,-0.5677,-0.5771,-0.5712,-0.5559,-0.5401,-0.5246,-0.5093,-0.5096,-0.5093,-0.5018,-0.5015,-0.5021,-0.5029,-0.5029,-0.5029,-0.4867,-0.3583,-0.3836,-0.4969,-0.4561,-0.3004,-0.1001,-0.1001,-0.0146,0.0969,-0.5733,-0.5733,-0.5733,-0.5733,-0.5733,-0.5733,-0.5733,-0.5733,-0.5733,-0.5733,-0.5733,-0.5819,-0.6257,-0.6868,-0.7365,-0.7642,-0.8589,-0.9047,-0.8841,-0.8974,-0.8978,-0.8878,-0.8765,-0.8703,-0.8703,-0.8703,-0.878,-0.9013,-0.9013,-0.9013,-0.9013,-0.8551,-0.8089,-0.7783,-0.7859,-0.7706,-0.7399,-0.7706,-0.8012,-0.8246,-0.8475,-0.8551,-0.8542,-0.8851,-0.8694,-0.8309,-0.8456,-0.8304,-0.808,-0.8232,-0.8003,-0.7698,-0.7698,-0.7548,-0.7246,-0.7246,-0.7629,-0.7936,-0.771,-0.748,-0.7322,-0.7399,-0.7092,-0.6714,-0.6338,-0.6644,-0.6795,-0.6416,-0.6644,-0.6795,-0.6416,-0.6338,-0.6338,-0.6338,-0.6338,-0.6338,-0.6338,-0.6186,0.0,-0.6251,-0.6186,-0.6056,-0.5977,-0.5977,-0.5842,-0.5482,0.0,0.0,-0.5325,-0.5298,-0.5339,-0.5426,-0.5484,-0.5401,-0.5329,-0.5249,-0.509,-0.5018,-0.5018,-0.5018,-0.4937,-0.4229,-0.3839,-0.3843,-0.3843,-0.4318,-0.4953,-0.4035,-0.3293,-0.2723,-0.2692,-0.1622,0.0073,0.0437,0.0889,0.1278,-0.5706,-0.5706,-0.5706,-0.5706,-0.5706,-0.5706,-0.5706,-0.5722,-0.5733,-0.5733,-0.5733,-0.5733,-0.5733,-0.6766,-0.7396,-0.7354,-0.7978,-0.8384,-0.8388,-0.8768,-0.8892,-0.8708,-0.8703,-0.8703,-0.8703,-0.8703,-0.8703,-0.8703,-0.8623,-0.8546,-0.8546,-0.7936,-0.7629,-0.7476,-0.7092,-0.6865,-0.6788,-0.6865,-0.6865,-0.6942,-0.7476,-0.7322,-0.6942,-0.7476,-0.7472,-0.7234,-0.731,-0.7468,-0.7621,-0.7698,-0.7242,-0.6633,-0.6633,-0.6173,-0.5637,-0.5637,-0.6247,-0.6784,-0.6335,-0.5873,-0.5637,-0.5864,-0.5864,-0.5941,-0.6257,-0.6338,-0.6338,-0.6338,-0.6338,-0.6338,-0.6338,-0.6338,-0.6338,-0.6338,-0.6338,-0.6338,-0.6338,0.0,-0.6257,-0.6257,-0.6183,-0.6103,-0.5864,-0.5864,-0.5736,-0.5397,-0.5496,0.0,0.0,-0.5422,-0.5354,-0.5086,-0.5038,-0.5015,-0.5018,-0.5018,-0.5021,-0.5021,-0.5021,-0.5021,-0.4943,-0.3524,-0.2584,-0.2113,-0.2113,-0.2901,-0.4245,-0.4234,-0.2589,-0.0,0.0149,0.0221,0.0295,0.0959,0.1271,0.1286,-0.5491,-0.5491,-0.5491,-0.5491,-0.5491,-0.5491,-0.5491,-0.5667,-0.5733,-0.5733,-0.5733,-0.5733,-0.5733,-0.5813,-0.6085,-0.6576,-0.7015,-0.7737,-0.8834,-0.8791,-0.8737,-0.8703,-0.8703,-0.8703,-0.8703,-0.8703,-0.8703,-0.8703,-0.8165,-0.7936,-0.7936,-0.7322,-0.6707,-0.6247,-0.671,-0.6556,-0.6093,-0.6633,-0.6865,-0.6942,-0.7019,-0.7015,-0.6942,-0.7019,-0.663,-0.6167,-0.6318,-0.6012,-0.5476,-0.5705,-0.5628,-0.555,-0.555,-0.5553,-0.5637,-0.5637,-0.5634,-0.5628,-0.5715,-0.5637,-0.5637,-0.5864,-0.5864,-0.5941,-0.6257,-0.6338,-0.6338,-0.6338,-0.6338,-0.6338,-0.6338,-0.6338,-0.6338,-0.6338,-0.6338,-0.6338,-0.6338,0.0,-0.5941,-0.5941,-0.5789,-0.5715,-0.5637,-0.5634,-0.5547,-0.5369,-0.5395,-0.5326,-0.5068,-0.509,-0.5098,-0.4999,-0.5162,-0.5168,-0.5018,-0.5026,-0.5029,-0.5029,-0.5029,-0.5031,-0.4961,-0.4724,-0.3064,-0.0392,-0.0392,-0.0549,-0.0785,-0.0782,-0.0469,0.0078,0.0778,0.1088,0.1088,0.0777,0.0934,0.1322,-0.5464,-0.5464,-0.5486,-0.5638,-0.5507,-0.5486,-0.564,-0.5697,-0.5733,-0.5733,-0.5676,-0.5635,-0.5635,-0.5866,-0.6123,-0.646,-0.6838,-0.7342,-0.7982,-0.8426,-0.8703,-0.8703,-0.8703,-0.8703,-0.8703,-0.8703,-0.8551,-0.8241,-0.7936,-0.7629,-0.7322,-0.663,-0.617,-0.5864,-0.5864,-0.5709,-0.5401,-0.5709,-0.5864,-0.5941,-0.6247,-0.617,-0.5941,-0.6247,-0.5941,-0.5401,-0.5553,-0.5323,-0.5018,-0.509,-0.5168,-0.5168,-0.5168,-0.5171,-0.5249,-0.5249,-0.5404,-0.5401,-0.5326,-0.5404,-0.5637,-0.5712,-0.5786,-0.5941,-0.6257,-0.6338,-0.6261,-0.6099,-0.618,-0.6261,-0.6099,-0.6099,-0.6099,-0.6099,-0.6025,0.0,0.0,-0.5789,-0.5789,-0.587,-0.5792,-0.5643,-0.5575,-0.5578,-0.5497,-0.5176,-0.5182,-0.4706,-0.3679,-0.368,-0.3682,-0.3682,-0.4626,-0.4623,-0.3679,-0.368,-0.3682,-0.3684,-0.456,-0.4961,-0.4964,-0.3144,-0.1492,-0.0,-0.0,0.0236,0.0707,0.0707,0.055,0.0393,0.0786,0.11,0.1335,0.1727,0.1962,0.219,-0.5466,-0.5466,-0.5496,-0.5591,-0.5529,-0.5496,-0.5591,-0.5632,-0.5648,-0.5648,-0.5567,-0.551,-0.551,-0.5898,-0.6147,-0.6312,-0.6659,-0.6964,-0.7123,-0.7859,-0.8318,-0.8318,-0.8318,-0.8318,-0.8318,-0.8318,-0.8089,-0.7553,-0.7399,-0.7092,-0.6633,-0.6015,-0.5709,-0.5709,-0.5171,-0.5018,-0.5018,-0.5018,-0.5018,-0.5015,-0.5479,-0.5401,-0.5018,-0.5479,-0.5401,-0.5018,-0.5018,-0.5018,-0.5018,-0.5018,-0.5018,-0.5018,-0.5018,-0.5018,-0.5018,-0.5018,-0.5249,-0.5404,-0.5096,-0.5249,-0.5482,-0.5479,-0.5631,-0.5864,-0.6103,-0.6106,-0.6103,-0.5864,-0.6022,-0.6103,-0.5864,-0.5864,-0.5864,-0.5864,0.0,0.0,0.0,-0.5643,-0.5646,-0.5727,-0.5329,-0.5015,-0.487,-0.4873,-0.4714,-0.4474,-0.4794,-0.4477,-0.3134,-0.2741,-0.2507,-0.2507,-0.4162,-0.4399,-0.3056,-0.2271,-0.1957,-0.1957,-0.3219,-0.3855,-0.3775,-0.1178,0.0079,0.0314,0.0314,0.0628,0.1178,0.1257,0.1335,0.1335,0.1178,0.1492,0.2118,0.2823,0.3136,0.3205,-0.5214,-0.5214,-0.5216,-0.5224,-0.5219,-0.5216,-0.5224,-0.5322,-0.5396,-0.5396,-0.5388,-0.5382,-0.5382,-0.5355,-0.5523,-0.6089,-0.6038,-0.6264,-0.688,-0.7022,-0.7015,-0.7015,-0.7015,-0.7015,-0.7015,-0.7015,-0.7019,-0.6942,-0.6325,-0.6018,-0.5941,-0.5323,-0.5096,-0.5096,-0.5018,-0.5018,-0.5018,-0.5018,-0.5018,-0.5018,-0.5018,-0.5015,-0.5018,-0.5018,-0.5015,-0.5018,-0.5018,-0.5018,-0.5018,-0.5018,-0.5018,-0.5018,-0.5018,-0.5018,-0.5018,-0.5018,-0.5018,-0.5015,-0.5018,-0.5018,-0.5093,-0.5246,-0.5321,-0.5398,-0.5637,-0.5637,-0.5637,-0.5637,-0.5637,-0.5637,-0.5637,-0.5637,-0.5637,-0.5637,0.0,0.0,-0.5799,-0.5655,-0.559,-0.559,-0.3919,-0.2738,-0.2738,-0.2738,-0.2738,-0.266,-0.4086,-0.4964,-0.4805,-0.3383,-0.2516,-0.2516,-0.4095,-0.4964,-0.4805,-0.1727,-0.0157,-0.0157,-0.0314,-0.0393,-0.0393,-0.0079,0.0471,0.1178,0.1178,0.1021,0.0707,0.11,0.22,0.3536,0.2984,0.3372,0.4307,0.3912,0.3752,0.3752,-0.5186,-0.5186,-0.5211,-0.5287,-0.5238,-0.5211,-0.5287,-0.5339,-0.5368,-0.5368,-0.5303,-0.5254,-0.5254,-0.5151,-0.5162,-0.5398,-0.5352,-0.5479,-0.5709,-0.6093,-0.6479,-0.6861,-0.6865,-0.6865,-0.6865,-0.6865,-0.671,-0.6247,-0.6018,-0.5709,-0.5326,-0.5093,-0.5018,-0.5018,-0.5018,-0.5018,-0.5018,-0.5018,-0.5018,-0.5018,-0.5018,-0.5018,-0.5018,-0.5018,-0.5018,-0.5018,-0.5018,-0.5018,-0.5018,-0.5018,-0.5018,-0.5018,-0.5018,-0.5018,-0.5018,-0.5018,-0.5018,-0.5018,-0.5018,-0.5093,-0.5168,-0.5243,-0.5401,-0.5479,-0.5559,-0.5637,-0.5559,-0.5479,-0.5479,-0.5559,-0.5488,-0.5488,-0.5491,-0.5578,0.0,-0.494,-0.3912,-0.368,-0.4081,-0.5121,-0.4562,-0.3219,-0.1176,-0.0941,-0.0941,-0.0941,-0.1569,-0.1885,-0.1885,-0.1257,-0.0707,-0.0157,-0.0785,-0.1334,-0.1885,-0.0628,0.0236,0.0786,0.0786,0.0629,0.0393,0.0393,0.055,0.0943,0.2278,0.2514,0.2119,0.2979,0.3526,0.3761,0.3524,0.3756,0.4146,0.4455,0.4535,0.4613,-0.5132,-0.5132,-0.5159,-0.5243,-0.5189,-0.5162,-0.5246,-0.5257,-0.5257,-0.5257,-0.5184,-0.5132,-0.5132,-0.5064,-0.5018,-0.5018,-0.5018,-0.5018,-0.5018,-0.5401,-0.5941,-0.6556,-0.6402,-0.6325,-0.6325,-0.6325,-0.6096,-0.5631,-0.5631,-0.5401,-0.5018,-0.5018,-0.5018,-0.5018,-0.5018,-0.5018,-0.5018,-0.5018,-0.5018,-0.5018,-0.5018,-0.5018,-0.5018,-0.5018,-0.5018,-0.5018,-0.5018,-0.5018,-0.5018,-0.5018,-0.5018,-0.5018,-0.5018,-0.5018,-0.5018,-0.5018,-0.5018,-0.5018,-0.5018,-0.5093,-0.5246,-0.5246,-0.5323,-0.5404,-0.5404,-0.5404,-0.5404,-0.5246,-0.5323,-0.5407,-0.526,-0.4862,-0.4548,-0.4633,-0.4875,-0.4638,-0.345,-0.235,-0.2116,-0.3301,-0.3459,-0.2514,-0.0236,-0.0,-0.0,-0.0,-0.0,0.0157,0.0393,0.0393,0.0628,0.11,0.1257,0.1021,0.0393,0.0236,0.0471,0.11,0.1257,0.11,0.0786,0.0786,0.1021,0.1413,0.2906,0.3376,0.3214,0.3992,0.4302,0.4144,0.4144,0.4377,0.4691,0.524,0.5395,0.5473,-0.5018,-0.5018,-0.5018,-0.5018,-0.5018,-0.5018,-0.5018,-0.5018,-0.5018,-0.5018,-0.5018,-0.5018,-0.5018,-0.5018,-0.5018,-0.5018,-0.5018,-0.5018,-0.5018,-0.5018,-0.5249,-0.5864,-0.5323,-0.5018,-0.5018,-0.5018,-0.5018,-0.5018,-0.5018,-0.5018,-0.5018,-0.5018,-0.5018,-0.5018,-0.5018,-0.5018,-0.5018,-0.5018,-0.5018,-0.5018,-0.5018,-0.5018,-0.5018,-0.5018,-0.5018,-0.5018,-0.5015,-0.5015,-0.5018,-0.5015,-0.5015,-0.5018,-0.5018,-0.5018,-0.5018,-0.5018,-0.5018,-0.5018,-0.5018,-0.5018,-0.5018,-0.5018,-0.5018,-0.5018,-0.5018,-0.5018,-0.5018,-0.5018,-0.5018,-0.5021,-0.5029,-0.3604,-0.2503,-0.2503,-0.3849,-0.4967,-0.4967,-0.212,-0.0,-0.0,-0.0,-0.0,-0.0,-0.0,-0.0,-0.0,-0.0,0.0393,0.1257,0.1335,0.11,0.0628,0.1021,0.1335,0.1335,0.0864,0.0628,0.0628,0.11,0.1335,0.1335,0.1335,0.1885,0.2904,0.2904,0.3292,0.383,0.383,0.43,0.5004,0.5004,0.5553,0.6338,0.6338,0.6338,0.6338,-0.5018,-0.5018,-0.5018,-0.5018,-0.5018,-0.5018,-0.5018,-0.5018,-0.5018,-0.5018,-0.5018,-0.5018,-0.5018,-0.5018,-0.5018,-0.5018,-0.5018,-0.5018,-0.5018,-0.5018,-0.5093,-0.5249,-0.5093,-0.5018,-0.5018,-0.5018,-0.5018,-0.5018,-0.5018,-0.5018,-0.5018,-0.5018,-0.5018,-0.5018,-0.5018,-0.5018,-0.5018,-0.5018,-0.5018,-0.5018,-0.5018,-0.5018,-0.5018,-0.5018,-0.5018,-0.5007,-0.492,-0.4944,-0.5004,-0.4917,-0.4944,-0.5018,-0.5018,-0.5018,-0.5018,-0.5018,-0.5018,-0.5018,-0.5018,-0.5018,-0.5018,-0.5018,-0.5018,-0.5018,-0.5018,-0.5018,-0.5018,-0.5026,-0.4075,-0.3604,-0.48,-0.4565,-0.3456,-0.1098,-0.1177,-0.1492,-0.1492,-0.0628,-0.0,-0.0,-0.0,-0.0,-0.0,0.055,0.0943,0.0943,0.0628,0.055,0.0786,0.11,0.1257,0.11,0.1257,0.1335,0.1335,0.1178,0.11,0.11,0.1257,0.1571,0.2119,0.2119,0.2666,0.36,0.4148,0.446,0.4691,0.5318,0.5709,0.5944,0.5944,0.6103,0.6338,0.6338,0.6338,0.6338,-0.5018,-0.5018,-0.5018,-0.5018,-0.5018,-0.5018,-0.5018,-0.5018,-0.5018,-0.5018,-0.5018,-0.5018,-0.5018,-0.5018,-0.5018,-0.5018,-0.5018,-0.5018,-0.5018,-0.5018,-0.5018,-0.5018,-0.5018,-0.5018,-0.5018,-0.5018,-0.5018,-0.5018,-0.5018,-0.5018,-0.5018,-0.5018,-0.5018,-0.5018,-0.5018,-0.5018,-0.5018,-0.5018,-0.5018,-0.5018,-0.5018,-0.5018,-0.5012,-0.4963,-0.4944,-0.4928,-0.4806,-0.4809,-0.4868,-0.4844,-0.4915,-0.5018,-0.5018,-0.5018,-0.5018,-0.5018,-0.5018,-0.5018,-0.5018,-0.5021,-0.5023,-0.5023,-0.5021,-0.5018,-0.5021,-0.4467,-0.4231,-0.4875,-0.4164,-0.3374,-0.3064,-0.2987,-0.2357,-0.0314,-0.0,-0.0,-0.0,-0.0,-0.0,-0.0,0.0314,0.055,0.055,0.1021,0.1335,0.1335,0.1021,0.0864,0.0864,0.1178,0.1335,0.1335,0.1335,0.1335,0.1335,0.1335,0.1335,0.1335,0.1649,0.2041,0.2511,0.2821,0.3444,0.43,0.4768,0.516,0.5553,0.6103,0.6338,0.6338,0.6338,0.6338,0.6338,0.6338,0.6338,0.6271,-0.5018,-0.5018,-0.5018,-0.5018,-0.5018,-0.5018,-0.5018,-0.5018,-0.5018,-0.5018,-0.5018,-0.5018,-0.5018,-0.5018,-0.5018,-0.5018,-0.5018,-0.5018,-0.5018,-0.5018,-0.5018,-0.5018,-0.5018,-0.5018,-0.5018,-0.5018,-0.5018,-0.5018,-0.5018,-0.5018,-0.5018,-0.5018,-0.5018,-0.5018,-0.5018,-0.5018,-0.5018,-0.5018,-0.5018,-0.5015,-0.5007,-0.4999,-0.4988,-0.4866,-0.4817,-0.4803,-0.4681,-0.4715,-0.4742,-0.4792,-0.4915,-0.5018,-0.5018,-0.5018,-0.5018,-0.5018,-0.5018,-0.494,-0.4781,-0.4787,-0.4792,-0.4953,-0.5026,-0.5021,-0.5031,-0.3843,-0.3056,-0.4328,-0.4567,-0.3618,-0.055,-0.0,-0.0,-0.0,-0.0,-0.0,0.0079,0.0079,0.0079,0.0079,0.0786,0.1257,0.1257,0.126,0.1262,0.1262,0.1264,0.1265,0.1265,0.1263,0.1262,0.1262,0.1337,0.1335,0.1414,0.1414,0.1414,0.1414,0.2119,0.2588,0.2744,0.3521,0.4382,0.5096,0.5085,0.5565,0.6298,0.6271,0.6345,0.6278,0.6345,0.6338,0.6338,0.6338,0.6271,0.6376,-0.5018,-0.5018,-0.5018,-0.5018,-0.5018,-0.5018,-0.5018,-0.5018,-0.5018,-0.5018,-0.5018,-0.5018,-0.5018,-0.5018,-0.5018,-0.5018,-0.5018,-0.5018,-0.5018,-0.5018,-0.5018,-0.5018,-0.5018,-0.5018,-0.5018,-0.5018,-0.5018,-0.5018,-0.5018,-0.5018,-0.5018,-0.5018,-0.5018,-0.5018,-0.5018,-0.5018,-0.5018,-0.5018,-0.5018,-0.501,-0.4912,-0.4874,-0.486,-0.4738,-0.4692,-0.4675,-0.4553,-0.4643,-0.4742,-0.4792,-0.4915,-0.5018,-0.5018,-0.5018,-0.5018,-0.5018,-0.5023,-0.4711,-0.3366,-0.3052,-0.337,-0.4643,-0.4961,-0.504,-0.4964,-0.4724,-0.3851,-0.157,-0.1099,-0.0864,-0.0157,-0.0,-0.0,-0.0,-0.0,0.0236,0.0943,0.1021,0.0864,0.055,0.0628,0.0786,0.0786,0.1119,0.1293,0.1293,0.1315,0.1328,0.1328,0.1306,0.1293,0.1293,0.127,0.157,0.2198,0.2276,0.2276,0.2276,0.2433,0.3212,0.4457,0.4691,0.5288,0.6179,0.6071,0.6232,0.6586,0.6356,0.6325,0.6417,0.6305,0.6338,0.6338,0.6338,0.6332,0.651,-0.5018,-0.5018,-0.5018,-0.5018,-0.5018,-0.5018,-0.5018,-0.5018,-0.5018,-0.5018,-0.5018,-0.5018,-0.5018,-0.5018,-0.5018,-0.5018,-0.5018,-0.5018,-0.5018,-0.5018,-0.5018,-0.5018,-0.5018,-0.5018,-0.5018,-0.4779,-0.4779,-0.5018,-0.5018,-0.5018,-0.5018,-0.5018,-0.5018,-0.5018,-0.5018,-0.5018,-0.5018,-0.5018,-0.4982,-0.4923,-0.486,-0.48,-0.4732,-0.4613,-0.4637,-0.4621,-0.4431,-0.4501,-0.4734,-0.4727,-0.4715,-0.4621,-0.4304,-0.407,-0.3915,-0.36,-0.3368,-0.3057,-0.2193,-0.1488,-0.1254,-0.2119,-0.2356,-0.2277,-0.2042,-0.1962,-0.157,-0.0,0.0314,0.0314,0.0314,0.0317,0.032,0.032,0.0323,0.0488,0.0975,0.1207,0.1204,0.0974,0.0965,0.0963,0.0974,0.1151,0.1324,0.1324,0.1339,0.1263,0.1263,0.1333,0.1489,0.1983,0.2041,0.2432,0.3322,0.3322,0.3482,0.3964,0.3842,0.4218,0.5091,0.563,0.6102,0.6573,0.6589,0.6614,0.6742,0.6663,0.661,0.6516,0.6443,0.6412,0.6349,0.6496,0.6697,0.6909,-0.5018,-0.5018,-0.5018,-0.5018,-0.5018,-0.5018,-0.5018,-0.5018,-0.5018,-0.5018,-0.5018,-0.5018,-0.5018,-0.5018,-0.5018,-0.5018,-0.5018,-0.5018,-0.5018,-0.5018,-0.4937,-0.4937,-0.4859,-0.4859,-0.4781,-0.4465,-0.4465,-0.4859,-0.4859,-0.4859,-0.4781,-0.4859,-0.4859,-0.4781,-0.4781,-0.4781,-0.4781,-0.4781,-0.4791,-0.4683,-0.4584,-0.4583,-0.4679,-0.4485,-0.4439,-0.4428,-0.4336,-0.4452,-0.4581,-0.4434,-0.4285,-0.399,-0.3361,-0.2815,-0.2348,-0.1877,-0.133,-0.0862,-0.0862,-0.0078,0.0707,0.0707,0.0707,0.0787,0.1185,0.1261,0.118,0.079,0.0711,0.0712,0.0715,0.0727,0.0818,0.0818,0.0832,0.0842,0.0842,0.1077,0.132,0.1261,0.1326,0.132,0.1346,0.1352,0.1355,0.1355,0.1275,0.1277,0.1277,0.1443,0.1946,0.2786,0.2943,0.3524,0.4444,0.4444,0.4861,0.569,0.5612,0.5563,0.5465,0.6394,0.6798,0.6812,0.6799,0.6911,0.6943,0.688,0.6806,0.6602,0.668,0.6528,0.6397,0.6812,0.7193,0.7454,-0.5018,-0.5018,-0.5018,-0.5018,-0.5018,-0.5018,-0.5018,-0.5018,-0.5018,-0.5018,-0.5018,-0.5018,-0.5018,-0.5018,-0.5018,-0.5018,-0.5018,-0.5018,-0.5018,-0.5018,-0.4859,-0.4462,-0.4462,-0.4309,-0.3999,-0.3919,-0.4075,-0.4462,-0.4462,-0.4309,-0.3999,-0.4309,-0.4309,-0.3999,-0.3999,-0.3999,-0.3999,-0.3999,-0.4097,-0.4227,-0.3836,-0.4027,-0.4482,-0.4089,-0.4051,-0.4322,-0.4306,-0.4245,-0.4003,-0.3489,-0.3156,-0.2895,-0.2267,-0.1642,-0.1018,-0.094,-0.0078,0.0942,0.0942,0.11,0.1178,0.1178,0.1178,0.1185,0.129,0.1276,0.1264,0.121,0.1215,0.1222,0.1164,0.1171,0.1258,0.1258,0.1345,0.1263,0.1263,0.1344,0.1343,0.1348,0.126,0.1343,0.1348,0.137,0.1384,0.1384,0.1409,0.1423,0.1423,0.2183,0.2678,0.2763,0.356,0.4444,0.5274,0.5358,0.5693,0.6533,0.6894,0.6793,0.6503,0.7022,0.7275,0.7218,0.7086,0.7193,0.7498,0.7047,0.6872,0.677,0.7001,0.6925,0.6805,0.734,0.7545,0.7714,-0.5018,-0.5018,-0.5018,-0.5018,-0.5018,-0.5018,-0.5018,-0.5018,-0.5018,-0.5018,-0.5018,-0.5018,-0.5018,-0.5018,-0.4937,-0.4701,-0.4698,-0.4545,-0.4311,-0.4311,-0.4233,-0.4075,-0.4075,-0.3997,-0.3841,-0.353,-0.353,-0.3684,-0.3917,-0.3997,-0.3841,-0.3997,-0.3997,-0.3763,-0.3763,-0.3763,-0.3763,-0.3763,-0.3789,-0.3845,-0.3601,-0.3652,-0.3837,-0.3531,-0.356,-0.3696,-0.3696,-0.3481,-0.3203,-0.2909,-0.2406,-0.1879,-0.1174,-0.0627,-0.0078,0.0235,0.0785,0.1335,0.1335,0.1335,0.1335,0.1335,0.127,0.1286,0.1299,0.1305,0.1311,0.1325,0.1328,0.1332,0.1261,0.1361,0.1371,0.1371,0.1386,0.1397,0.1397,0.1382,0.1371,0.1371,0.1386,0.1397,0.1397,0.1408,0.1415,0.1415,0.1427,0.1614,0.2241,0.2751,0.3441,0.441,0.506,0.5815,0.6599,0.6771,0.7032,0.7379,0.762,0.7569,0.708,0.7513,0.7681,0.7646,0.7579,0.7644,0.775,0.7593,0.7427,0.7337,0.7415,0.7796,0.8234,0.7893,0.8235,0.8774]},{"header":{"parameterUnit":"m.s-1","parameterCategory":1,"la1":30.6,"la2":28.766,"lo1":-90.7593,"lo2":-88.6598,"dy":0.0162,"dx":0.0183,"nx":116,"ny":114,"refTime":"2023-05-15T12:00:00:Z","depth":0,"parameterNumber":3,"parameterNumberName":"V-component_of_WINDS"},"data":[0.0,0.0,0.0,0.0,0.0,0.0,0.0,0.0,0.0,0.0,0.0,0.0,0.0,0.0,0.0,0.0,0.0,0.0,0.0,0.0,0.0,0.0,0.0,0.0,0.0,0.0,0.0,0.0,0.0,0.0,0.0,0.0,0.0,0.0,0.0,0.0,0.0,0.0,0.0,0.0,0.0,0.0,0.0,0.0,0.0,0.0,0.0,0.0,0.0,0.0,0.0,0.0,0.0,0.0,0.0,0.0,0.0,0.0,0.0,0.0,0.0,0.0,0.0,0.0,0.0,0.0,0.0,0.0,0.0,0.0,0.0,0.0,0.0,0.0,0.0,0.0,0.0,0.0,0.0,0.0,0.0,0.0,0.0,0.0,0.0,0.0,0.0,0.0,0.0,0.0,0.0,0.0,0.0,0.0,0.0,0.0,0.0,0.0,0.0,0.0,0.0,0.0,0.0,0.0,0.0,0.0,0.0,0.0,0.0,0.0,0.0,0.0,0.0,0.0,0.0,0.0,0.0,0.0,0.0,0.0,0.0,0.0,0.0,0.0,0.0,0.0,0.0,0.0,0.0,0.0,0.0,0.0,0.0,0.0,0.0,0.0,0.0,0.0,0.0,0.0,0.0,0.0,0.0,0.0,0.0,0.0,0.0,0.0,0.0,0.0,0.0,0.0,0.0,0.0,0.0,0.0,0.0,0.0,0.0,0.0,0.0,0.0,0.0,0.0,0.0,0.0,0.0,0.0,0.0,0.0,0.0,0.0,0.0,0.0,0.0,0.0,0.0,0.0,0.0,0.0,0.0,0.0,0.0,0.0,0.0,0.0,0.0,0.0,0.0,0.0,0.0,0.0,0.0,0.0,0.0,0.0,0.0,0.0,0.0,0.0,0.0,0.0,0.0,0.0,0.0,0.0,0.0,0.0,0.0,0.0,0.0,0.0,0.0,0.0,0.0,0.0,0.0,0.0,0.0,0.0,0.0,0.0,0.0,0.0,0.0,0.0,0.0,0.0,0.0,0.0,0.0,0.0,0.0,0.0,0.0,0.0,0.0,0.0,0.0,0.0,0.0,0.0,0.0,0.0,0.0,0.0,0.0,0.0,0.0,0.0,0.0,0.0,0.0,0.0,0.0,0.0,0.0,0.0,0.0,0.0,0.0,0.0,0.0,0.0,0.0,0.0,0.0,0.0,0.0,0.0,0.0,0.0,0.0,0.0,0.0,0.0,0.0,0.0,0.0,0.0,0.0,0.0,0.0,0.0,0.0,0.0,0.0,0.0,0.0,0.0,0.0,0.0,0.0,0.0,0.0,0.0,0.0,0.0,0.0,0.0,0.0,0.0,0.0,0.0,0.0,0.0,0.0,0.0,0.0,0.0,0.0,0.0,0.0,0.0,0.0,0.0,0.0,0.0,0.0,0.0,0.0,0.0,0.0,0.0,0.0,0.0,0.0,0.0,0.0,0.0,0.0,0.0,0.0,0.0,0.0,0.0,0.0,0.0,0.0,0.0,0.0,0.0,0.0,0.0,0.0,0.0,0.0,0.0,0.0,0.0,0.0,0.0,0.0,0.0,0.0,0.0,0.0,0.0,0.0,0.0,0.0,0.0,0.0,0.0,0.0,0.0,0.0,0.0,0.0,0.0,0.0,0.0,0.0,0.0,0.0,0.0,0.0,0.0,0.0,0.0,0.0,0.0,0.0,0.0,0.0,0.0,0.0,0.0,0.0,0.0,0.0,0.0,0.0,0.0,0.0,0.0,0.0,0.0,0.0,0.0,0.0,0.0,0.0,0.0,0.0,0.0,0.0,0.0,0.0,0.0,0.0,0.0,0.0,0.0,0.0,0.0,0.0,0.0,0.0,0.0,0.0,0.0,0.0,0.0,0.0,0.0,0.0,0.0,0.0,0.0,0.0,0.0,0.0,0.0,0.0,0.0,0.0,0.0,0.0,0.0,0.0,0.0,0.0,0.0,0.0,0.0,0.0,0.0,0.0,0.0,0.0,0.0,0.0,0.0,0.0,0.0,0.0,0.0,0.0,0.0,0.0,0.0,0.0,0.0,0.0,0.0,0.0,0.0,0.0,0.0,0.0,0.0,0.0,0.0,0.0,0.0,0.0,0.0,0.0,0.0,0.0,0.0,0.0,0.0,0.0,0.0,0.0,0.0,0.0,0.0,0.0,0.0,0.0,0.0,0.0,0.0,0.0,0.0,0.0,0.0,0.0,0.0,0.0,0.0,0.0,0.0,0.0,0.0,0.0,0.0,0.0,0.0,0.0,0.0,0.0,0.0,0.0,0.0,0.0,0.0,0.0,0.0,0.0,0.0,0.0,0.0,0.0,0.0,0.0,0.0,0.0,0.0,0.0,0.0,0.0,0.0,0.0,0.0,0.0,0.0,0.0,0.0,0.0,0.0,0.0,0.0,0.0,0.0,0.0,0.0,0.0,0.0,0.0,0.0,0.0,0.0,0.0,0.0,0.0,0.0,0.0,0.0,0.0,0.0,0.0,0.0,0.0,0.0,0.0,0.0,0.0,0.0,0.0,0.0,0.0,0.0,0.0,0.0,0.0,0.0,0.0,0.0,0.0,0.0,0.0,0.0,0.0,0.0,0.0,0.0,0.0,0.0,0.0,0.0,0.0,0.0,0.0,0.0,0.0,0.0,0.0,0.0,0.0,0.0,0.0,0.0,0.0,0.0,0.0,0.0,0.0,0.0,0.0,0.0,0.0,0.0,0.0,0.0,0.0,0.0,0.0,0.0,0.0,0.0,0.0,0.0,0.0,0.0,0.0,0.0,0.0,0.0,0.0,0.0,0.0,0.0,0.0,0.0,0.0,0.0,0.0,0.0,0.0,0.0,0.0,0.0,0.0,0.0,0.0,0.0,0.0,0.0,0.0,0.0,0.0,0.0,0.0,0.0,0.0,0.0,0.0,0.0,0.0,0.0,0.0,0.0,0.0,0.0,0.0,0.0,0.0,0.0,0.0,0.0,0.0,0.0,0.0,0.0,0.0,0.0,0.0,0.0,0.0,0.0,0.0,0.0,0.0,0.0,0.0,0.0,0.0,0.0,0.0,0.0,0.0,0.0,0.0,0.0,0.0,0.0,0.0,0.0,0.0,0.0,0.0,0.0,0.0,0.0,0.0,0.0,0.0,0.0,0.0,0.0,0.0,0.0,0.0,0.0,0.0,0.0,0.0,0.0,0.0,0.0,0.0,0.0,0.0,0.0,0.0,0.0,0.0,0.0,0.0,0.0,0.0,0.0,0.0,0.0,0.0,0.0,0.0,0.0,0.0,0.0,0.0,0.0,0.0,0.0,0.0,0.0,0.0,0.0,0.0,0.0,0.0,0.0,0.0,0.0,0.0,0.0,0.0,0.0,0.0,0.0,0.0,0.0,0.0,0.0,0.0,0.0,0.0,0.0,0.0,0.0,0.0,0.0,0.0,0.0,0.0,0.0,0.0,0.0,0.0,0.0,0.0,0.0,0.0,0.0,0.0,0.0,0.0,0.0,0.0,0.0,0.0,0.0,0.0,0.0,0.0,0.0,0.0,0.0,0.0,0.0,0.0,0.0,0.0,0.0,0.0,0.0,0.0,0.0,0.0,0.0,0.0,0.0,0.0,0.0,0.0,0.0,0.0,0.0,0.0,0.0,0.0,0.0,0.0,0.0,0.0,0.0,0.0,0.0,0.0,0.0,0.0,0.0,0.0,0.0,0.0,0.0,0.0,0.0,0.0,0.0,0.0,0.0,0.0,0.0,0.0,0.0,0.0,0.0,0.0,0.0,0.0,0.0,0.0,0.0,0.0,0.0,0.0,0.0,0.0,0.0,0.0,0.0,0.0,0.0,0.0,0.0,0.0,0.0,0.0,0.0,0.0,0.0,0.0,0.0,0.0,0.0,0.0,0.0,0.0,0.0,0.0,0.0,0.0,0.0,0.0,0.0,0.0,0.0,0.0,0.0,0.0,0.0,0.0,0.0,0.0,0.0,0.0,0.0,0.0,0.0,0.0,0.0,0.0,0.0,0.0,0.0,0.0,0.0,0.0,0.0,0.0,0.0,0.0,0.0,0.0,0.0,0.0,0.0,0.0,0.0,0.0,0.0,0.0,0.0,0.0,0.0,0.0,0.0,0.0,0.0,0.0,0.0,0.0,0.0,0.0,0.0,0.0,0.0,0.0,0.0,0.0,0.0,0.0,0.0,0.0,0.0,0.0,0.0,0.0,0.0,0.0,0.0,0.0,0.0,0.0,0.0,0.0,0.0,0.0,0.0,0.0,0.0,0.0,0.0,0.0,0.0,0.0,0.0,0.0,0.0,0.0,0.0,0.0,0.0,0.0,0.0,0.0,0.0,0.0,0.0,0.0,0.0,0.0,0.0,0.0,0.0,0.0,0.0,0.0,0.0,0.0,0.0,0.0,0.0,0.0,0.0,0.0,0.0,0.0,0.0,0.0,0.0,0.0,0.0,0.0,0.0,0.0,0.0,0.0,0.0,0.0,0.0,0.0,0.0,0.0,0.0,0.0,0.0,0.0,0.0,0.0,0.0,0.0,0.0,0.0,0.0,0.0,0.0,0.0,0.0,0.0,0.0,0.0,0.0,0.0,0.0,0.0,0.0,0.0,0.0,0.0,0.0,0.0,0.0,0.0,0.0,0.0,0.0,0.0,0.0,0.0,0.0,0.0,0.0,0.0,0.0,0.0,0.0,0.0,0.0,0.0,0.0,0.0,0.0,0.0,0.0,0.0,0.0,0.0,0.0,0.0,0.0,0.0,0.0,0.0,0.0,0.0,0.0,0.0,0.0,0.0,0.0,0.0,0.0,0.0,0.0,0.0,0.0,0.0,0.0,0.0,0.0,0.0,0.0,0.0,0.0,0.0,0.0,0.0,0.0,0.0,0.0,0.0,0.0,0.0,0.0,0.0,0.0,0.0,0.0,0.0,0.0,0.0,0.0,0.0,0.0,0.0,0.0,0.0,0.0,0.0,0.0,0.0,0.0,0.0,0.0,0.0,0.0,0.0,0.0,0.0,0.0,0.0,0.0,0.0,0.0,0.0,0.0,0.0,0.0,0.0,0.0,0.0,0.0,0.0,0.0,0.0,0.0,0.0,0.0,0.0,0.0,0.0,0.0,0.0,0.0,0.0,0.0,0.0,0.0,0.0,0.0,0.0,0.0,0.0,0.0,0.0,0.0,0.0,0.0,0.0,0.0,0.0,0.0,0.0,0.0,0.0,0.0,0.0,0.0,0.0,0.0,0.0,0.0,0.0,0.0,0.0,0.0,0.0,0.0,0.0,0.0,0.0,0.0,0.0,0.0,0.0,0.0,0.0,0.0,0.0,0.0,0.0,0.0,0.0,0.0,0.0,0.0,0.0,0.0,0.0,0.0,0.0,0.0,0.0,0.0,0.0,0.0,0.0,0.0,0.0,0.0,0.0,0.0,0.0,0.0,0.0,0.0,0.0,0.0,0.0,0.0,0.0,0.0,0.0,0.0,0.0,0.0,0.0,0.0,0.0,0.0,0.0,0.0,0.0,0.0,0.0,0.0,0.0,0.0,0.0,0.0,0.0,0.0,0.0,0.0,0.0,0.0,0.0,0.0,0.0,0.0,0.0,0.0,0.0,0.0,0.0,0.0,0.0,0.0,0.0,0.0,0.0,0.0,0.0,0.0,0.0,0.0,0.0,0.0,0.0,0.0,0.0,0.0,0.0,0.0,0.0,0.0,0.0,0.0,0.0,0.0,0.0,0.0,0.0,0.0,0.0,0.0,0.0,0.0,0.0,0.0,0.0,0.0,0.0,0.0,0.0,0.0,0.0,0.0,0.0,0.0,0.0,0.0,0.0,0.0,0.0,0.0,0.0,0.0,0.0,0.0,0.0,0.0,0.0,0.0,0.0,0.0,0.0,0.0,0.0,0.0,0.0,0.0,0.0,0.0,0.0,0.0,0.0,0.0,0.0,0.0,0.0,0.0,0.0,0.0,0.0,0.0,0.0,0.0,0.0,0.0,0.0,0.0,0.0,0.0,0.0,0.0,0.0,0.0,0.0,0.0,0.0,0.0,0.0,0.0,0.0,0.0,0.0,0.0,0.0,0.0,0.0,0.0,0.0,0.0,-0.8588,0.0,0.0,0.0,0.0,0.0,0.0,0.0,0.0,0.0,0.0,0.0,0.0,0.0,0.0,0.0,0.0,0.0,0.0,0.0,0.0,0.0,0.0,0.0,0.0,0.0,0.0,0.0,0.0,0.0,0.0,0.0,0.0,0.0,0.0,0.0,0.0,0.0,0.0,0.0,0.7629,0.627,0.426,0.1664,0.0646,0.093,0.0,0.0,0.0,0.0,0.0,0.0,0.0,0.0,0.0,0.0,0.0,0.0,0.0,0.0,0.0,0.0,0.0,0.0,0.0,0.0,0.0,0.0,0.0,0.0,0.0,0.0,0.0,0.0,0.0,0.0,0.0,0.0,0.0,0.0,0.0,0.0,0.0,0.0,0.0,0.0,0.0,0.0,0.0,0.0,0.0,0.0,0.0,0.0,0.0,0.0,0.0,0.0,0.0,0.0,0.0,0.0,0.0,0.0,0.0,0.0,0.0,0.0,0.0,0.0,0.0,0.0,0.0,0.0,0.0,0.0,0.0,-1.3572,0.0,0.0,0.0,0.0,0.0,0.0,0.0,0.0,0.0,0.0,0.0,0.0,0.0,0.0,0.0,0.0,0.0,0.0,0.0,0.0,0.0,0.0,0.0,0.0,0.0,0.0,0.0,0.0,0.0,0.0,0.0,0.0,0.0,0.0,0.0,0.0,0.0,0.0,0.6981,0.446,0.0482,-0.4059,-0.5103,-0.3255,-0.3694,0.0,0.0,0.0,0.0,0.0,0.0,0.0,0.0,0.0,0.0,0.0,0.0,0.0,0.0,0.0,0.0,0.0,0.0,0.0,0.0,0.0,0.0,0.0,0.0,0.0,0.0,0.0,0.0,0.0,0.0,0.0,0.0,0.0,0.0,0.0,0.0,0.0,0.0,0.0,0.0,0.0,0.0,0.0,0.0,0.0,0.0,0.0,0.0,0.0,0.0,0.0,0.0,0.0,0.0,0.0,0.0,0.0,0.0,0.0,0.0,0.0,0.0,0.0,0.0,-0.2763,-0.286,-0.2763,-0.4455,-0.7644,-1.2095,-1.4403,-1.5494,0.0,0.0,0.0,0.0,0.0,0.0,0.0,0.0,0.0,0.0,0.0,0.0,0.0,0.0,0.0,0.0,0.0,0.0,0.0,0.0,0.0,0.0,0.0,0.0,0.0,0.0,0.0,0.0,0.0,0.0,0.0,0.0,0.0,0.0,1.3184,1.1095,0.8595,0.4287,0.0263,-0.3587,-0.633,-0.9393,-1.2526,-1.0525,-0.9413,-0.9184,0.0,0.0,0.0,0.0,0.0,0.0,0.0,0.0,0.0,0.0,0.0,0.0,0.0,0.0,0.0,0.0,0.0,0.0,0.0,0.0,0.0,0.0,0.0,0.0,0.0,0.0,0.0,0.0,0.0,0.0,0.0,0.0,0.0,0.0,0.0,0.0,0.0,0.0,0.0,0.0,0.0,0.7584,0.6416,0.0,0.0,0.0,0.0,0.0,0.0,0.0,0.0,0.0,0.0,0.0,0.0,0.0,0.0,-0.1902,-0.2352,-0.2635,-0.2749,-0.2772,-0.2768,-0.2751,-0.2772,-0.3019,-0.3838,-1.0977,0.0,-1.9107,-2.0093,0.0,0.0,0.0,0.0,0.0,0.0,0.0,0.0,0.0,0.0,0.0,0.0,0.0,0.0,0.0,0.0,0.0,0.0,0.0,0.0,0.0,0.0,0.0,0.0,0.0,0.0,0.0,0.0,0.0,0.0,0.0,0.0,1.5925,1.4853,1.2436,0.8487,0.1222,-0.3227,-0.5013,-1.0346,-1.3944,-1.5898,-1.5562,-1.4451,-1.2777,-1.3239,0.0,0.0,0.0,0.0,0.0,0.0,0.0,0.0,0.0,0.0,0.0,0.0,0.0,0.0,0.0,0.0,0.0,0.0,0.0,0.0,0.0,0.0,0.0,0.0,0.0,0.0,0.0,0.0,0.0,0.0,0.0,0.0,0.0,0.0,0.0,0.0,0.0,0.0,0.0,0.7582,0.6013,0.6411,0.5214,0.384,0.0,0.0,0.0,0.0,0.0,0.0,0.0,0.0,0.0,-0.0393,-0.1287,-0.1846,-0.2015,-0.2296,-0.2575,-0.2912,-0.2954,-0.4047,-0.6077,-0.6106,-0.8426,-1.259,-1.5974,-1.9589,-2.3101,-2.3022,-2.383,-2.5122,0.0,0.0,0.0,0.0,0.0,-2.5094,0.0,0.0,0.0,0.0,0.0,0.0,0.0,0.0,0.0,0.0,0.0,0.0,0.0,0.0,0.0,1.7256,0.0,0.0,0.0,0.0,0.0,0.0,0.0,2.0418,1.7452,1.5909,1.2571,0.733,-0.1123,-0.5906,-0.7232,-1.4047,-1.7622,-1.839,-1.9426,-1.8454,-1.6049,-1.6213,-1.6518,-1.697,0.0,0.0,0.0,0.0,0.0,0.0,0.0,0.0,0.0,0.0,0.0,0.0,0.0,0.0,0.0,0.0,0.0,0.0,0.0,0.0,0.0,0.0,0.0,0.0,0.0,0.0,0.0,0.0,0.0,0.0,0.0,0.0,0.0,0.0,0.0,0.0,0.0,0.687,0.5277,0.6249,0.4937,0.3622,0.0,0.0,0.0,0.0,0.0,0.0,0.0505,-0.0168,-0.0505,-0.0449,-0.1119,-0.1677,-0.1902,-0.224,-0.2575,-0.3021,-0.299,-0.4482,-0.7205,-0.8208,-1.1704,-1.7147,-1.9113,-2.1578,-2.4259,-2.5157,-2.5421,-2.5234,-2.5322,-2.5245,-2.5094,-2.5255,-2.5274,-2.5272,0.0,0.0,0.0,0.0,0.0,0.0,0.0,0.0,0.0,0.0,0.0,0.0,0.0,0.0,1.8749,1.9742,2.003,2.0344,0.0,0.0,0.0,0.0,0.0,2.1171,1.9843,1.4929,0.9888,0.478,-0.2069,-0.7544,-1.1765,-1.6437,-1.9705,-2.1668,-2.1928,-2.0942,-1.9104,-1.9512,-1.9856,-2.019,-2.019,0.0,0.0,0.0,0.0,0.0,0.0,0.0,0.0,0.0,0.0,0.0,0.0,0.0,0.0,0.0,0.0,0.0,0.0,0.0,0.0,0.0,0.0,0.0,0.0,0.0,0.0,0.0,0.0,0.0,0.0,0.0,0.0,0.0,0.0,0.0,0.0,0.0,0.0,0.5273,0.5105,0.0,0.0,0.0,0.0,0.2127,0.1064,0.0673,0.1234,0.0673,0.0336,0.0336,-0.0727,-0.1285,-0.1174,-0.2296,-0.2805,-0.2747,-0.2779,-0.2892,-0.3147,-0.691,-0.8719,-0.9391,-1.6722,-1.9986,-2.0374,-2.4062,-2.5596,-2.5563,-2.5505,-2.541,-2.5305,-2.5518,-2.5499,-2.541,0.0,0.0,0.0,0.0,0.0,0.0,0.0,0.0,0.0,0.0,0.0,0.0,0.0,1.8167,1.9803,2.0332,2.0886,2.129,2.1493,0.0,0.0,0.0,0.0,2.1661,1.8339,1.3779,0.855,0.2655,-0.4186,-0.9742,-1.416,-1.8643,-2.1173,-2.1928,-2.2094,-2.1811,-2.1148,-2.1117,-2.1038,-2.0846,-2.0846,-2.0878,0.0,0.0,0.0,0.0,0.0,0.0,0.0,0.0,0.0,0.0,0.0,0.0,0.0,0.0,0.0,0.0,0.0,0.0,0.0,0.0,0.0,0.0,0.0,0.0,0.0,0.0,0.0,0.0,0.0,0.0,0.0,0.0,0.0,0.0,0.0,0.0,0.0,0.4952,0.4622,0.0,0.0,0.2569,0.2068,0.1008,0.0729,0.0505,0.0336,0.0224,0.0168,0.028,-0.056,-0.1131,-0.1327,-0.2251,-0.4368,-0.7576,-0.7597,-1.0458,-1.5694,-1.7117,-1.9021,-2.1363,-2.4109,-2.529,-2.5324,-2.6168,-2.6123,-2.5541,-2.5562,-2.5549,-2.5499,-2.5571,-2.5605,-2.5591,0.0,0.0,0.0,0.0,0.0,0.0,0.0,0.0,0.0,0.0,0.0,1.6071,1.7222,1.9037,2.0335,2.069,2.1486,2.2015,2.2057,0.0,0.0,0.0,2.3239,2.0988,1.6561,1.3077,0.7745,0.0443,-0.5712,-1.1317,-1.6435,-2.0177,-2.194,-2.194,-2.2152,-2.2225,-2.2225,-2.2049,-2.1781,-2.1491,-2.1491,-2.1462,-2.1324,0.0,0.0,0.0,0.0,0.0,0.0,0.0,0.0,0.0,0.0,0.0,0.0,0.0,0.0,0.0,0.0,0.0,0.0,0.0,0.0,0.0,0.0,0.0,0.0,0.0,0.0,0.0,0.0,0.0,0.0,0.0,0.0,0.0,0.0,0.0,0.4463,0.4457,0.4128,0.363,0.2903,0.2569,0.2021,0.1136,0.0684,0.0401,0.0174,0.0058,0.0058,0.0116,-0.0753,-0.1346,-0.1492,-0.2387,-0.5296,-1.0178,-1.0178,-1.3919,-2.0845,-2.212,-2.4028,-2.641,-2.7716,-2.8274,-2.8196,-2.7323,-2.6576,-2.5945,-2.5702,-2.5613,-2.5634,-2.5628,-2.5658,-2.5705,0.0,0.0,0.0,0.0,0.0,0.0,0.0,0.0,0.0,0.0,1.757,1.8302,1.838,1.9456,2.0379,2.0861,2.1774,2.238,2.2613,2.3682,0.0,0.0,2.1884,1.9191,1.4864,1.2871,0.7346,-0.1897,-0.6545,-1.2171,-1.8626,-2.0922,-2.1998,-2.2027,-2.2192,-2.2282,-2.2282,-2.2282,-2.2282,-2.2282,-2.2282,-2.2225,-2.214,0.0,0.0,0.0,0.0,0.0,0.0,0.0,0.0,0.0,0.0,0.0,0.0,0.0,0.0,0.0,0.0,0.0,0.0,0.0,0.0,0.0,0.0,0.0,0.0,0.0,0.0,0.0,0.0,0.0,0.0,0.0,0.0,0.0,0.4021,0.4515,0.457,0.3685,0.3688,0.3638,0.3368,0.2411,0.1991,0.258,0.1001,0.0239,0.0799,0.0247,-0.0062,0.0,-0.1294,-0.1787,-0.148,-0.2714,-0.5548,-0.9907,-1.0057,-1.254,-1.7155,-2.1022,-2.2739,-2.2956,-2.6664,-2.8258,-2.8162,-2.7302,-2.6923,-2.6799,-2.5932,-2.5634,-2.5697,-2.5701,-2.5709,-2.5703,0.0,0.0,0.0,0.0,0.0,0.0,0.0,0.0,0.0,0.0,1.7916,1.7679,1.8341,1.9391,2.0345,2.1069,2.1707,2.2419,2.3208,0.0,0.0,0.0,2.2416,1.9301,1.3825,1.0929,0.4907,-0.4432,-0.8913,-1.3666,-1.8717,-2.0953,-2.2044,-2.2123,-2.1991,-2.1961,-2.1915,-2.1691,-2.1554,-2.1601,-2.1857,-2.1768,-2.1464,0.0,0.0,0.0,0.0,0.0,0.0,0.0,0.0,0.0,0.0,0.0,0.0,0.0,0.0,0.0,0.0,0.0,0.0,0.0,0.0,0.0,0.0,0.0,0.0,0.0,0.0,0.0,0.0,0.0,0.0,0.0,0.0,0.4132,0.457,0.4349,0.3828,0.3058,0.2952,0.2689,0.1975,0.162,0.1266,0.0913,0.0061,-0.0488,-0.0677,-0.123,-0.1169,-0.0431,-0.0862,-0.1182,-0.1208,-0.1653,-0.4644,-1.0076,-1.3427,-1.7492,-2.2177,-2.6524,-2.853,-2.8565,-2.9629,-2.9702,-2.9021,-2.8235,-2.7508,-2.6827,-2.5996,-2.5672,-2.5704,-2.5694,-2.5703,-2.5694,0.0,0.0,0.0,0.0,0.0,0.0,0.0,0.0,0.0,0.0,1.7837,1.7826,1.8841,1.9566,2.0361,2.1241,2.1888,2.2653,2.36,0.0,0.0,0.0,2.0827,1.7622,1.233,0.7872,0.1547,-0.6774,-1.0879,-1.5337,-2.003,-2.0894,-2.1521,-2.1844,-2.1661,-2.1554,-2.1507,-2.137,-2.1214,-2.1119,-2.1293,-2.1324,-2.1214,-2.115,-2.1087,-2.1039,-2.1023,-2.1039,-2.1071,-2.1087,0.0,0.0,0.0,0.0,0.0,0.0,0.0,0.0,0.0,0.0,0.0,0.0,0.0,0.0,0.0,0.0,0.0,0.0,0.0,0.0,0.0,0.0,0.0,0.0,0.2079,0.2952,0.0968,0.2272,0.3232,0.2743,0.2455,0.2051,0.1352,0.117,0.0805,0.0063,-0.0502,-0.1072,-0.1596,-0.1915,-0.185,-0.1277,-0.1595,-0.2688,-0.4621,-0.4984,-0.8753,-1.587,-1.8558,-2.2306,-2.6898,-2.9557,-3.0769,0.0,-3.0761,-3.0247,-2.935,-2.8549,-2.7694,0.0,0.0,0.0,0.0,0.0,-2.5693,-2.5701,0.0,0.0,0.0,0.0,0.0,0.0,0.0,0.0,0.0,0.0,0.0,1.8246,1.953,1.9848,2.0361,2.1368,2.2133,2.2935,0.0,0.0,0.0,2.0284,1.8256,1.5095,1.0543,0.4628,-0.1827,-0.8692,-1.2313,-1.6597,-2.1348,-2.0701,-2.0732,-2.1339,-2.1276,-2.115,-2.1086,-2.1086,-2.0958,-2.0679,-2.0628,-2.0828,-2.115,-2.0975,-2.0991,-2.0991,-2.0613,-2.0761,-2.1071,-2.086,0.0,0.0,0.0,0.0,0.0,0.0,0.0,0.0,0.0,0.0,0.0,0.0,0.0,0.0,0.0,0.0,0.0,0.0,0.0,0.0,0.0,0.0,0.0,0.0,-0.1877,-0.0236,-0.4935,-0.1551,0.1413,0.1512,0.1534,0.111,0.0122,0.0247,0.0126,-0.0517,-0.1532,-0.2256,-0.2614,0.0,0.0,0.0,0.0,-0.6395,-1.0151,-1.0845,-1.517,-2.3044,-2.3531,-2.5942,-2.9931,-3.0443,-3.0703,-3.0683,-3.0698,-3.0185,-2.9329,-2.8559,-2.7712,-2.6817,-2.6005,-2.5702,-2.5702,-2.5705,-2.5693,0.0,0.0,0.0,0.0,0.0,0.0,0.0,0.0,0.0,0.0,1.612,1.6621,1.7518,1.9354,1.9566,2.0039,2.1178,2.1927,2.2716,0.0,0.0,2.2084,2.0717,1.8081,1.4198,0.8891,0.3907,-0.1925,-0.8687,-1.2396,-1.579,-1.8841,-1.9844,-2.0618,-2.115,-2.0878,-2.0795,-2.0811,-2.0258,-1.998,-1.9889,-1.9566,-1.9803,-2.0342,-2.0426,-2.0273,-2.01,-2.0392,-2.0444,-2.0429,-2.0728,-2.0745,-2.0828,-2.1509,0.0,0.0,0.0,0.0,0.0,0.0,0.0,0.0,0.0,0.0,0.0,0.0,0.0,0.0,0.0,0.0,0.0,0.0,0.0,0.0,-1.1417,-1.0356,-0.9009,-0.854,-0.8217,-0.7378,-0.5715,-0.2365,-0.224,-0.7331,-0.4552,-0.2526,-0.2874,-0.6302,-0.7671,-0.5948,-1.1142,0.0,-1.028,-1.2252,-1.3712,-1.4502,-1.4634,-1.5903,-1.8259,0.0,0.0,-2.5249,-2.893,-3.0625,-3.0615,-3.0614,-3.0129,-2.9314,-2.92,-2.826,-2.6821,-2.6008,-2.5699,-2.5703,-2.5698,-2.5665,-2.5629,0.0,0.0,0.0,0.0,0.0,0.0,0.0,0.0,0.0,0.0,1.5203,1.5868,1.7624,1.8359,1.8972,1.9596,2.0972,0.0,0.0,2.2213,2.0673,1.8251,1.5541,1.162,0.6374,0.0144,-0.5182,-0.9525,-1.4023,-1.7116,-1.8847,-1.9379,-2.0008,-2.078,-2.0545,-2.0342,-2.012,-1.9818,-1.9581,-1.9398,-1.9176,-1.9273,-1.9536,-1.9818,-1.9975,-2.0061,-2.0115,-2.041,-2.0697,-2.0646,-2.0778,-2.1071,-2.1661,-2.1265,-2.0328,0.0,0.0,0.0,0.0,0.0,0.0,0.0,0.0,0.0,0.0,0.0,0.0,0.0,0.0,-0.759,0.0,0.0,-0.993,-1.3742,-1.2277,-1.1309,-1.3221,-1.1846,-0.9507,-0.6542,-0.469,-0.482,-0.7629,-0.611,-0.5002,-0.5218,-0.7714,-0.8854,-0.7932,-1.2565,-1.4521,-1.2856,-1.5187,-1.725,-1.8987,-1.9212,-2.0467,-2.2832,-2.5336,-2.6677,-2.6976,-2.9307,-3.0352,-3.0352,-3.0411,-2.9959,-2.9109,-2.8753,-2.8152,-2.7362,-2.6539,-2.5999,-2.5701,-2.571,-2.5652,-2.5595,0.0,0.0,0.0,0.0,0.0,0.0,0.0,0.0,0.0,0.0,1.4036,1.4405,1.5917,1.7127,1.8029,0.0,0.0,0.0,0.0,2.0379,1.8308,1.5306,1.2073,0.829,0.3811,-0.3331,-0.828,-1.0858,-1.5109,-1.7912,-1.9328,-1.8806,-1.9089,-2.007,-1.998,-1.9747,-1.942,-1.9457,-1.9273,-1.8988,-1.8912,-1.8774,-1.8682,-1.8994,-1.9445,-1.9882,-1.9502,-1.9873,-2.048,-2.0344,-2.0589,-2.1014,-2.1247,-2.0816,-1.9964,-1.8546,-1.7254,0.0,0.0,0.0,0.0,0.0,0.0,0.0,0.0,0.0,-1.0187,-0.9438,-0.9096,-0.8985,-0.9136,-0.9684,-1.1706,-1.6458,-1.4486,-1.3697,-1.7856,-1.5081,-1.1174,-0.7279,-0.7355,-0.7981,-0.848,-0.8134,-0.7981,-0.812,-0.9364,-1.0127,-1.0302,-1.3645,-1.5416,-1.511,-1.7536,-2.0236,-2.3063,-2.3622,-2.5454,-2.8579,-2.9045,-2.9507,-2.9874,-2.9999,-3.0095,-3.0109,-3.0202,-2.9871,-2.919,-2.8357,-2.8086,-2.8141,-2.726,-2.6468,-2.5809,-2.5699,-2.5619,-2.5562,0.0,0.0,0.0,0.0,0.0,0.0,0.0,0.0,0.0,0.0,0.0,0.0,0.0,0.0,0.0,0.0,0.0,0.0,1.9155,1.6192,1.431,1.4016,0.8649,0.4549,0.2123,-0.2928,-0.7955,-1.2878,-1.3279,-1.5207,-1.8422,-1.7639,-1.78,-1.8636,-1.8612,-1.8831,-1.9139,-1.8784,-1.8616,-1.8553,-1.8189,-1.7935,-1.7757,-1.7794,-1.8101,-1.847,-1.8015,-1.7891,-1.8145,-1.9162,-1.9624,-1.9664,-1.9077,-2.0717,-2.2118,-1.8279,0.0,-1.9114,-1.7022,-1.5788,-1.4778,-1.3601,-1.3412,-1.347,0.0,0.0,-1.1722,-1.5219,-1.5183,-1.5586,-1.9155,-2.0085,-2.1216,-2.3732,-2.3714,-2.2817,-2.1272,-2.0399,-1.8305,-1.4038,-1.2379,-1.3317,-1.7811,-1.4648,-1.2319,-1.2461,-1.4979,-1.6138,-1.533,-2.0084,-2.2182,-2.0815,-2.3654,-2.5431,-2.5927,-2.688,-2.7583,-2.8072,-2.8909,-2.9325,-2.938,-2.9804,-3.0052,-3.0109,-3.0122,-3.0119,-3.0074,-2.9166,-2.8848,-2.8887,-2.8019,-2.7113,-2.6266,-2.5719,-2.5473,-2.543,0.0,0.0,0.0,0.0,0.0,0.0,0.0,0.0,0.0,0.0,0.0,0.0,0.0,0.0,0.0,0.0,0.0,0.0,1.6987,1.4773,1.2391,1.0003,0.6834,0.3333,-0.0421,-0.3729,-0.7338,-1.1336,-1.2167,-1.3895,-1.6401,-1.641,-1.7057,-1.8224,-1.8224,-1.8145,-1.7933,-1.7907,-1.768,-1.7338,-1.7529,-1.729,-1.6853,-1.6766,-1.6746,-1.6852,-1.7161,-1.7634,0.0,0.0,-1.8933,-1.9397,-1.9257,-2.0153,-2.0728,-1.8064,-1.7987,0.0,-1.6652,-1.5497,-1.4662,0.0,-1.4064,-1.3899,-1.3464,-1.2888,-1.2782,-1.392,-1.3979,-1.4414,-1.6263,-1.7739,-1.912,0.0,-2.1838,-2.2195,-2.0803,-2.0723,-2.0062,-1.7801,-1.698,-1.6427,-1.6138,-1.4771,-1.3705,-1.3378,-1.5518,-1.6707,-1.6424,-2.0395,-2.2554,-2.2157,-2.4592,-2.5761,-2.548,-2.6273,-2.664,-2.6609,-2.7214,-2.7851,-2.8479,-2.8762,-2.9209,-2.975,-2.9765,-2.9832,-2.9927,-2.9612,-2.9518,-2.944,-2.8134,-2.7363,-2.6886,-2.6256,-2.5704,-2.5274,0.0,0.0,0.0,0.0,0.0,0.0,0.0,0.0,0.0,0.0,0.0,0.0,0.0,0.0,0.0,0.0,0.0,1.4751,1.3925,1.2213,0.9719,0.6442,0.4561,0.1756,-0.2349,-0.4591,-0.71,-0.9857,-1.1326,-1.2892,-1.4609,-1.5045,-1.604,-1.7382,-1.7274,-1.7122,-1.705,-1.7229,-1.6957,-1.6422,-1.6909,-1.6626,-1.5877,-1.5924,-1.5799,-1.5684,-1.6084,-1.6839,0.0,-1.7545,-1.8088,-1.8777,-1.8658,-1.9097,-1.9257,-1.719,-1.685,-1.6893,-1.5863,-1.5018,-1.454,-1.4857,-1.4617,-1.4212,-1.3884,-1.38,-1.3594,-1.2988,-1.3161,-1.3572,-1.4034,-1.5622,-1.7108,-1.7893,-1.9526,-2.0427,-1.9759,-1.9909,-1.9861,-1.9152,-1.8994,-1.7707,-1.4684,-1.5189,-1.5486,-1.5001,-1.6178,-1.7088,-1.7628,-2.009,-2.1684,-2.2189,-2.4138,-2.4885,-2.428,-2.513,-2.5501,-2.5415,-2.594,-2.6747,-2.7741,-2.8188,-2.875,-2.9394,-2.9397,-2.9456,-2.9589,-2.9644,-2.9697,-2.9599,-2.8212,-2.7497,-2.7157,-2.6441,-2.5715,-2.5096,0.0,0.0,0.0,0.0,0.0,0.0,0.0,0.0,0.0,0.0,0.0,0.0,0.0,0.0,0.0,0.0,0.0,1.0639,0.9377,0.7059,0.53,0.424,0.1148,-0.1323,-0.3037,-0.5241,-0.7393,-0.9497,-1.0605,-1.1969,-1.3538,-1.3585,-1.4321,-1.5664,-1.5116,-1.5672,-1.6918,-1.6918,-1.661,-1.6149,-1.6257,-1.5745,-1.4889,-1.5353,-1.5489,-1.5284,-1.4423,0.0,-1.5691,-1.6335,-1.6987,-1.7365,-1.626,-1.7477,0.0,-1.5284,-1.4815,-1.5312,-1.5064,-1.482,-1.4744,-1.5327,-1.4983,-1.4549,-1.4812,-1.449,-1.4305,-1.465,-1.5012,-1.5554,-1.6569,-1.7611,-1.853,-1.9153,-1.9725,-1.9889,-1.9216,-1.8776,-1.83,-1.7579,-1.7126,-1.6839,0.0,-1.7921,-1.8746,-1.8661,-1.8302,-1.8709,-2.0169,-2.059,-2.094,-2.1437,-2.2989,-2.3577,-2.2965,-2.4266,-2.4942,-2.4942,-2.5796,-2.6587,-2.7347,-2.853,-2.9086,-2.9107,-2.9107,-2.9193,-2.9299,-2.9172,-2.9214,-2.9245,-2.8406,-2.7567,-2.671,-2.5913,-2.5265,-2.4804,0.0,0.0,0.0,0.0,0.0,0.0,0.0,0.0,0.0,0.0,0.0,0.0,0.0,0.0,0.0,0.0,0.0,0.8272,0.6159,0.5132,0.3678,0.1598,-0.0442,-0.1883,-0.2601,-0.5132,-0.7047,-0.8416,-0.92,-1.0426,-1.1994,-1.1994,-1.2754,-1.4182,-1.3721,-1.3905,-1.4534,-1.4678,-1.4482,-1.4152,-1.5155,-1.503,-1.4302,-1.5325,-1.5334,-1.4794,0.0,-1.514,-1.5753,-1.5617,-1.6165,-1.6801,-1.6133,-1.6475,-1.6766,-1.505,-1.4551,-1.4651,-1.5114,-1.4853,-1.454,-1.4914,-1.4617,-1.4212,-1.3978,-1.3847,-1.3794,-1.3845,-1.3978,-1.4487,-1.5759,-1.6429,-1.7185,-1.8389,-1.9072,-1.9364,-1.9077,-1.9467,-1.9367,-1.8338,-1.8373,0.0,0.0,0.0,0.0,-1.7921,-1.868,-1.9688,-2.0876,-2.1774,-2.2463,-2.3029,-2.3562,-2.3798,-2.362,-2.4238,-2.4548,-2.4533,-2.5757,-2.6455,-2.6736,-2.8031,-2.8676,-2.8773,-2.8773,-2.8539,-2.8184,-2.8227,-2.8227,-2.8117,-2.6854,-2.6483,-2.6493,-2.5111,-2.445,-2.4301,0.0,0.0,0.0,0.0,0.0,0.0,0.0,0.0,0.0,0.0,0.0,0.0,0.0,0.0,0.0,0.0,0.0,0.0,0.3273,0.2443,0.1096,-0.0886,-0.2208,-0.3306,-0.4078,-0.5896,-0.7326,-0.8296,-0.8922,-0.9806,-1.0931,-1.0973,-1.1706,-1.2956,-1.251,-1.264,-1.3222,-1.3401,-1.3222,-1.2943,-1.4079,-1.4187,-1.3841,-1.5203,-1.544,0.0,-1.5438,-1.5773,-1.5977,-1.5491,-1.5769,-1.6304,-1.5989,-1.5615,-1.5126,-1.4387,-1.4173,-1.4281,-1.4857,-1.4662,-1.4362,-1.4622,-1.427,-1.3859,-1.3703,-1.3494,-1.3382,-1.3372,-1.3557,-1.4047,-1.5341,-1.5886,-1.6577,-1.7984,-1.8506,-1.8794,-1.8922,-1.9424,-1.9562,-1.8967,-1.9159,-1.9242,0.0,0.0,0.0,-1.791,-1.9275,-2.0309,-2.0904,-2.2444,-2.344,-2.3689,-2.4291,-2.4519,-2.4352,-2.4726,-2.4972,-2.5041,-2.5983,-2.6478,-2.6619,-2.7522,-2.811,-2.837,-2.8317,-2.8108,-2.7804,-2.7614,-2.7464,-2.7242,-2.5868,-2.5575,-2.5758,-2.4488,-2.3976,-2.3958,0.0,0.0,0.0,0.0,0.0,0.0,0.0,0.0,0.0,0.0,0.0,0.0,0.0,0.0,0.0,0.0,0.0,0.0,0.0611,-0.0939,-0.2259,-0.3094,-0.4162,-0.5466,-0.6999,-0.7534,-0.8171,-0.8974,-0.9651,-1.0131,-1.0344,-1.0498,-1.1082,-1.1917,-1.1479,-1.1933,-1.3015,-1.303,-1.2854,-1.2623,-1.3094,-1.3325,-1.3524,-1.5009,-1.5772,-1.607,-1.6475,-1.6489,-1.6232,-1.5835,-1.576,-1.5811,-1.5652,-1.4842,-1.3877,-1.3352,-1.3592,-1.4099,-1.4247,-1.4182,-1.4168,-1.4444,-1.3912,-1.3416,-1.3912,-1.3451,-1.3017,-1.3372,-1.3742,-1.4341,0.0,-1.5985,-1.6669,-1.7939,-1.8068,-1.818,-1.8727,-1.8756,-1.8849,0.0,0.0,0.0,0.0,0.0,0.0,-1.8731,0.0,-2.0734,-2.0519,-2.2635,-2.373,-2.3398,-2.5018,-2.5631,-2.5102,-2.5615,-2.6062,-2.6318,-2.6436,-2.6629,-2.6958,-2.7096,-2.7422,-2.7926,-2.7829,-2.7915,-2.8049,-2.7352,-2.697,-2.6659,-2.5463,-2.4874,-2.4669,-2.4053,-2.381,-2.3795,0.0,0.0,0.0,0.0,0.0,0.0,0.0,0.0,0.0,0.0,0.0,0.0,0.0,0.0,0.0,0.0,0.0,0.0,-0.1387,-0.2268,-0.3094,-0.3765,-0.5429,-0.6406,-0.6401,-0.8106,-0.8862,-0.8725,-0.9347,-0.9718,-0.9821,-1.0241,-1.0647,-1.0981,-1.0921,-1.1286,-1.1902,-1.1929,-1.1963,-1.2139,-1.2854,-1.356,-1.4284,-1.5128,-1.5819,-1.643,-1.6825,-1.6685,-1.6223,-1.5734,-1.5326,-1.4929,-1.4553,-1.4062,-1.3576,-1.3224,-1.3453,-1.3793,-1.3772,-1.3752,-1.3726,-1.3707,-1.3419,-1.3135,-1.3185,-1.3329,-1.3478,-1.3789,-1.3931,-1.4302,-1.5234,-1.5395,-1.587,-1.735,-1.7677,0.0,-1.8996,-1.9336,0.0,-1.9658,0.0,-2.0292,-2.0292,-2.065,0.0,0.0,-2.0556,-2.1165,-2.1823,-2.3043,-2.3905,-2.4462,-2.523,-2.5807,-2.6022,-2.6104,-2.5924,-2.5538,-2.6556,-2.6848,-2.649,-2.7311,-2.7499,-2.7206,-2.7504,-2.7356,-2.6834,-2.6753,-2.6727,-2.6576,-2.5116,-2.4882,-2.529,-2.4508,-2.3916,-2.3593,0.0,0.0,0.0,0.0,0.0,0.0,0.0,0.0,0.0,0.0,0.0,0.0,0.0,0.0,0.0,0.0,0.0,0.0,0.0,-0.4039,-0.486,-0.5571,-0.7127,-0.7835,-0.7534,-0.8856,-0.9392,-0.904,0.0,0.0,-0.9777,-1.0146,-1.0351,-1.0376,-1.0681,-1.0875,-1.1016,-1.1473,-1.1871,0.0,0.0,-1.4643,-1.5563,-1.6745,-1.742,-1.7766,-1.7988,-1.7245,-1.6066,-1.5256,-1.4798,-1.4475,-1.3851,-1.3547,-1.3367,-1.3146,-1.3448,-1.3852,-1.3872,-1.4094,-1.425,-1.3912,-1.3781,-1.3691,-1.3402,-1.3389,-1.3515,-1.3752,-1.3978,-1.4258,-1.4915,-1.5153,-1.5636,0.0,0.0,0.0,-1.8645,-1.916,-1.9667,0.0,-2.0532,0.0,-2.1052,-2.1342,-2.1331,0.0,-2.1281,-2.1631,-2.1934,-2.2915,-2.367,-2.4195,-2.5177,-2.6097,-2.6937,-2.6856,-2.6532,-2.6001,-2.6507,-2.6493,-2.6102,-2.6578,-2.6771,-2.674,0.0,-2.7113,-2.6829,-2.6568,-2.6463,-2.633,-2.5323,-2.4909,-2.4848,-2.4504,-2.3894,-2.3318,0.0,0.0,0.0,0.0,0.0,0.0,0.0,0.0,0.0,0.0,0.0,0.0,0.0,0.0,0.0,0.0,0.0,0.0,0.0,0.0,0.0,0.0,-0.8817,-0.9413,0.0,0.0,0.0,0.0,0.0,0.0,0.0,0.0,-1.0387,-1.012,-1.0799,-1.0946,-1.0722,-1.184,-1.2536,-1.3047,-1.4966,-1.6216,-1.7116,0.0,0.0,0.0,-1.8926,-1.7495,-1.5617,-1.4569,-1.4209,-1.41,-1.3431,-1.3206,-1.3181,-1.301,-1.3377,-1.3813,-1.3921,-1.4502,-1.4903,-1.4397,-1.442,-1.4375,-1.4003,-1.3599,-1.3409,-1.3658,0.0,-1.4408,-1.4709,-1.5142,-1.5678,-1.6278,0.0,-1.752,-1.8172,-1.8654,-1.9395,-2.0584,-2.0779,-2.1034,-2.1569,-2.1691,-2.168,-2.1572,-2.1994,-2.2054,-2.1536,-2.2536,-2.3238,-2.3345,-2.4886,-2.6208,-2.7305,-2.7445,-2.7259,-2.6836,-2.6335,-2.5968,-2.5696,-2.5528,-2.577,-2.6351,0.0,0.0,-2.7289,-2.6645,-2.6325,-2.6178,-2.581,-2.5092,-2.4301,-2.4462,-2.3971,-2.3228,0.0,0.0,0.0,0.0,0.0,0.0,0.0,0.0,0.0,0.0,-0.0629,-0.1214,0.0,0.0,0.0,0.0,0.0,0.0,0.0,0.0,0.0,0.0,-0.9681,-1.0541,0.0,0.0,0.0,0.0,0.0,0.0,0.0,0.0,0.0,0.0,0.0,0.0,-1.2531,-1.3852,-1.4601,-1.5131,-1.688,-1.7942,-1.866,0.0,0.0,0.0,-1.695,-1.5554,-1.443,-1.3967,-1.3582,-1.3313,-1.3172,-1.2955,-1.2647,-1.2347,-1.2491,-1.2768,-1.2791,-1.3159,-1.3648,-1.4097,-1.4096,-1.4013,-1.3912,-1.4039,0.0,0.0,-1.4547,-1.4971,-1.5006,-1.521,-1.5566,-1.6278,-1.6597,-1.7147,-1.8374,-1.8594,-1.9111,0.0,-2.0716,-2.1194,0.0,0.0,0.0,0.0,0.0,0.0,-2.2065,-2.2281,-2.276,-2.3623,-2.474,-2.5482,-2.5801,-2.6546,-2.663,-2.5998,-2.6578,-2.6245,-2.5144,-2.5545,-2.5695,-2.5631,0.0,0.0,-2.6975,-2.6903,-2.6899,-2.686,-2.6212,-2.5863,-2.5742,-2.5754,-2.4958,-2.3928,0.0,0.0,0.0,0.0,0.0,0.0,0.0,-0.2042,-0.2566,-0.2693,-0.3765,-0.3735,-0.1647,-0.3239,-0.4492,0.0,0.0,0.0,0.0,0.0,0.0,0.0,0.0,0.0,0.0,0.0,0.0,0.0,0.0,0.0,0.0,0.0,0.0,0.0,0.0,0.0,0.0,0.0,0.0,0.0,0.0,0.0,0.0,0.0,0.0,0.0,0.0,-1.4967,-1.3968,-1.3331,-1.2779,-1.2424,-1.2575,-1.2397,-1.2147,-1.2116,-1.2351,-1.2647,-1.2654,-1.305,-1.3525,-1.3541,-1.3719,-1.3805,-1.365,0.0,0.0,0.0,-1.4501,-1.4834,-1.4743,-1.5165,0.0,-1.5889,-1.6438,-1.6998,-1.7592,-1.8203,0.0,-1.9809,-2.0402,-2.1057,0.0,0.0,0.0,0.0,0.0,0.0,-2.2007,-2.1983,-2.2431,-2.3341,-2.4132,-2.4982,-2.5901,-2.6045,-2.5961,-2.5693,-2.571,-2.5274,-2.4409,-2.4874,-2.5178,-2.5406,-2.5941,0.0,-2.6893,-2.6926,-2.699,-2.7051,-2.6661,-2.6347,-2.6057,-2.5618,-2.5074,-2.4521,0.0,0.0,0.0,0.0,0.0,0.0,0.0,-0.414,-0.5024,-0.6349,-0.7799,-0.7321,-0.3842,-0.576,-0.7007,0.0,0.0,0.0,0.0,0.0,0.0,0.0,0.0,0.0,0.0,0.0,0.0,0.0,0.0,0.0,0.0,0.0,0.0,0.0,0.0,0.0,0.0,0.0,0.0,0.0,0.0,0.0,0.0,0.0,0.0,0.0,0.0,-1.4258,-1.3185,-1.2638,-1.2039,-1.1519,-1.1832,-1.1801,-1.1669,-1.1877,-1.2241,-1.2579,-1.2615,-1.3058,-1.345,-1.3137,-1.3423,-1.3695,-1.3491,-1.3693,0.0,-1.3978,-1.4362,-1.4605,-1.4466,-1.5108,-1.5659,0.0,-1.623,-1.6773,-1.6916,-1.7724,-1.861,0.0,-1.9992,0.0,0.0,0.0,0.0,0.0,0.0,0.0,-2.1761,-2.1689,-2.207,-2.3022,-2.3382,-2.4305,-2.5897,-2.5408,-2.525,-2.5359,-2.4836,-2.4283,-2.3782,-2.4116,-2.4608,-2.5198,-2.5668,0.0,0.0,-2.6809,-2.6925,-2.7038,-2.7007,-2.6713,-2.6234,-2.5433,-2.5188,-2.5126,0.0,0.0,0.0,0.0,0.0,0.0,0.0,-0.9007,-1.0309,-1.1924,-1.2687,-1.2586,-1.1267,-1.0106,-0.943,0.0,0.0,0.0,0.0,0.0,0.0,0.0,0.0,0.0,0.0,0.0,0.0,0.0,0.0,0.0,0.0,0.0,0.0,0.0,0.0,0.0,0.0,0.0,0.0,0.0,0.0,0.0,0.0,0.0,0.0,0.0,0.0,-1.2211,-1.1157,-1.1864,0.0,-1.0753,-1.0964,-1.1267,-1.1528,-1.1427,0.0,0.0,-1.2011,-1.233,-1.2714,-1.3098,-1.3386,-1.3603,-1.3669,0.0,-1.3716,-1.3931,-1.4294,-1.4514,-1.4501,-1.5051,-1.5603,-1.5913,-1.5917,-1.6256,-1.721,-1.736,-1.7763,-1.892,0.0,0.0,0.0,0.0,0.0,0.0,0.0,0.0,0.0,-2.1368,-2.1723,-2.2783,-2.2562,-2.3048,-2.43,-2.4349,-2.4473,-2.461,-2.4566,-2.4209,-2.3595,-2.3782,-2.409,-2.4511,0.0,0.0,0.0,-2.6556,-2.6792,-2.6926,-2.6926,-2.6956,-2.6897,-2.6158,-2.5945,-2.5902,0.0,0.0,0.0,0.0,0.0,0.0,-1.11,-1.1583,-1.2113,-1.2828,-1.3816,-1.4316,-1.4,-1.4131,-1.3744,-1.2413,0.0,0.0,0.0,0.0,0.0,0.0,0.0,0.0,0.0,0.0,0.0,0.0,0.0,0.0,0.0,0.0,0.0,0.0,0.0,0.0,0.0,0.0,0.0,0.0,0.0,0.0,0.0,0.0,0.0,0.0,0.0,0.0,-1.1099,-1.104,-1.1049,-1.1065,-1.1318,-1.1469,-1.1578,0.0,-1.1438,-1.1654,-1.1581,-1.1711,-1.1931,-1.2036,-1.2303,-1.2615,-1.2764,0.0,-1.3208,-1.315,-1.3826,-1.4351,-1.4035,-1.4869,-1.5659,-1.5691,-1.5881,0.0,-1.6527,-1.688,-1.7421,-1.8273,0.0,0.0,0.0,0.0,0.0,0.0,0.0,0.0,0.0,-2.1088,-2.1394,-2.1841,-2.2356,-2.3132,-2.4078,-2.3758,-2.3849,-2.4384,-2.397,-2.3674,-2.3538,-2.3596,-2.3894,-2.443,0.0,0.0,0.0,-2.6104,-2.6383,-2.6555,-2.6725,-2.6892,-2.6937,-2.6104,-2.6199,-2.6616,0.0,0.0,0.0,0.0,0.0,-1.4007,-1.4544,-1.4914,-1.5318,-1.5967,-1.6852,-1.7427,-1.7268,-1.8006,-1.7917,-1.6339,-1.5299,0.0,0.0,0.0,0.0,0.0,0.0,0.0,0.0,0.0,0.0,0.0,0.0,0.0,0.0,0.0,0.0,0.0,0.0,0.0,0.0,0.0,0.0,0.0,0.0,0.0,0.0,0.0,0.0,0.0,0.0,0.0,0.0,0.0,0.0,-1.1276,-1.1578,-1.1678,-1.1678,-1.1427,-1.1413,-1.1486,-1.1321,-1.1372,-1.1391,-1.125,-1.1559,-1.1974,0.0,0.0,-1.2832,-1.2667,-1.3399,-1.3941,-1.3563,-1.4593,-1.5525,-1.5468,-1.5824,-1.6144,-1.6132,-1.6507,-1.7053,0.0,0.0,0.0,0.0,0.0,0.0,0.0,0.0,0.0,0.0,-2.0795,-2.1286,-2.1431,-2.2016,-2.2769,-2.3722,-2.324,-2.333,-2.3952,-2.3466,-2.3334,-2.3466,-2.3466,-2.3696,-2.4158,0.0,0.0,0.0,-2.5631,-2.5977,-2.6243,-2.6436,-2.6708,-2.6856,-2.6009,-2.6292,-2.6982,0.0,0.0,0.0,0.0,0.0,0.0,-1.8474,-1.9626,-2.107,-2.3112,-2.3374,-2.3098,-2.2243,-2.1728,-2.1467,-2.1517,-1.9509,0.0,0.0,0.0,0.0,0.0,0.0,0.0,0.0,0.0,0.0,-1.9774,-2.0147,0.0,0.0,0.0,0.0,0.0,0.0,0.0,0.0,0.0,0.0,0.0,0.0,0.0,0.0,0.0,0.0,0.0,0.0,0.0,0.0,0.0,0.0,0.0,0.0,-1.1569,-1.1669,-1.1528,-1.1427,-1.1311,-1.1308,-1.1301,-1.1247,-1.0979,-1.1506,-1.2078,0.0,-1.2246,-1.2569,-1.2774,-1.3016,-1.3208,-1.3218,-1.4258,-1.5142,-1.5266,-1.5724,-1.6076,-1.6349,-1.6405,0.0,0.0,0.0,0.0,0.0,0.0,0.0,0.0,0.0,0.0,0.0,0.0,-2.1431,-2.1983,-2.1348,-2.1589,-2.2809,-2.2809,-2.2931,-2.3097,-2.3097,-2.3157,-2.3319,-2.3319,-2.3363,0.0,0.0,0.0,0.0,-2.5121,-2.5631,-2.6013,-2.6068,-2.6453,-2.6791,-2.5976,-2.6292,-2.6982,0.0,0.0,0.0,0.0,0.0,0.0,0.0,-2.3275,-2.3631,-2.4304,-2.4414,-2.4288,-2.3989,-2.3826,-2.4036,-2.4671,-2.1867,0.0,0.0,0.0,0.0,0.0,0.0,0.0,0.0,0.0,-2.1222,-2.1368,-2.1414,-2.2002,-2.3106,0.0,0.0,0.0,0.0,0.0,0.0,0.0,0.0,0.0,0.0,0.0,0.0,0.0,0.0,0.0,0.0,0.0,0.0,0.0,0.0,0.0,0.0,0.0,0.0,-1.1778,-1.1528,-1.1293,-1.1311,-1.1293,-1.1293,-1.1293,-1.155,-1.182,-1.1787,-1.1968,-1.2116,-1.2304,-1.2735,-1.3112,-1.317,-1.3884,-1.4593,-1.4949,-1.5311,-1.5635,0.0,0.0,0.0,0.0,0.0,0.0,0.0,0.0,0.0,0.0,0.0,0.0,0.0,0.0,-2.0359,-2.1431,-2.2016,-2.2463,-2.2857,-2.2857,-2.2902,-2.2947,-2.2947,-2.3037,-2.3171,-2.3171,0.0,0.0,0.0,0.0,0.0,-2.4471,-2.5005,-2.5481,-2.5888,-2.6314,-2.6691,-2.6437,-2.6638,-2.694,0.0,0.0,0.0,0.0,0.0,0.0,0.0,-2.5731,-2.5696,-2.5866,-2.5832,-2.5832,-2.5763,-2.5763,-2.595,-2.6377,-2.4397,0.0,0.0,0.0,0.0,0.0,0.0,0.0,0.0,-2.3213,-2.3241,-2.3353,-2.3336,-2.3821,-2.4766,-2.4486,-2.4122,0.0,0.0,0.0,0.0,0.0,0.0,0.0,0.0,0.0,-1.1216,0.0,0.0,0.0,0.0,0.0,0.0,0.0,0.0,0.0,0.0,0.0,0.0,0.0,-1.1743,-1.1528,-1.1427,-1.1377,-1.1427,-1.1477,-1.1628,0.0,-1.1778,-1.1877,-1.1977,-1.2076,-1.2461,-1.2842,-1.2939,-1.3515,-1.4129,-1.4582,-1.504,-1.5445,0.0,0.0,0.0,0.0,0.0,0.0,0.0,0.0,0.0,0.0,0.0,0.0,0.0,0.0,-2.0055,-2.1091,-2.1718,-2.2217,-2.2555,-2.2706,-2.2797,-2.2888,-2.2888,-2.2947,-2.3037,-2.3037,0.0,0.0,0.0,0.0,0.0,-2.3733,-2.4257,-2.4792,-2.5607,-2.6189,-2.6572,-2.6623,-2.6725,-2.6842,0.0,0.0,0.0,0.0,0.0,0.0,0.0,-2.7331,-2.7344,-2.7772,-2.7708,-2.7621,-2.7566,-2.7542,-2.7414,-2.7073,0.0,0.0,0.0,0.0,0.0,0.0,0.0,0.0,0.0,-2.5756,-2.5662,-2.5364,-2.5586,-2.5663,-2.5585,-2.5365,-2.4379,-2.2764,-2.2175,0.0,0.0,0.0,0.0,0.0,0.0,0.0,0.0,0.0,0.0,0.0,0.0,0.0,0.0,0.0,0.0,0.0,0.0,0.0,0.0,0.0,0.0,0.0,0.0,-1.1528,-1.1528,-1.1519,-1.1728,-1.1927,-1.1927,-1.2026,0.0,-1.2126,-1.2323,-1.248,-1.2529,-1.3045,-1.3705,-1.4165,-1.4801,-1.5445,0.0,0.0,0.0,0.0,0.0,0.0,0.0,0.0,0.0,0.0,0.0,0.0,0.0,0.0,0.0,-2.0713,-2.0529,-2.0975,-2.2044,-2.2417,-2.2706,-2.2888,-2.2844,-2.283,-2.2815,-2.2786,0.0,0.0,0.0,0.0,0.0,-2.298,-2.3475,-2.3978,-2.522,-2.5966,-2.6334,-2.6421,-2.6539,-2.6623,0.0,0.0,0.0,0.0,0.0,0.0,0.0,0.0,0.0,0.0,-2.9061,-2.903,-2.9008,-2.9016,-2.9089,0.0,0.0,0.0,0.0,0.0,0.0,0.0,0.0,0.0,0.0,-2.6265,-2.5612,-2.5082,-2.5505,-2.5313,-2.4562,-2.4703,-2.3663,-2.1633,-2.0533,0.0,0.0,0.0,0.0,0.0,0.0,0.0,0.0,0.0,0.0,0.0,-0.9296,-0.993,0.0,0.0,0.0,0.0,0.0,0.0,0.0,0.0,-1.2348,-1.2059,-1.1858,0.0,-1.1927,-1.1828,-1.1927,-1.2076,0.0,-1.2076,-1.2126,-1.2224,-1.2274,-1.2431,-1.2627,-1.2774,-1.3104,-1.3658,-1.4294,-1.488,0.0,0.0,0.0,0.0,0.0,0.0,0.0,0.0,0.0,0.0,0.0,0.0,0.0,0.0,0.0,-1.8385,-1.8722,-2.004,-2.2463,-2.2555,-2.2675,-2.2841,-2.2277,-2.212,-2.2193,-2.1685,0.0,0.0,0.0,0.0,-2.2049,-2.2501,-2.2975,-2.3426,-2.3816,-2.4278,-2.4663,-2.4858,-2.5292,-2.5797,0.0,0.0,0.0,0.0,0.0,0.0,0.0,0.0,0.0,0.0,0.0,-2.9737,-2.9729,-2.973,0.0,0.0,0.0,0.0,0.0,0.0,0.0,0.0,0.0,0.0,-2.8145,-2.7236,-2.672,-2.6616,-2.5914,-2.5368,-2.4998,-2.4469,-2.304,-2.0745,-1.8403,0.0,0.0,0.0,0.0,0.0,-0.9869,0.0,0.0,0.0,0.0,0.0,-1.0163,-1.0587,0.0,-1.176,-1.252,-1.3199,0.0,0.0,0.0,0.0,-1.2806,-1.2366,-1.2202,-1.2113,-1.1977,-1.1927,-1.1977,-1.2076,-1.2076,-1.2076,-1.2126,-1.2175,-1.2332,-1.2431,-1.2578,-1.2861,-1.3238,-1.3573,-1.4294,0.0,0.0,0.0,0.0,0.0,0.0,0.0,0.0,0.0,0.0,0.0,0.0,0.0,0.0,0.0,-1.7557,-1.7869,-1.8389,-1.9449,-2.1105,-2.1608,-2.1908,-2.1917,-2.1845,-2.1657,-2.1369,-2.1121,0.0,0.0,0.0,0.0,-2.1379,-2.1926,-2.2378,-2.2792,-2.342,-2.3836,-2.4081,-2.4242,-2.4775,-2.5463,0.0,0.0,0.0,0.0,0.0,0.0,0.0,0.0,0.0,0.0,0.0,0.0,0.0,0.0,0.0,0.0,0.0,0.0,0.0,0.0,0.0,0.0,0.0,-2.9673,-2.904,-2.8183,-2.7897,-2.8242,-2.6432,-2.5586,-2.5681,-2.4305,-2.2379,-1.9885,-1.659,-1.4738,0.0,0.0,0.0,0.0,-1.0235,0.0,0.0,0.0,0.0,0.0,0.0,0.0,0.0,-1.2455,-1.305,-1.345,-1.345,0.0,0.0,0.0,0.0,0.0,-1.2595,-1.2313,-1.205,-1.1936,-1.2072,-1.2199,-1.2094,-1.2076,-1.2076,-1.2076,-1.2274,-1.248,-1.2569,-1.3045,0.0,0.0,0.0,0.0,0.0,0.0,0.0,0.0,0.0,0.0,0.0,0.0,0.0,0.0,0.0,0.0,0.0,0.0,0.0,-1.7903,-1.8364,-1.8758,-1.9162,-2.034,-2.0908,-2.088,-2.1312,-2.1197,-2.0597,-2.0688,0.0,0.0,0.0,0.0,-2.0617,-2.1303,-2.1752,-2.215,-2.3243,-2.3669,-2.3701,-2.3796,-2.4344,-2.5095,0.0,0.0,0.0,0.0,0.0,0.0,0.0,0.0,0.0,0.0,0.0,0.0,0.0,0.0,0.0,0.0,0.0,0.0,0.0,0.0,0.0,0.0,-2.9685,-2.9283,-2.9162,-2.8051,-2.733,-2.7047,-2.6448,-2.5514,-2.4302,-2.3548,-2.1634,-1.8769,-1.6973,-1.5618,-1.4611,-1.3922,-1.305,-1.2159,-1.1492,0.0,0.0,0.0,0.0,0.0,0.0,0.0,0.0,-1.3254,-1.3768,-1.4327,-1.4327,0.0,0.0,0.0,0.0,0.0,-1.2794,-1.272,-1.2651,-1.2159,-1.2333,-1.254,-1.2199,-1.2076,-1.2076,-1.2076,-1.2126,-1.2363,-1.2977,-1.2852,-1.2852,0.0,0.0,0.0,0.0,0.0,0.0,0.0,0.0,0.0,0.0,0.0,0.0,0.0,0.0,0.0,0.0,0.0,0.0,-1.6773,-1.6934,-1.7434,-1.8221,-1.9782,-2.0614,-2.074,-2.0352,-2.0215,-2.0179,-1.9653,-1.9444,0.0,0.0,-1.9912,-2.0142,-2.0754,-2.115,-2.1407,-2.1882,-2.2085,-2.2159,-2.2232,-2.2728,-2.3562,0.0,0.0,0.0,0.0,0.0,0.0,0.0,0.0,0.0,0.0,0.0,0.0,0.0,0.0,0.0,0.0,0.0,0.0,0.0,0.0,0.0,-3.026,-2.958,-2.9196,-2.9198,-2.8114,-2.7418,-2.7107,-2.5586,-2.4603,-2.4103,-2.238,-2.0801,-1.9384,-1.7221,-1.5964,-1.545,-1.4261,-1.3522,-1.3029,0.0,0.0,0.0,0.0,0.0,0.0,0.0,0.0,0.0,0.0,-1.4198,-1.4396,-1.4455,0.0,0.0,0.0,0.0,0.0,-1.3103,-1.289,-1.2674,-1.2227,-1.2364,-1.2557,-1.237,-1.2323,-1.2323,-1.2323,-1.2372,-1.2618,0.0,0.0,-1.3789,-1.4755,0.0,0.0,0.0,0.0,0.0,0.0,0.0,0.0,0.0,0.0,0.0,0.0,0.0,0.0,0.0,0.0,0.0,0.0,-1.668,-1.7144,-1.7557,-1.8916,-1.9589,-1.9603,-1.9727,-1.9609,-1.9333,-1.917,-1.9116,-1.9168,0.0,-1.9747,-2.0189,-2.0597,-2.1023,-2.1495,-2.1678,-2.1768,-2.186,-2.2319,-2.3026,-2.3905,0.0,0.0,0.0,0.0,0.0,0.0,0.0,0.0,0.0,0.0,0.0,0.0,0.0,0.0,0.0,0.0,0.0,0.0,0.0,0.0,-2.9884,-2.9966,-2.9302,-2.8988,-2.9158,-2.8233,-2.7562,-2.713,-2.501,-2.3786,-2.3396,-2.1343,-2.0181,-1.9722,-1.7501,-1.6518,-1.6461,-1.4777,-1.4127,-1.4236,0.0,0.0,0.0,0.0,0.0,0.0,0.0,0.0,0.0,0.0,0.0,0.0,0.0,0.0,0.0,-1.4902,-1.4383,-1.3789,-1.3577,-1.324,-1.2777,-1.2277,-1.2348,-1.2544,-1.245,-1.2421,-1.248,-1.248,-1.2676,0.0,0.0,-1.3884,0.0,0.0,0.0,0.0,0.0,0.0,0.0,0.0,0.0,0.0,0.0,0.0,0.0,0.0,0.0,0.0,0.0,0.0,0.0,0.0,-1.665,-1.7157,-1.7365,-1.8147,-1.8606,-1.8711,-1.9284,-1.9269,-1.8788,-1.9003,-1.9116,-1.913,-1.9302,-1.9732,-2.033,-2.0581,-2.1023,-2.1587,-2.1738,-2.1797,-2.191,-2.267,-2.3427,-2.4202,0.0,0.0,0.0,0.0,0.0,0.0,0.0,0.0,0.0,0.0,0.0,0.0,0.0,0.0,0.0,0.0,0.0,0.0,0.0,0.0,-2.94,-2.9283,-2.85,-2.8385,-2.9008,-2.833,-2.7455,-2.6385,-2.5458,-2.3594,-2.097,-2.0805,-2.0042,-1.8721,-1.8061,-1.7831,-1.7875,-1.6332,-1.6056,-1.6415,-1.4787,0.0,0.0,0.0,0.0,0.0,0.0,0.0,0.0,0.0,0.0,0.0,0.0,0.0,-1.614,-1.6197,-1.5813,-1.5243,-1.4389,-1.3861,-1.3338,-1.2476,-1.2503,-1.2628,-1.2358,-1.2323,-1.2332,-1.248,-1.2852,0.0,0.0,-1.3884,0.0,0.0,0.0,0.0,0.0,0.0,0.0,0.0,0.0,0.0,0.0,0.0,0.0,0.0,0.0,0.0,0.0,0.0,0.0,0.0,0.0,-1.6934,-1.776,-1.7828,-1.8187,-1.8784,-1.9031,-1.9084,-1.8993,-1.9078,-1.925,-1.9457,-1.9603,-1.996,-2.041,-2.073,-2.1023,-2.1261,-2.1587,-2.1738,-2.188,-2.2626,-2.2986,-2.3312,0.0,0.0,0.0,0.0,0.0,0.0,0.0,0.0,0.0,0.0,0.0,0.0,0.0,0.0,0.0,0.0,0.0,0.0,0.0,0.0,-2.9116,-2.9193,-2.8234,-2.7812,-2.8067,-2.729,-2.632,-2.5164,-2.3819,-2.2369,-2.0894,-2.066,-2.0258,-1.9695,-1.8792,-1.8405,-1.8405,-1.7435,-1.7168,-1.7268,-1.6301,-1.5958,0.0,0.0,0.0,0.0,0.0,0.0,0.0,0.0,-1.6083,-1.6312,-1.6312,-1.6312,-1.6249,-1.5925,-1.5577,-1.5068,-1.4409,-1.3951,-1.3565,-1.292,-1.2861,-1.2938,-1.2607,-1.2529,-1.2578,-1.2725,-1.3094,0.0,0.0,0.0,0.0,0.0,0.0,0.0,0.0,0.0,0.0,0.0,0.0,0.0,0.0,0.0,0.0,0.0,0.0,0.0,0.0,0.0,0.0,0.0,0.0,-1.7227,-1.7787,-1.8175,-1.8503,-1.8736,-1.8874,-1.895,-1.8993,-1.9078,-1.9273,-1.9639,-1.969,-2.0065,-2.0646,-2.0844,-2.1071,-2.1355,-2.1587,-2.1738,-2.1814,-2.2096,-2.2853,-2.3781,0.0,0.0,0.0,0.0,0.0,0.0,0.0,0.0,0.0,0.0,0.0,0.0,0.0,0.0,0.0,0.0,0.0,0.0,0.0,-2.8984,-2.8773,-2.879,-2.7855,-2.7299,-2.7238,-2.6301,-2.54,-2.4545,-2.2876,-2.1698,-2.097,-2.0723,-2.0422,-2.0118,-1.9359,-1.898,-1.8939,-1.8081,-1.782,-1.7897,-1.75,-1.7186,0.0,0.0,0.0,0.0,0.0,0.0,0.0,0.0,-1.6708,-1.6877,-1.6877,-1.6877,-1.6791,-1.6331,-1.586,-1.5429,-1.4758,-1.4329,-1.3956,-1.3447,-1.3399,-1.3409,-1.3238,-1.3007,-1.2958,-1.3296,-1.3478,-1.38,-1.4444,0.0,0.0,0.0,0.0,0.0,0.0,0.0,0.0,0.0,0.0,0.0,0.0,0.0,0.0,0.0,0.0,0.0,0.0,0.0,0.0,0.0,0.0,0.0,-1.7787,-1.8214,-1.8503,-1.8711,-1.8736,-1.8851,-1.8941,-1.904,-1.9288,-1.9639,-1.9782,-2.0239,-2.0827,-2.0974,-2.1166,-2.1417,-2.1617,-2.1738,-2.1801,-2.2046,-2.2806,-2.3799,0.0,0.0,0.0,0.0,0.0,0.0,0.0,0.0,0.0,0.0,0.0,0.0,0.0,0.0,0.0,0.0,0.0,0.0,-2.881,-2.8543,-2.8246,-2.7926,-2.7321,-2.6908,-2.6725,-2.554,-2.4784,-2.4583,-2.2995,-2.1779,-2.0993,-2.097,-2.0485,-1.9604,-1.9631,-1.9631,-1.9565,-1.8405,-1.8147,-1.853,-1.8182,-1.7696,-1.7267,0.0,0.0,0.0,0.0,0.0,0.0,0.0,-1.7611,-1.8139,-1.8139,-1.8084,-1.7981,-1.753,-1.7127,-1.6581,-1.5605,-1.5043,-1.4617,-1.4107,-1.4014,-1.4071,-1.4176,-1.3695,-1.3399,-1.4165,-1.3931,-1.3894,-1.4926,0.0,0.0,0.0,0.0,0.0,0.0,0.0,0.0,0.0,0.0,0.0,0.0,0.0,0.0,0.0,0.0,0.0,0.0,0.0,0.0,0.0,0.0,0.0,-1.7787,-1.7787,-1.8095,-1.8711,-1.8711,-1.8736,-1.8822,-1.9026,-1.925,-1.9515,-2.0,-2.0429,-2.0827,-2.1151,-2.134,-2.1417,-2.1617,-2.1694,-2.1807,-2.2595,-2.2891,-2.3154,0.0,0.0,0.0,0.0,0.0,0.0,0.0,0.0,0.0,0.0,0.0,0.0,0.0,0.0,0.0,0.0,0.0,0.0,0.0,-2.8791,-2.8569,-2.8474,-2.7607,-2.7117,-2.7053,-2.5635,-2.4405,-2.3391,-2.2235,-2.1506,-2.1264,-2.0934,-2.0835,-2.0822,-2.0258,-2.0667,-2.168,-2.031,-2.0279,-2.1062,-2.0785,-2.0582,-2.041,0.0,0.0,0.0,0.0,0.0,0.0,0.0,0.0,0.0,-1.9291,-1.8987,-1.8531,-1.8104,-1.7621,-1.7098,-1.6266,-1.6164,-1.6071,-1.4937,0.0,0.0,-1.4915,-1.3978,-1.3409,0.0,-1.4455,-1.4743,-1.5062,0.0,0.0,0.0,0.0,0.0,0.0,0.0,0.0,0.0,0.0,0.0,0.0,0.0,0.0,0.0,0.0,0.0,0.0,0.0,0.0,0.0,0.0,0.0,-1.8307,-1.8386,-1.8503,-1.8711,-1.8841,-1.8917,-1.8941,-1.9017,-1.9398,-2.0,-2.0139,-2.0563,-2.1151,-2.1246,-2.1388,-2.1542,-2.1603,-2.1664,-2.1741,-2.2016,-2.2775,-2.3768,0.0,0.0,0.0,0.0,0.0,0.0,0.0,0.0,0.0,0.0,0.0,0.0,0.0,0.0,0.0,0.0,0.0,0.0,0.0,0.0,-2.8551,-2.8255,-2.7577,-2.6922,-2.6317,-2.5373,-2.4323,-2.3201,-2.2189,-2.1779,-2.1969,-2.1131,-2.1202,-2.2042,-2.1302,-2.1773,-2.3022,-2.2023,-2.1955,-2.2537,-2.2528,-2.238,-2.2146,0.0,0.0,0.0,0.0,0.0,0.0,0.0,0.0,0.0,-2.0257,-1.987,-1.9285,-1.8782,-1.8487,-1.8113,-1.7183,-1.7371,-1.7475,-1.6149,-1.6254,-1.6485,-1.5525,0.0,0.0,0.0,-1.4915,-1.5153,-1.5334,0.0,0.0,0.0,0.0,0.0,0.0,0.0,0.0,0.0,0.0,0.0,0.0,0.0,0.0,0.0,0.0,0.0,0.0,0.0,0.0,0.0,0.0,0.0,-1.8214,-1.8333,-1.8503,-1.8711,-1.8865,-1.8941,-1.8993,-1.9205,-1.9545,-2.0015,-2.0326,-2.0795,-2.134,-2.134,-2.1433,-2.162,-2.165,-2.1664,-2.1724,-2.1768,-2.2361,-2.3204,0.0,0.0,0.0,0.0,0.0,0.0,0.0,0.0,0.0,0.0,0.0,0.0,0.0,0.0,0.0,0.0,0.0,0.0,0.0,0.0,-2.836,-2.7613,-2.7334,-2.6488,-2.4981,-2.4942,-2.4527,-2.3681,-2.268,-2.2434,-2.2976,-2.1574,-2.1754,-2.3237,-2.261,-2.2967,-2.3891,-2.3516,-2.3387,-2.3363,-2.3648,-2.3432,-2.3045,-2.3362,0.0,0.0,0.0,0.0,0.0,0.0,0.0,0.0,-2.116,-2.0888,-2.023,-1.9713,-1.9664,-1.9486,-1.8364,-1.8608,-1.8861,-1.7594,-1.7673,0.0,-1.6093,-1.5844,-1.5836,-1.5513,0.0,-1.5334,0.0,0.0,0.0,0.0,0.0,0.0,0.0,0.0,0.0,0.0,0.0,0.0,0.0,0.0,0.0,0.0,0.0,0.0,0.0,0.0,0.0,0.0,0.0,0.0,-1.7787,-1.8002,-1.8293,0.0,-1.8798,-1.8912,-1.9069,-1.945,-1.969,-1.9782,-2.0512,-2.1071,-2.1417,-2.1417,-2.1495,-2.162,-2.1664,-2.1694,-2.1724,-2.1768,-2.186,-2.2099,0.0,0.0,0.0,0.0,0.0,0.0,0.0,0.0,0.0,0.0,0.0,0.0,0.0,0.0,0.0,0.0,0.0,0.0,0.0,0.0,-2.8626,-2.8299,-2.7595,-2.664,-2.5389,-2.5389,-2.5005,-2.423,-2.3216,-2.3045,-2.3676,-2.2907,-2.3293,-2.4471,-2.3836,-2.434,-2.5575,-2.4543,-2.4569,-2.5324,-2.565,-2.5607,-2.5359,-2.5734,-2.5581,0.0,0.0,0.0,0.0,0.0,0.0,0.0,-2.3158,-2.2256,-2.1059,-2.1021,-2.0799,-2.0378,-1.9621,-1.9939,0.0,-1.8339,-1.7673,-1.7258,-1.6808,-1.6795,-1.6552,-1.5311,-1.5623,0.0,0.0,0.0,0.0,0.0,0.0,0.0,0.0,0.0,0.0,0.0,0.0,0.0,0.0,0.0,0.0,0.0,0.0,0.0,0.0,0.0,0.0,0.0,0.0,-1.772,-1.7787,-1.8293,-1.862,0.0,-1.8889,-1.9168,-1.9545,-1.9265,-1.9508,-2.0139,-2.0877,-2.1325,-2.1542,-2.1433,-2.1526,-2.1694,-2.1694,-2.1694,-2.1724,-2.1768,-2.2337,-2.3076,0.0,0.0,0.0,0.0,0.0,0.0,0.0,0.0,0.0,0.0,0.0,0.0,0.0,0.0,0.0,0.0,0.0,0.0,0.0,0.0,0.0,-2.8128,-2.7365,-2.659,-2.5766,-2.5598,-2.5281,-2.4821,-2.4292,-2.4164,-2.434,-2.3803,-2.4324,-2.5678,-2.5027,-2.5279,-2.6173,-2.5787,-2.5864,-2.6271,-2.6688,-2.6704,-2.6497,-2.6549,-2.6057,-2.5319,-2.487,0.0,0.0,0.0,0.0,0.0,0.0,0.0,-2.2253,-2.2346,-2.2209,-2.1837,-2.1181,-2.1269,0.0,-1.9377,0.0,-1.7733,-1.7462,-1.7598,-1.7475,-1.6269,0.0,0.0,0.0,0.0,0.0,0.0,0.0,0.0,0.0,0.0,0.0,0.0,0.0,0.0,0.0,0.0,0.0,0.0,0.0,0.0,0.0,0.0,0.0,0.0,-1.7144,-1.7598,-1.7787,-1.8175,-1.8528,-1.8784,-1.8941,-1.9242,-1.969,-1.9818,-2.0189,-2.0763,-2.1135,-2.1419,-2.1589,-2.1511,-2.1603,-2.1738,-2.1738,-2.1738,-2.1738,-2.1797,-2.2249,-2.2852,0.0,0.0,0.0,0.0,0.0,0.0,0.0,0.0,0.0,0.0,0.0,0.0,0.0,0.0,0.0,0.0,0.0,0.0,0.0,0.0,0.0,0.0,-2.7068,-2.6556,-2.6054,-2.5877,-2.5718,-2.5559,-2.5792,-2.5656,-2.5258,-2.4752,-2.5334,-2.6752,-2.6262,-2.6212,-2.655,-2.7062,-2.7095,-2.6947,-2.7425,-2.75,-2.727,-2.6942,-2.6089,-2.5093,-2.5239,-2.4951,-2.4697,-2.5693,0.0,0.0,0.0,0.0,-2.3407,-2.3407,-2.3318,-2.3067,-2.2463,-2.2096,-2.1545,-2.0295,-1.9244,0.0,-1.8082,-1.8254,-1.8307,0.0,0.0,0.0,0.0,0.0,0.0,0.0,0.0,0.0,0.0,0.0,0.0,0.0,0.0,0.0,0.0,0.0,0.0,0.0,0.0,0.0,0.0,0.0,-1.6436,-1.6522,-1.6947,-1.7393,-1.7787,-1.8002,-1.8319,-1.8784,-1.9078,-1.9398,-1.9818,-2.0545,-2.1023,-2.1214,-2.1277,-2.1419,-2.1589,-2.1589,-2.1694,-2.1797,-2.1797,-2.1797,-2.1827,-2.184,-2.2039,-2.2341,0.0,0.0,0.0,0.0,0.0,0.0,0.0,0.0,0.0,0.0,0.0,0.0,0.0,0.0,0.0,0.0,0.0,0.0,0.0,0.0,0.0,0.0,-2.7181,-2.6825,-2.6187,-2.6763,-2.6923,-2.662,-2.7711,-2.7878,-2.7149,-2.6537,-2.6698,-2.749,-2.7739,-2.7773,-2.7694,-2.8143,-2.8209,-2.8117,-2.8654,-2.8717,-2.8436,-2.8207,-2.7787,-2.7146,-2.6047,-2.5603,-2.5514,-2.5453,-2.5061,0.0,0.0,0.0,-2.3739,-2.3739,-2.3333,-2.2783,-2.2401,0.0,-2.0494,0.0,-1.9551,-1.8822,0.0,0.0,0.0,0.0,0.0,0.0,0.0,0.0,0.0,0.0,0.0,0.0,0.0,0.0,0.0,0.0,0.0,0.0,0.0,0.0,0.0,0.0,0.0,0.0,0.0,-1.6088,-1.6088,-1.6479,-1.6947,-1.7393,-1.7787,-1.8214,-1.8581,-1.8822,-1.9645,-2.007,-2.0139,-2.0909,-2.1087,-2.0893,-2.1183,-2.1419,-2.1589,-2.1589,-2.1694,-2.1797,-2.1797,-2.1797,-2.184,-2.2068,-2.2341,-2.2669,0.0,0.0,0.0,0.0,0.0,0.0,0.0,0.0,0.0,0.0,0.0,0.0,0.0,0.0,0.0,0.0,0.0,0.0,0.0,0.0,0.0,-2.7504,-2.7307,-2.7161,-2.7106,-2.7225,-2.7509,-2.7883,-2.8417,-2.8574,-2.8403,-2.856,-2.8266,-2.7625,-2.8383,-2.8262,-2.759,-2.8293,-2.8514,-2.8369,-2.887,-2.8944,-2.8694,-2.8094,-2.7439,-2.6814,-2.5994,-2.5722,-2.5707,-2.5887,-2.5509,-2.5085,-2.5231,0.0,0.0,0.0,-2.388,-2.3442,-2.2521,-2.1458,-2.0505,0.0,-1.959,-1.9176,-1.9176,0.0,0.0,0.0,0.0,0.0,0.0,0.0,0.0,0.0,0.0,0.0,0.0,0.0,0.0,0.0,0.0,0.0,0.0,0.0,0.0,0.0,0.0,0.0,-1.6892,-1.6934,-1.7005,-1.7214,-1.7679,0.0,-1.8175,-1.84,-1.8721,-1.9147,-1.9859,-2.0311,-2.0563,-2.1103,-2.1277,-2.1135,-2.1293,-2.1464,-2.1664,-2.1664,-2.1797,-2.201,-2.201,-2.2141,-2.2309,-2.2446,-2.2669,-2.2968,0.0,0.0,0.0,0.0,0.0,0.0,0.0,0.0,0.0,0.0,0.0,0.0,0.0,0.0,0.0,0.0,0.0,0.0,0.0,0.0,0.0,-2.773,-2.7542,-2.7569,-2.7807,-2.7835,-2.8168,-2.8893,-2.9088,-2.927,-2.9589,-3.0254,-2.9738,-2.8301,-2.914,-2.8856,-2.7876,-2.8653,-2.891,-2.8746,-2.8965,-2.8922,-2.8692,-2.7621,-2.6848,-2.623,-2.5696,-2.5483,-2.5477,-2.5775,-2.5503,-2.5072,-2.5072,-2.4718,0.0,0.0,0.0,-2.3533,0.0,0.0,-2.0567,-2.0066,-1.9711,-1.9508,0.0,0.0,0.0,0.0,0.0,0.0,0.0,0.0,0.0,0.0,0.0,0.0,0.0,0.0,0.0,0.0,0.0,0.0,0.0,0.0,0.0,0.0,0.0,0.0,-1.7352,-1.7557,-1.7679,-1.7787,-1.8135,-1.8386,-1.8517,-1.8542,-1.8874,-1.9406,-1.9929,-2.0429,-2.0827,-2.123,-2.1417,-2.1464,-2.1464,-2.157,-2.1797,-2.1797,-2.1998,-2.2347,-2.2347,-2.2483,-2.2703,-2.2782,-2.2935,-2.3151,0.0,0.0,0.0,0.0,0.0,0.0,0.0,0.0,0.0,0.0,0.0,0.0,0.0,-2.9062,-2.9112,-2.9178,0.0,0.0,0.0,0.0,0.0,-2.773,-2.8045,0.0,-2.7824,-2.8782,-2.9294,-2.936,-3.0071,-3.0527,-3.083,-3.1281,-3.0998,-3.0069,-3.0461,-3.0167,-2.9496,-2.981,-2.9897,-2.9859,-2.9097,-2.8822,-2.8644,-2.7267,-2.6566,-2.6206,-2.533,-2.4854,-2.4611,-2.4493,-2.4379,-2.4364,-2.4364,-2.4333,-2.4302,0.0,0.0,0.0,0.0,-2.0839,0.0,-2.027,-2.003,0.0,0.0,0.0,0.0,0.0,0.0,0.0,0.0,0.0,0.0,0.0,0.0,0.0,0.0,0.0,0.0,0.0,0.0,0.0,0.0,0.0,0.0,0.0,0.0,0.0,-1.7747,-1.7434,-1.7393,-1.7787,-1.7828,-1.8055,-1.8517,-1.8683,-1.9011,-1.9406,-1.9929,-2.0429,-2.0827,-2.123,-2.1464,-2.1589,-2.1589,-2.1797,-2.2068,-2.2068,-2.232,-2.266,-2.266,-2.2686,-2.273,-2.2977,-2.3126,-2.3253,0.0,0.0,0.0,0.0,0.0,0.0,0.0,0.0,0.0,0.0,0.0,0.0,0.0,-2.9134,-2.9156,-2.92,-2.9262,0.0,0.0,0.0,0.0,-2.8516,-2.8876,-2.9128,-2.9211,-2.9332,-2.9648,0.0,0.0,-3.0558,-3.0652,-3.1302,-3.1182,-3.0435,-3.1024,-3.0696,-2.9766,-3.0,-3.0103,-3.0038,-2.915,-2.879,-2.8644,-2.7235,-2.6645,0.0,0.0,0.0,0.0,-2.4871,-2.4655,-2.4467,-2.4343,-2.4302,-2.4302,-2.4302,-2.3656,-2.2794,0.0,0.0,0.0,-2.0412,-2.022,-2.0115,0.0,0.0,0.0,0.0,0.0,0.0,0.0,0.0,0.0,0.0,0.0,0.0,0.0,0.0,0.0,0.0,0.0,0.0,0.0,0.0,0.0,0.0,0.0,0.0,-1.8254,-1.8095,-1.8095,-1.8254,-1.8254,-1.8347,-1.8517,-1.895,-1.9354,-1.9737,-2.0311,-2.0778,-2.1119,-2.1402,-2.1542,-2.1603,-2.1869,-2.2039,-2.2164,-2.2402,-2.266,-2.2952,-2.2952,-2.3077,-2.3223,-2.3313,-2.3383,-2.3412,0.0,0.0,0.0,0.0,0.0,0.0,0.0,0.0,0.0,0.0,0.0,0.0,0.0,0.0,-2.9178,-2.9134,-2.937,-2.9379,-2.9062,-2.9753,-2.997,-2.946,-2.9822,-3.0075,-3.016,0.0,0.0,0.0,0.0,0.0,0.0,-3.1345,-3.1355,-3.0865,-3.1361,-3.1034,0.0,0.0,0.0,-3.0123,0.0,-2.8702,-2.8304,-2.7162,0.0,0.0,0.0,0.0,0.0,0.0,0.0,-2.4942,-2.4719,-2.4549,-2.4385,-2.4302,-2.3825,-2.3194,-2.2748,0.0,0.0,0.0,0.0,-2.0304,0.0,0.0,0.0,0.0,0.0,0.0,0.0,0.0,0.0,0.0,0.0,0.0,0.0,0.0,0.0,0.0,0.0,0.0,0.0,0.0,0.0,0.0,0.0,0.0,-1.862,-1.862,-1.8581,-1.8517,-1.8517,-1.8517,-1.8517,-1.9087,-1.9573,-1.9899,-2.053,-2.099,-2.1325,-2.1511,-2.1634,-2.1768,-2.2181,-2.2375,-2.2402,-2.2703,-2.3003,-2.3241,-2.3241,-2.3336,-2.3494,-2.3494,-2.3695,-2.3955,0.0,0.0,0.0,0.0,0.0,0.0,0.0,0.0,0.0,-3.0401,0.0,0.0,0.0,0.0,0.0,-2.9136,-2.9704,-2.9984,-2.9764,-3.0281,-3.0582,-3.0582,0.0,0.0,0.0,0.0,0.0,0.0,0.0,0.0,0.0,0.0,-3.1543,-3.1543,-3.1543,-3.1146,-3.0452,0.0,-3.0189,-3.014,0.0,-2.8509,-2.7697,0.0,0.0,0.0,-2.5733,-2.5738,0.0,-2.5783,0.0,0.0,0.0,-2.5036,-2.4549,-2.4385,-2.384,-2.3357,0.0,0.0,0.0,0.0,0.0,0.0,0.0,0.0,0.0,0.0,0.0,0.0,0.0,0.0,0.0,0.0,0.0,0.0,0.0,0.0,0.0,0.0,0.0,0.0,0.0,0.0,0.0,0.0,0.0,-1.8898,-1.8898,-1.8898,-1.8798,-1.8517,-1.8517,-1.8517,-1.8517,-1.9124,-1.9609,-1.9934,-2.053,-2.099,-2.1325,-2.1511,-2.1738,-2.2027,-2.25,-2.2686,-2.273,-2.3003,-2.3265,-2.3494,-2.3494,-2.3494,-2.3494,-2.3494,-2.4039,-2.4807,0.0,0.0,0.0,0.0,0.0,0.0,-3.1364,-3.0783,-3.042,0.0,0.0,0.0,-3.0513,-3.1366,-3.1941,-3.1895,-3.1931,-3.162,-3.0828,-3.183,-3.2378,-3.2255,-3.2627,-3.2792,0.0,0.0,0.0,0.0,0.0,0.0,0.0,0.0,0.0,0.0,-3.0824,-3.0385,-2.9642,-3.0061,0.0,-2.9995,-2.9543,-2.9234,0.0,0.0,0.0,0.0,0.0,-2.7029,-2.6401,0.0,-2.6177,-2.5944,0.0,-2.5036,-2.4589,-2.4549,-2.4474,-2.4367,-2.3864,0.0,0.0,0.0,0.0,0.0,0.0,0.0,0.0,0.0,0.0,0.0,0.0,0.0,0.0,0.0,0.0,0.0,0.0,0.0,0.0,0.0,0.0,0.0,0.0,0.0,0.0,0.0,-1.9302,-1.9265,-1.9265,-1.9026,-1.8874,-1.8798,-1.8711,-1.8774,-1.8997,-1.9588,-2.0085,-2.0398,-2.0909,-2.1246,-2.1402,-2.1542,-2.1768,-2.2096,-2.2527,-2.2807,-2.3003,-2.3289,-2.343,-2.3494,-2.3494,-2.3494,-2.3494,-2.3494,-2.4016,-2.4647,0.0,0.0,0.0,0.0,0.0,0.0,-3.2482,-3.1893,-3.164,0.0,0.0,0.0,-3.1095,-3.2525,-3.3337,-3.2913,-3.3382,-3.3376,-3.2637,-3.3605,-3.4105,-3.388,-3.4073,-3.4147,-3.4004,0.0,0.0,0.0,0.0,0.0,0.0,0.0,0.0,0.0,0.0,0.0,0.0,0.0,0.0,0.0,-2.9872,0.0,0.0,-2.9775,-2.9059,0.0,0.0,0.0,-2.6858,-2.6906,-2.6691,0.0,0.0,0.0,0.0,0.0,-2.4855,-2.4879,-2.4351,-2.3456,-2.2572,0.0,0.0,0.0,0.0,-2.0512,0.0,0.0,0.0,0.0,0.0,0.0,0.0,0.0,0.0,0.0,0.0,0.0,0.0,0.0,0.0,0.0,0.0,0.0,0.0,0.0,-1.9654,-1.9581,-1.9581,-1.9288,-1.9101,-1.9101,-1.9101,-1.9213,-1.9406,-2.0015,-2.0395,-2.0597,-2.1087,-2.134,-2.1417,-2.1631,-2.194,-2.2303,-2.2686,-2.3028,-2.3289,-2.3448,-2.3494,-2.3494,-2.3494,-2.3494,-2.3494,-2.3494,-2.4016,-2.4676,0.0,0.0,0.0,-3.3998,-3.4124,-3.4173,-3.4124,-3.3486,-3.325,0.0,0.0,-3.1987,-3.2172,-3.3566,-3.4093,-3.3105,-3.4408,-3.5027,-3.4474,-3.5178,-3.5519,-3.5272,-3.5204,-3.5101,-3.4886,-3.3389,0.0,0.0,0.0,0.0,0.0,0.0,0.0,0.0,0.0,0.0,0.0,0.0,0.0,-2.9758,-3.0253,-3.0484,0.0,0.0,-2.9782,-2.8387,-2.8633,-2.8048,-2.7181,-2.7404,-2.7166,0.0,0.0,0.0,0.0,0.0,-2.5185,-2.5169,-2.4895,-2.374,-2.2605,0.0,0.0,0.0,-2.1151,-2.089,0.0,0.0,0.0,0.0,0.0,0.0,0.0,0.0,0.0,0.0,0.0,0.0,0.0,0.0,0.0,0.0,0.0,0.0,-1.998,-2.027,-2.003,-1.9874,-1.9874,-1.9617,-1.9487,-1.9487,-1.9654,-1.9747,-1.9782,-2.0361,-2.063,-2.0697,-2.1103,-2.1371,-2.1479,-2.1853,-2.2192,-2.2582,-2.296,-2.3241,-2.3494,-2.3494,-2.3494,-2.3494,-2.3494,-2.3494,-2.3517,-2.3539,-2.4016,-2.4825,0.0,0.0,-3.3947,-3.4124,-3.4173,-3.4197,-3.4173,-3.351,-3.3045,-3.3213,0.0,-3.3268,-3.4624,-3.5627,-3.5869,-3.502,-3.5729,-3.5631,-3.426,-3.5166,-3.5742,-3.5679,-3.5372,-3.5472,-3.6043,-3.4549,0.0,0.0,0.0,0.0,0.0,0.0,0.0,0.0,0.0,0.0,0.0,0.0,0.0,-2.9917,-3.0628,0.0,-3.1812,-3.2274,-3.1448,-3.0004,-2.9978,-2.8925,-2.7552,-2.739,-2.7087,-2.6774,0.0,0.0,0.0,-2.5924,0.0,0.0,0.0,0.0,0.0,0.0,0.0,0.0,-2.2198,-2.165,-2.1128,0.0,0.0,0.0,0.0,0.0,0.0,0.0,0.0,0.0,0.0,0.0,0.0,0.0,0.0,0.0,0.0,0.0,-2.022,-2.0304,-2.0235,-2.0185,-2.0185,-2.0045,-1.9975,-1.9975,-1.9995,-2.017,-2.0429,-2.0646,-2.0893,-2.1166,-2.1246,-2.1509,-2.1882,-2.1953,-2.2347,-2.2985,-2.3052,-2.3241,-2.3494,-2.3494,-2.3494,-2.3494,-2.3494,-2.3494,-2.3499,-2.362,-2.4096,-2.476,-3.4643,-3.4816,-3.484,-3.4853,-3.4902,-3.4777,-3.4296,-3.3863,-3.3751,-3.4179,-3.4234,-3.4426,-3.4907,-3.5671,-3.6012,-3.5693,-3.6317,-3.636,-3.546,-3.5928,-3.6146,-3.5848,-3.5679,-3.5684,-3.5948,-3.518,-3.4634,0.0,0.0,0.0,0.0,0.0,0.0,0.0,0.0,0.0,0.0,0.0,-3.038,-2.9713,-3.0455,0.0,-3.2484,-3.2357,-3.1546,-3.0428,-3.0012,-2.8912,-2.7672,-2.7465,-2.7247,0.0,0.0,-2.6758,-2.6657,0.0,-2.635,-2.6419,0.0,0.0,0.0,-2.5011,0.0,0.0,0.0,-2.2394,-2.197,0.0,0.0,0.0,0.0,0.0,0.0,0.0,0.0,0.0,0.0,0.0,0.0,0.0,0.0,0.0,0.0,0.0,-2.0595,-2.063,-2.0795,-2.0811,-2.0561,-2.0597,-2.0548,-2.0444,-2.0545,-2.0679,-2.0844,-2.0974,-2.1119,-2.1309,-2.1509,-2.1751,-2.2027,-2.2347,-2.2712,-2.3119,-2.3241,-2.3378,-2.3494,-2.3494,-2.3494,-2.3494,-2.3494,-2.3766,-2.4129,-2.428,-2.4784,-2.544,-3.5292,-3.5492,-3.5514,-3.536,-3.5408,-3.5212,-3.4405,-3.4269,-3.453,0.0,-3.5311,-3.5099,-3.4502,-3.5179,-3.5614,-3.5556,-3.6329,-3.6677,-3.636,-3.6441,-3.6292,-3.586,-3.5878,-3.5877,-3.5822,-3.5675,-3.5554,0.0,0.0,0.0,0.0,0.0,0.0,0.0,0.0,0.0,0.0,0.0,0.0,-2.9886,0.0,-3.1421,-3.2367,-3.1706,-3.0975,-3.0208,-2.9412,-2.8528,-2.773,-2.7557,-2.7421,-2.7282,-2.6973,-2.7087,0.0,0.0,0.0,0.0,0.0,0.0,0.0,0.0,0.0,-2.4166,0.0,0.0,0.0,0.0,0.0,0.0,0.0,0.0,0.0,0.0,0.0,0.0,0.0,0.0,0.0,0.0,0.0,0.0,0.0,0.0,-2.0974,-2.1103,-2.1339,-2.1308,-2.0942,-2.1134,-2.1134,-2.0909,-2.1151,-2.1246,-2.123,-2.1371,-2.1448,-2.1479,-2.1794,-2.2056,-2.2209,-2.2747,-2.306,-2.3193,-2.3424,-2.3499,-2.3544,-2.3544,-2.3567,-2.3589,-2.3539,-2.3914,-2.4515,-2.4743,-2.5167,-2.5751,-3.4714,-3.4733,-3.4733,-3.4711,-3.4711,-3.4692,-3.458,-3.4539,0.0,0.0,0.0,0.0,0.0,0.0,0.0,-3.4789,0.0,0.0,-3.5068,0.0,-3.5693,-3.5645,-3.5809,-3.6224,-3.6903,-3.6636,-3.6109,-3.5411,0.0,0.0,0.0,0.0,0.0,0.0,-3.2802,0.0,0.0,0.0,-3.1599,0.0,-3.1528,-3.1242,0.0,-3.0672,-3.0172,-2.9394,-2.8479,-2.8085,-2.7911,0.0,-2.7496,-2.7434,0.0,-2.725,-2.7299,-2.7218,0.0,0.0,0.0,0.0,0.0,0.0,-2.6455,0.0,0.0,0.0,0.0,0.0,0.0,0.0,0.0,0.0,0.0,0.0,0.0,0.0,0.0,0.0,0.0,0.0,0.0,0.0,0.0,0.0,0.0,-2.1462,-2.1432,-2.1401,-2.1432,-2.1615,-2.1601,-2.1355,-2.1705,-2.1794,-2.1617,-2.184,-2.1982,-2.2108,-2.2136,-2.2412,-2.2892,-2.2968,-2.3157,-2.3471,-2.3494,-2.3571,-2.3689,-2.3689,-2.3774,-2.3915,-2.3611,-2.3625,-2.3837,-2.4042,-2.4176,-2.4381,-3.535,-3.5466,-3.5486,-3.5318,0.0,-3.5233,-3.468,-3.4602,0.0,0.0,0.0,0.0,0.0,0.0,0.0,0.0,0.0,-3.5209,0.0,0.0,-3.5346,-3.5702,-3.5802,-3.6155,-3.6869,-3.6468,-3.6073,-3.5729,-3.4942,0.0,0.0,0.0,0.0,0.0,-3.3024,0.0,-3.1755,0.0,-3.1954,0.0,0.0,0.0,0.0,-3.1028,-3.0457,-2.9298,-2.8411,-2.8071,-2.7986,0.0,-2.7647,0.0,0.0,0.0,0.0,0.0,0.0,0.0,0.0,0.0,0.0,0.0,0.0,0.0,-2.6127,0.0,-2.5308,0.0,0.0,0.0,0.0,0.0,0.0,0.0,0.0,0.0,0.0,0.0,0.0,0.0,0.0,0.0,0.0,0.0,0.0,0.0,0.0,-2.2015,-2.1807,-2.2032,-2.2233,-2.2441,-2.2592,-2.2869,-2.3212,-2.2869,-2.2769,-2.288,-2.2679,-2.2695,-2.301,-2.3182,-2.3383,-2.3494,-2.3494,-2.3571,-2.3692,-2.3692,-2.3816,-2.3996,-2.3852,-2.4103,-2.4641,-2.5322,-2.5527,-2.5605,-3.5584,-3.5777,-3.5778,-3.5574,0.0,0.0,0.0,0.0,0.0,0.0,0.0,0.0,-3.4829,-3.4829,0.0,0.0,-3.4908,-3.4908,0.0,0.0,-3.5456,0.0,0.0,0.0,0.0,-3.6648,-3.6296,-3.6058,0.0,0.0,0.0,0.0,0.0,0.0,0.0,-3.2762,-3.2169,0.0,0.0,-3.1415,-3.199,-3.1727,-3.0939,-3.1041,-3.0243,-2.8994,-2.8396,-2.8126,-2.8042,-2.8014,-2.7824,0.0,-2.7672,0.0,0.0,0.0,0.0,0.0,-2.7376,0.0,0.0,0.0,0.0,0.0,0.0,0.0,0.0,0.0,0.0,0.0,0.0,0.0,0.0,0.0,0.0,0.0,0.0,0.0,0.0,0.0,0.0,0.0,0.0,0.0,0.0,0.0,0.0,0.0,-2.2215,-2.2388,-2.2745,-2.327,-2.3346,-2.3714,-2.4458,-2.3994,-2.384,-2.4024,-2.3719,-2.3665,-2.3774,-2.3815,-2.3945,-2.4123,-2.3723,-2.3768,-2.4103,-2.391,-2.3959,-2.4134,-2.4134,-2.4501,-2.5124,-2.6013,-2.6477,-2.6703,-3.4927,-3.4946,-3.4946,0.0,0.0,0.0,0.0,0.0,0.0,0.0,0.0,0.0,0.0,0.0,0.0,0.0,0.0,-3.4908,-3.4908,0.0,-3.6159,0.0,0.0,-3.8126,0.0,0.0,-3.708,-3.6288,0.0,0.0,0.0,0.0,0.0,0.0,0.0,-3.3006,-3.3154,-3.3172,-3.3321,-3.3486,-3.3522,-3.2936,-3.1867,0.0,-2.8976,-2.8245,-2.82,0.0,0.0,-2.8042,-2.7996,0.0,0.0,0.0,0.0,0.0,0.0,0.0,0.0,0.0,0.0,-2.7313,0.0,0.0,0.0,0.0,-2.8077,0.0,0.0,0.0,0.0,0.0,-2.4547,-2.4513,-2.3875,0.0,0.0,0.0,0.0,0.0,0.0,0.0,0.0,0.0,0.0,0.0,0.0,0.0,-2.2659,-2.2685,-2.2922,-2.3476,-2.3693,-2.4121,-2.4866,-2.5051,-2.5302,-2.5631,-2.5596,-2.5638,-2.5686,-2.498,-2.5051,-2.564,-2.4289,-2.4248,-2.5108,-2.4446,-2.4303,-2.4482,-2.4482,-2.4501,-2.4595,-2.5207,-2.6058,-2.6878,-3.4908,-3.4908,-3.4908,0.0,0.0,0.0,0.0,-3.4908,0.0,0.0,0.0,0.0,0.0,-3.4908,-3.4908,0.0,0.0,-3.5135,-3.5723,-3.6026,0.0,0.0,0.0,-3.8798,0.0,0.0,0.0,0.0,0.0,0.0,0.0,0.0,0.0,0.0,0.0,-3.3512,0.0,0.0,0.0,0.0,0.0,-3.2531,-3.1217,0.0,0.0,-2.8923,-2.8378,-2.8182,0.0,-2.8154,-2.8071,-2.7996,-2.8025,-2.7893,-2.773,-2.7864,-2.7806,0.0,0.0,0.0,-2.7922,-2.7526,0.0,0.0,0.0,0.0,0.0,0.0,0.0,0.0,0.0,0.0,-2.5299,-2.4696,-2.4377,-2.3994,0.0,0.0,0.0,0.0,0.0,0.0,0.0,0.0,0.0,0.0,0.0,0.0,0.0,-2.3576,-2.4112,-2.4736,-2.5342,-2.6016,-2.6737,-2.6352,-2.6229,-2.641,-2.5941,-2.5786,-2.5997,-2.5745,-2.5834,-2.6172,-2.5677,-2.5421,-2.5309,-2.5093,-2.4801,-2.45,-2.45,-2.4834,-2.5336,-2.5523,-2.5801,-2.6284,-3.4908,0.0,0.0,0.0,0.0,0.0,0.0,0.0,0.0,0.0,-3.4908,0.0,-3.4908,0.0,-3.5022,0.0,-3.5363,-3.5723,-3.6557,-3.6917,0.0,-3.8662,-3.8963,0.0,0.0,0.0,0.0,0.0,0.0,-3.455,0.0,0.0,0.0,0.0,0.0,-3.3753,-3.3726,0.0,-3.3868,0.0,0.0,-3.2683,0.0,0.0,-3.0068,0.0,0.0,-2.8406,-2.8406,-2.8327,-2.8246,-2.8191,-2.8209,-2.8053,-2.7893,-2.8025,-2.7996,-2.7864,-2.7836,-2.8007,0.0,0.0,-2.7829,0.0,-2.7557,0.0,0.0,0.0,0.0,0.0,0.0,0.0,-2.6272,-2.5858,-2.5403,-2.4825,0.0,-2.407,0.0,0.0,0.0,0.0,0.0,0.0,0.0,0.0,0.0,0.0,0.0,0.0,-2.4764,-2.5543,-2.6249,-2.7014,-2.7886,-2.737,-2.7207,-2.7397,-2.6863,-2.6752,-2.7061,-2.67,-2.6789,-2.7232,-2.6731,-2.6245,-2.5812,-2.5595,-2.5282,-2.4927,-2.4927,-2.5429,-2.6135,-2.6135,-2.6525,-2.727,0.0,0.0,0.0,0.0,-3.4908,0.0,0.0,0.0,-3.4927,0.0,-3.4927,-3.4946,-3.4984,-3.4965,-3.5306,-3.6178,-3.6253,0.0,-3.7409,-3.8224,0.0,0.0,-3.9494,-3.9826,-3.9717,0.0,0.0,0.0,0.0,0.0,0.0,0.0,0.0,0.0,-3.3633,0.0,-3.3921,-3.3921,-3.4023,-3.4173,-3.3972,-3.3416,-3.2606,-3.1649,0.0,-2.8598,-2.8743,-2.8797,-2.8749,-2.8569,-2.8518,-2.8466,-2.8291,-2.8237,-2.8237,-2.8237,-2.8237,-2.8209,-2.8053,-2.8053,-2.8053,-2.8027,0.0,0.0,0.0,0.0,-2.8735,0.0,0.0,0.0,0.0,0.0,0.0,-2.7897,-2.6829,-2.579,-2.5359,0.0,0.0,0.0,0.0,0.0,0.0,0.0,0.0,0.0,0.0,0.0,0.0,0.0,0.0,-2.5967,-2.6446,-2.7234,-2.8309,-2.8136,-2.8191,-2.8518,-2.83,-2.8432,-2.8779,-2.7822,-2.7919,-2.8748,-2.7408,-2.6772,-2.6622,-2.6061,-2.5801,-2.5764,-2.5764,-2.6265,-2.6972,-2.6972,-2.8035,-2.957,-3.4908,-3.4908,-3.4908,0.0,-3.4908,-3.4908,0.0,0.0,0.0,0.0,-3.5053,-3.53,-3.5948,-3.5932,-3.6196,-3.7011,-3.7087,0.0,0.0,0.0,0.0,-3.957,-3.9797,-3.9826,-3.9717,-3.9416,0.0,-3.6894,0.0,0.0,-3.4124,0.0,0.0,0.0,0.0,0.0,-3.4124,-3.4124,-3.4148,-3.4173,-3.3972,-3.3416,0.0,0.0,-3.1292,-2.9758,-2.904,-2.8797,-2.8773,-2.8743,-2.8718,-2.87,-2.8669,-2.8644,-2.8644,-2.8644,-2.8644,-2.8644,-2.8601,-2.87,-2.8749,-2.8446,-2.8478,-2.8504,0.0,0.0,0.0,0.0,0.0,0.0,0.0,0.0,0.0,-2.7982,-2.7204,-2.6594,0.0,0.0,0.0,-2.7025,0.0,0.0,0.0,0.0,0.0,0.0,0.0,0.0,0.0,0.0,0.0,-2.7136,-2.7858,-2.8377,-2.8651,-2.8626,-2.8626,-2.8718,-2.8669,-2.8791,-2.9003,-2.8755,-2.8864,-2.9243,-2.886,-2.8343,-2.7692,-2.7566,-2.7139,-2.66,-2.66,-2.7177,-2.8013,-2.7848,-2.8166,-2.8799,-3.4908,0.0,0.0,-3.5931,0.0,0.0,-3.5608,0.0,0.0,-3.6192,-3.6138,0.0,-3.6787,-3.6767,-3.7049,-3.7883,-3.7959,0.0,-3.9172,0.0,0.0,-3.987,-3.9889,-3.9804,-3.9623,-3.9242,0.0,-3.6814,0.0,0.0,-3.4197,0.0,0.0,0.0,0.0,-3.4197,0.0,-3.4197,-3.4197,-3.4197,-3.4074,0.0,0.0,-3.2563,-3.1732,-3.0789,-2.9517,-2.9048,-2.9048,-2.8957,-2.8934,-2.891,-2.8839,-2.8797,-2.8797,-2.8797,-2.8797,-2.8797,-2.8797,-2.8887,-2.8934,-2.8803,-2.885,-2.8874,-2.8578,-2.8848,-2.9029,0.0,0.0,0.0,0.0,0.0,0.0,-2.8047,-2.787,0.0,0.0,0.0,0.0,0.0,0.0,0.0,0.0,0.0,0.0,0.0,0.0,0.0,0.0,0.0,0.0,-2.7779,-2.8448,-2.8839,-2.8934,-2.8839,-2.8839,-2.8934,-2.8839,-2.8957,-2.9218,-2.9152,-2.9218,-2.9407,-2.9407,-2.8924,-2.8086,-2.8086,-2.7866,-2.7587,-2.8033,-2.855,-2.9047,-2.8964,-2.9032,-2.927,0.0,0.0,0.0,0.0,0.0,0.0,0.0,-3.7166,0.0,-3.779,0.0,-3.7489,-3.7602,-3.7601,-3.7921,-3.8774,0.0,-3.9153,-3.9832,-3.9889,-3.9889,-3.9889,-3.9889,-3.9743,-3.9357,-3.8757,-3.7854,0.0,0.0,0.0,0.0,0.0,0.0,0.0,0.0,0.0,0.0,-3.416,-3.4197,0.0,-3.4197,-3.4197,-3.4048,-3.2637,-3.1968,-3.1615,-3.0225,-2.9593,-2.9386,-2.9197,-2.9152,-2.9112,-2.8934,-2.8887,-2.8887,-2.8887,-2.8887,-2.8887,-2.8887,-2.8887,-2.891,-2.9089,-2.9152,-2.9089,-2.8925,-2.8879,-2.8897,-2.9007,-2.8718,0.0,0.0,0.0,0.0,0.0,0.0,0.0,0.0,0.0,0.0,0.0,0.0,0.0,0.0,0.0,0.0,0.0,0.0,0.0,0.0,0.0,0.0,0.0,-2.868,0.0,-2.9152,0.0,-2.8957,-2.9152,-2.8957,-2.9048,-2.9386,-2.9218,-2.924,-2.9407,-2.9407,-2.8979,-2.8273,-2.8293,-2.8409,-2.87,-2.958,-2.9939,-2.9958,-3.0037,-3.015,-3.0253,0.0,0.0,0.0,0.0,0.0,-3.9489,-3.8733,-3.8201,-3.8166,-3.8926,-3.8265,-3.7993,-3.872,-3.8594,-3.8793,-3.9627,-3.9702,0.0,0.0,0.0,0.0,-3.9889,-3.9889,-3.946,-3.8531,-3.8404,-3.7478,0.0,0.0,0.0,0.0,0.0,0.0,0.0,0.0,0.0,-3.325,-3.3918,0.0,-3.4197,-3.4197,-3.4197,-3.416,-3.3881,-3.2953,-3.1745,-3.1489,-3.0541,-2.9386,-2.9365,-2.9365,-2.9326,-2.9304,-2.9304,-2.9304,-2.9304,-2.9304,-2.9304,-2.9304,-2.9304,-2.9304,-2.9344,-2.9365,-2.9326,-2.9286,-2.9286,-2.9471,-3.0157,-2.9706,-2.9425,-3.0172,0.0,0.0,0.0,0.0,0.0,0.0,0.0,0.0,0.0,0.0,0.0,0.0,0.0,0.0,0.0,0.0,0.0,0.0,0.0,0.0,0.0,0.0,0.0,0.0,0.0,0.0,-2.9365,-2.9304,-2.9326,-2.9407,-2.9365,-2.9365,-2.9407,-2.9407,-2.9314,-2.9165,-2.9288,-2.9454,-2.9671,-3.0018,-3.019,-3.0248,-3.0375,-3.046,-3.05,0.0,0.0,0.0,0.0,0.0,0.0,0.0,-4.0559,0.0,-3.9838,-3.9344,-3.9145,-3.9471,-3.9388,-3.9475,-3.9851,-3.9889,-3.9889,-3.9889,-3.9889,-3.9889,-3.9889,-3.9889,0.0,-3.8324,-3.7892,-3.6967,-3.5497,0.0,0.0,0.0,0.0,0.0,0.0,0.0,-3.325,0.0,0.0,0.0,-3.4197,-3.4197,-3.4197,-3.4141,-3.3733,-3.2841,-3.1745,-3.134,-3.0411,-2.9407,-2.9407,-2.9407,-2.9481,-2.989,-3.002,-3.002,-3.002,-3.002,-2.9946,-2.9518,-2.9407,-2.9407,-2.9407,-2.9407,-2.9407,-2.9407,-2.9723,-3.0132,-3.0522,-3.0634,-3.0742,-3.1065,-3.0779,0.0,0.0,0.0,0.0,0.0,0.0,0.0,0.0,0.0,0.0,0.0,0.0,0.0,0.0,0.0,0.0,0.0,0.0,0.0,0.0,0.0,0.0,0.0,0.0,0.0,-2.9407,-2.9407,-2.9407,-2.9407,-2.9407,-2.9407,-2.9407,-2.9471,-2.9512,-2.957,-2.9799,-2.9973,-3.0075,-3.0278,-3.0386,-3.0428,-3.051,-3.0569,-3.0588,0.0,-3.9394,0.0,0.0,-4.1587,0.0,0.0,-4.2218,-4.1644,-4.0748,-4.0345,-4.0081,-3.9956,-3.9933,-3.9889,-3.9889,-3.9889,-3.9889,-3.9889,-3.9889,-3.9889,-3.9889,-3.974,-3.9139,-3.8061,-3.7234,-3.6293,0.0,0.0,0.0,0.0,0.0,0.0,0.0,0.0,0.0,0.0,0.0,-3.4221,-3.4197,-3.4197,-3.4197,-3.4123,-3.3491,-3.2637,-3.1727,-3.1262,-3.0485,-2.9686,-2.9853,-2.9797,-2.9797,-3.0615,-3.0875,-3.0875,-3.0875,-3.0745,-3.0466,-2.9834,-2.9537,-2.9407,-2.9407,-2.9407,-2.9444,-2.963,-3.002,-3.0504,-3.1005,-3.1597,-3.1964,-3.1751,-3.1714,0.0,0.0,0.0,0.0,0.0,0.0,0.0,0.0,0.0,0.0,0.0,0.0,0.0,0.0,0.0,0.0,0.0,0.0,0.0,0.0,0.0,0.0,-2.971,0.0,-2.9909,0.0,-2.9909,-2.9834,-2.9667,-2.9667,-2.9576,-2.945,-2.9551,-2.9681,-2.9836,-3.0294,-3.0394,-3.0297,-3.0634,-3.0675,-3.053,-3.0588,-3.0598,-3.0598,0.0,0.0,0.0,0.0,0.0,0.0,0.0,-4.1373,-4.1778,-4.1671,-4.0847,-4.023,-4.0101,-3.9977,-3.9889,-3.9889,-3.9889,-3.9889,-3.9889,-3.9889,-3.9889,-3.9889,-3.9191,-3.831,-3.7239,-3.6351,-3.539,0.0,0.0,0.0,0.0,0.0,0.0,0.0,0.0,0.0,0.0,-3.4018,-3.4316,-3.4197,-3.4197,-3.4197,-3.4179,-3.4123,-3.3138,-3.1875,-3.2525,-3.1782,-3.0615,-3.134,-3.1098,-3.0634,-3.1429,-3.1671,-3.1671,-3.1671,-3.1173,-3.0597,-3.0522,-2.9965,-2.9407,-2.9407,-2.9407,-2.9593,-3.0336,-2.9983,-3.0132,-3.2302,-3.2841,-3.2632,-3.1862,-3.1737,-3.1741,0.0,0.0,0.0,0.0,0.0,0.0,0.0,0.0,0.0,0.0,0.0,0.0,0.0,0.0,0.0,0.0,0.0,0.0,0.0,0.0,-3.0677,-3.0677,-3.1278,0.0,-3.1578,-3.1578,-3.1188,-3.0504,-3.0504,-3.0161,-2.957,-2.9589,-2.9817,-3.0213,-3.1034,-3.1018,-3.0558,-3.1371,-3.1226,-3.0598,-3.0598,-3.0598,-3.0598,0.0,0.0,0.0,0.0,0.0,0.0,0.0,-4.159,-4.1562,-4.0877,-4.0423,-4.0139,-3.9979,-3.9914,-3.9889,-3.9889,-3.9889,-3.9702,-3.921,-3.9172,-3.8944,-3.8414,-3.8092,-3.7461,-3.6462,-3.6017,-3.5304,0.0,0.0,0.0,0.0,0.0,0.0,0.0,0.0,-3.4263,-3.385,-3.4232,-3.4316,-3.4197,-3.4197,-3.4197,-3.4197,-3.4197,-3.3491,-3.2544,-3.2878,-3.2265,-3.1429,-3.2247,-3.1987,-3.1448,-3.2265,-3.2507,-3.2507,-3.2507,-3.2284,-3.1819,-3.0875,-3.0373,-3.0002,-2.9518,-2.9407,-2.9611,-3.0429,-3.0727,-3.1244,-3.2692,-3.338,-3.3621,-3.3263,-3.3231,-3.3111,0.0,0.0,0.0,0.0,0.0,0.0,0.0,0.0,0.0,0.0,0.0,0.0,0.0,0.0,0.0,0.0,0.0,0.0,-3.0604,0.0,-3.1186,-3.158,-3.1856,-3.1675,-3.1098,-3.1559,-3.1446,-3.0789,-3.0768,-3.0771,-3.0712,-3.0232,-3.0737,-3.1939,-3.1761,-3.1523,-3.1313,-3.1652,-3.1313,-3.0598,-3.0598,-3.0598,-3.0598,-4.0709,0.0,-4.1646,0.0,-4.1707,-4.1784,-4.1552,-4.145,-4.1123,-4.0307,-4.0158,-4.006,-3.9911,-3.9889,-3.9889,-3.9889,-3.9889,-3.9665,-3.9077,-3.9039,-3.866,-3.7807,-3.7542,0.0,-3.6036,-3.5687,-3.5124,-3.4386,-3.4293,0.0,0.0,0.0,0.0,0.0,-3.4339,-3.4561,-3.4386,-3.445,-3.4363,-3.4245,-3.4221,-3.4221,-3.4245,-3.4221,-3.3696,-3.3027,-3.3268,-3.2841,-3.2265,-3.3083,-3.2971,-3.26,-3.3157,-3.3343,-3.3343,-3.3343,-3.3008,-3.2451,-3.1541,-3.0801,-3.0169,-2.9853,-2.976,-2.9965,-3.0782,-3.144,-3.2117,-3.2918,-3.3669,-3.4221,-3.4293,-3.4316,-3.4199,0.0,0.0,0.0,0.0,0.0,0.0,0.0,-3.0643,-3.0085,-3.018,0.0,0.0,0.0,0.0,0.0,0.0,0.0,0.0,0.0,0.0,0.0,0.0,0.0,-3.2578,-3.1873,-3.2433,-3.2349,-3.1693,-3.152,-3.1591,-3.184,-3.134,-3.1885,-3.3081,-3.2715,-3.2261,-3.1835,-3.2087,-3.1526,-3.0598,-3.0598,-3.0772,-3.1013,-4.0759,-4.1335,-4.1581,-4.0933,-4.1467,-4.1738,-4.0926,-4.064,-4.0511,-4.0496,-4.0266,-4.006,-3.9911,-3.9889,-3.9889,-3.9889,-3.9889,-3.9889,-3.9889,-3.9889,-3.9532,0.0,0.0,-3.6971,-3.6036,-3.5222,-3.4685,-3.4386,0.0,0.0,-3.4197,0.0,0.0,-3.4583,-3.4728,-3.4645,-3.4427,-3.4539,-3.4517,-3.4404,-3.4245,-3.4269,-3.4386,-3.4245,-3.3696,-3.3101,-3.39,-3.3658,-3.3101,-3.39,-3.4179,-3.416,-3.4179,-3.4179,-3.4179,-3.4179,-3.3045,-3.1968,-3.2748,-3.1225,-2.9611,-3.0392,-3.0597,-3.0801,-3.1597,-3.1942,-3.2312,-3.3139,-3.3788,-3.4269,-3.4539,-3.4602,-3.4668,-3.4851,0.0,0.0,0.0,0.0,0.0,0.0,-3.0634,-3.0026,-3.0355,0.0,0.0,0.0,0.0,0.0,0.0,0.0,0.0,-3.1686,-3.3106,0.0,-3.3895,-3.4543,-3.4851,-3.485,-3.485,-3.4414,-3.3543,-3.294,-3.2713,-3.2787,-3.2976,-3.3081,-3.3177,-3.4011,-3.3344,-3.1894,-3.2754,-3.2068,-3.0598,-3.0598,-3.1187,-3.198,-4.0906,-4.1403,-4.1699,-4.0926,-4.1003,-4.1036,-4.066,-4.0526,-4.0481,-4.0383,-4.03,-4.0195,-4.006,-3.9956,-3.9889,0.0,-3.9889,-3.9683,0.0,-3.8527,-3.7845,-3.703,-3.6159,-3.5552,-3.5267,-3.4942,-3.4708,-3.4539,0.0,0.0,0.0,-3.458,-3.4706,-3.4747,-3.483,-3.481,-3.4666,-3.4727,-3.4623,-3.4404,-3.434,-3.4293,-3.4269,-3.4221,-3.403,-3.3844,-3.4104,-3.403,-3.3863,-3.4104,-3.4197,-3.4197,-3.4197,-3.4197,-3.4197,-3.4197,-3.3844,-3.3361,-3.3083,-3.2432,-3.1764,-3.1485,-3.1504,-3.1836,-3.2641,-3.332,-3.3932,-3.4319,-3.444,-3.4539,-3.4752,-3.4792,-3.487,-3.5072,0.0,0.0,0.0,0.0,0.0,0.0,0.0,-3.1168,0.0,-3.1226,0.0,0.0,0.0,0.0,0.0,0.0,0.0,0.0,-3.3544,0.0,-3.4786,-3.5002,-3.4746,-3.4089,-3.4677,-3.4592,-3.3861,-3.3859,-3.3867,-3.3859,-3.3332,-3.3779,-3.4842,-3.4524,-3.375,-3.2792,-3.3063,-3.2135,-3.0674,-3.0678,-3.1222,-3.1916,-4.0887,-4.1197,-4.139,-4.0887,-4.079,-4.0759,-4.0621,-4.0607,-4.0574,-4.05,-4.0434,-4.0351,-4.0248,-4.01,0.0,-3.9911,-3.9889,0.0,-3.8736,-3.8186,-3.7371,-3.6234,-3.5685,-3.523,-3.4908,0.0,0.0,-3.4666,-3.4539,-3.4495,-3.4539,-3.4708,-3.4809,-3.483,-3.4889,-3.485,-3.4788,-3.4788,-3.4687,-3.4539,-3.4495,-3.4473,-3.4427,-3.4363,-3.4316,-3.4269,-3.4269,-3.4245,-3.4197,-3.4197,-3.4269,-3.434,-3.434,-3.4409,-3.4435,-3.4363,-3.4116,-3.384,-3.3724,-3.3262,-3.2737,-3.2531,-3.2558,-3.2902,-3.3809,-3.4374,-3.4771,-3.4982,-3.4851,-3.4771,-3.4982,-3.5019,-3.5072,-3.5273,0.0,-3.5354,0.0,0.0,0.0,0.0,0.0,0.0,0.0,-3.216,0.0,0.0,0.0,0.0,0.0,0.0,0.0,-3.2916,-3.4103,0.0,-3.536,-3.534,-3.5043,-3.4412,-3.4967,-3.5023,-3.4642,-3.4778,-3.4861,-3.4853,-3.4311,-3.4698,-3.5626,-3.4795,-3.3972,-3.3207,-3.2879,-3.193,-3.0732,-3.0741,-3.15,-3.241,-4.079,-4.079,0.0,0.0,-4.079,0.0,-4.079,-4.079,-4.079,-4.079,-4.0654,-4.0511,-4.0511,-4.0266,-4.0061,-3.9935,0.0,0.0,0.0,-3.8567,-3.7826,-3.6272,-3.614,0.0,-3.4927,-3.4908,-3.4869,-3.4788,-3.4666,-3.4666,-3.4788,-3.4809,-3.4849,-3.4908,-3.4889,-3.487,-3.4829,-3.4809,-3.4809,-3.4788,-3.4666,-3.4687,-3.4768,-3.4645,-3.4517,-3.4431,-3.4409,-3.4363,-3.425,-3.425,-3.4409,-3.4626,-3.4626,-3.4751,-3.4851,-3.4668,-3.4062,-3.3633,-3.4623,-3.3751,-3.2745,-3.3505,-3.3694,-3.3994,-3.5002,-3.5072,-3.4982,-3.5193,-3.5054,-3.4982,-3.5174,-3.5226,-3.5273,-3.5479,-3.5493,-3.5493,-3.5493,0.0,0.0,0.0,0.0,0.0,0.0,-3.2987,-3.266,0.0,0.0,0.0,0.0,0.0,-3.3087,-3.3075,-3.4711,-3.5604,-3.5601,-3.5596,-3.5596,-3.5612,-3.5616,-3.5639,-3.5704,-3.5643,-3.5643,-3.5704,-3.5704,-3.5704,-3.5646,-3.4891,-3.4127,-3.3304,-3.2492,-3.1695,-3.0972,-3.0972,-3.2051,-3.3359,0.0,0.0,-4.079,-4.079,-4.079,-4.079,-4.079,-4.079,-4.079,-4.079,-4.0759,-4.0668,-4.0511,-4.0431,-4.0351,-4.0212,-3.945,-3.8622,-3.775,-3.7125,-3.6594,-3.6215,-3.5552,-3.5116,-3.4908,-3.4908,-3.4869,-3.4788,-3.4768,-3.4768,-3.4788,-3.4849,-3.4945,-3.5053,-3.4964,-3.4964,-3.5018,-3.4927,-3.4849,-3.4788,-3.4768,-3.4708,-3.4645,-3.4623,-3.4628,-3.4693,-3.4651,-3.4714,-3.4794,-3.4755,-3.4774,-3.4832,-3.4832,-3.487,-3.4908,-3.4831,-3.4679,-3.4585,-3.4832,-3.4605,-3.4339,-3.4529,-3.4696,-3.4926,-3.533,-3.5273,-3.5193,-3.5403,-3.5258,-3.5193,-3.5383,-3.5432,-3.5446,-3.5493,-3.5493,-3.5493,-3.5493,0.0,0.0,0.0,-3.441,-3.3891,-3.3891,-3.3891,-3.3558,0.0,0.0,0.0,0.0,0.0,-3.3983,-3.3923,-3.4956,-3.556,-3.5604,-3.5608,-3.5631,-3.5673,-3.5693,-3.5673,-3.5704,-3.5684,-3.5723,-3.5781,-3.5781,-3.5781,-3.5764,-3.5582,-3.5025,-3.427,-3.4071,-3.3498,-3.2778,-3.2778,-3.3476,-3.4166,-4.079,-4.079,-4.079,-4.079,-4.079,-4.079,-4.079,-4.079,-4.079,-4.079,-4.079,-4.0759,-4.0654,-4.0496,-4.023,-3.978,-3.9147,-3.8422,-3.7547,-3.6672,-3.6007,-3.5609,-3.5154,-3.4908,-3.4908,-3.4908,-3.4889,-3.4849,-3.4849,-3.4849,-3.4849,-3.4945,-3.5035,-3.5105,-3.5088,-3.5122,-3.5187,-3.5122,-3.5053,-3.5019,-3.4964,-3.4945,-3.4908,-3.4851,-3.487,-3.4944,-3.4888,-3.4925,-3.4997,-3.4962,-3.5015,-3.5083,-3.5083,-3.5136,-3.5219,-3.5219,-3.5138,-3.507,-3.5141,-3.519,-3.5203,-3.5187,-3.5251,-3.5364,-3.5493,-3.5417,-3.5369,-3.5479,-3.5417,-3.5369,-3.5479,-3.5493,-3.5493,-3.5493,-3.5493,-3.5493,-3.5493,-3.5084,0.0,-3.5449,-3.5084,-3.4789,-3.4783,-3.4783,-3.4449,-3.3658,0.0,0.0,-3.3624,-3.4419,-3.4689,-3.426,-3.5121,-3.5608,-3.5659,-3.5651,-3.5654,-3.5704,-3.5704,-3.5704,-3.5695,-3.5727,-3.5771,-3.581,-3.581,-3.5815,-3.5811,-3.5415,-3.5002,-3.46,-3.4211,-3.377,-3.3398,-3.3395,-3.3953,-3.4449,-4.0597,-4.0597,-4.0597,-4.0597,-4.0597,-4.0597,-4.0597,-4.0713,-4.079,-4.079,-4.079,-4.079,-4.079,-4.0434,-3.9906,-3.9199,-3.8778,-3.8212,-3.7451,-3.6521,-3.5666,-3.4927,-3.4908,-3.4908,-3.4908,-3.4908,-3.4908,-3.4908,-3.4908,-3.4926,-3.4926,-3.507,-3.5138,-3.5171,-3.5251,-3.5315,-3.533,-3.5315,-3.5315,-3.53,-3.5171,-3.5203,-3.53,-3.5171,-3.5152,-3.5162,-3.5146,-3.5133,-3.51,-3.5083,-3.52,-3.536,-3.536,-3.5463,-3.5591,-3.5591,-3.543,-3.5311,-3.5474,-3.5573,-3.5591,-3.5515,-3.5515,-3.5502,-3.5488,-3.5493,-3.5493,-3.5493,-3.5493,-3.5493,-3.5493,-3.5493,-3.5493,-3.5493,-3.5493,-3.5493,-3.5493,0.0,-3.5488,-3.5488,-3.552,-3.5515,-3.5515,-3.5515,-3.5219,-3.4562,-3.5198,0.0,0.0,-3.523,-3.5299,-3.4549,-3.5287,-3.5684,-3.5704,-3.5704,-3.5723,-3.5723,-3.5723,-3.5723,-3.5734,-3.5784,-3.5825,-3.5836,-3.5836,-3.5859,-3.5863,-3.5117,-3.4845,-3.4824,-3.4082,-3.3788,-3.3788,-3.3795,-3.4254,-3.4664,-3.97,-3.97,-3.97,-3.97,-3.97,-3.97,-3.97,-4.0326,-4.079,-4.079,-4.079,-4.079,-4.079,-4.0089,-3.9534,-3.9297,-3.7851,-3.6793,-3.6445,-3.559,-3.504,-3.4908,-3.4908,-3.4908,-3.4908,-3.4908,-3.4908,-3.4908,-3.5018,-3.507,-3.507,-3.5203,-3.5326,-3.543,-3.5345,-3.5374,-3.5457,-3.536,-3.5315,-3.53,-3.5285,-3.5266,-3.53,-3.5285,-3.534,-3.5424,-3.5378,-3.5451,-3.5577,-3.5521,-3.5534,-3.5546,-3.5546,-3.5565,-3.5591,-3.5591,-3.5572,-3.5534,-3.5579,-3.5591,-3.5591,-3.5515,-3.5515,-3.5502,-3.5488,-3.5493,-3.5493,-3.5493,-3.5493,-3.5493,-3.5493,-3.5493,-3.5493,-3.5493,-3.5493,-3.5493,-3.5493,0.0,-3.5502,-3.5502,-3.5547,-3.5579,-3.5591,-3.5572,-3.5526,-3.5396,-3.557,-3.5639,-3.5499,-3.5654,-3.5712,-3.5568,-3.5604,-3.5643,-3.5704,-3.5762,-3.5781,-3.5781,-3.5781,-3.58,-3.5869,-3.5882,-3.5924,-3.5974,-3.5974,-3.5972,-3.5968,-3.5831,-3.5798,-3.5781,-3.5655,-3.5608,-3.5608,-3.5597,-3.5671,-3.5639,-3.9507,-3.9507,-3.9661,-4.0113,-3.9816,-3.9661,-4.0133,-4.0539,-4.079,-4.079,-4.0384,-4.0094,-4.0094,-3.9251,-3.8659,-3.8604,-3.7348,-3.6495,-3.6381,-3.5438,-3.4908,-3.4908,-3.4908,-3.4908,-3.4908,-3.4908,-3.4945,-3.5,-3.507,-3.5138,-3.5203,-3.534,-3.5443,-3.5515,-3.5515,-3.554,-3.5608,-3.554,-3.5515,-3.5502,-3.543,-3.5443,-3.5502,-3.543,-3.5502,-3.5608,-3.5565,-3.562,-3.5704,-3.5654,-3.5643,-3.5643,-3.5643,-3.5662,-3.5651,-3.5651,-3.5628,-3.5608,-3.5639,-3.5628,-3.5591,-3.556,-3.5528,-3.5502,-3.5488,-3.5493,-3.5507,-3.5495,-3.5501,-3.5507,-3.5495,-3.5495,-3.5495,-3.5495,-3.5528,0.0,0.0,-3.5547,-3.5547,-3.5554,-3.5566,-3.563,-3.57,-3.5719,-3.5712,-3.5701,-3.5739,-3.5746,-3.5749,-3.5768,-3.5788,-3.5788,-3.5737,-3.5718,-3.5749,-3.5768,-3.5788,-3.5807,-3.5844,-3.5869,-3.5889,-3.5937,-3.5965,-3.5996,-3.5996,-3.5995,-3.6009,-3.6009,-3.5992,-3.5994,-3.6007,-3.5999,-3.5991,-3.5955,-3.5942,-3.5812,-3.8895,-3.8895,-3.9108,-3.9785,-3.934,-3.9108,-3.9785,-4.0075,-4.0191,-4.0191,-3.9611,-3.9204,-3.9204,-3.8318,-3.7745,-3.7718,-3.6825,-3.6251,-3.622,-3.5448,-3.4982,-3.4982,-3.4982,-3.4982,-3.4982,-3.4982,-3.5035,-3.5155,-3.5187,-3.5251,-3.536,-3.547,-3.554,-3.554,-3.5662,-3.5704,-3.5704,-3.5704,-3.5704,-3.5684,-3.5596,-3.5608,-3.5704,-3.5596,-3.5608,-3.5704,-3.5704,-3.5704,-3.5704,-3.5704,-3.5704,-3.5704,-3.5704,-3.5704,-3.5704,-3.5704,-3.5651,-3.5628,-3.5693,-3.5651,-3.5616,-3.5596,-3.5553,-3.5515,-3.5515,-3.5534,-3.5515,-3.5515,-3.5509,-3.5515,-3.5515,-3.5515,-3.5515,-3.5515,0.0,0.0,0.0,-3.563,-3.5649,-3.5656,-3.5659,-3.5684,-3.5783,-3.5803,-3.5804,-3.5796,-3.5813,-3.5815,-3.582,-3.5833,-3.585,-3.585,-3.5833,-3.5825,-3.5827,-3.5846,-3.5845,-3.5845,-3.5891,-3.5926,-3.5915,-3.5977,-3.5996,-3.5995,-3.5995,-3.5991,-3.5996,-3.5994,-3.5991,-3.5971,-3.5977,-3.5965,-3.5914,-3.5866,-3.584,-3.5735,-3.7096,-3.7096,-3.7116,-3.7174,-3.7135,-3.7116,-3.7174,-3.787,-3.8392,-3.8392,-3.8334,-3.8295,-3.8295,-3.751,-3.6953,-3.6883,-3.608,-3.5526,-3.5392,-3.5304,-3.5266,-3.5266,-3.5266,-3.5266,-3.5266,-3.5266,-3.5285,-3.53,-3.5416,-3.5489,-3.5502,-3.562,-3.5693,-3.5693,-3.5704,-3.5704,-3.5704,-3.5704,-3.5704,-3.5704,-3.5704,-3.5684,-3.5704,-3.5704,-3.5684,-3.5704,-3.5704,-3.5704,-3.5704,-3.5704,-3.5704,-3.5704,-3.5704,-3.5704,-3.5704,-3.5704,-3.5704,-3.5684,-3.5704,-3.5704,-3.5673,-3.5631,-3.5601,-3.5589,-3.5591,-3.5591,-3.5591,-3.5591,-3.5591,-3.5591,-3.5591,-3.5591,-3.5591,-3.5591,0.0,0.0,-3.5605,-3.5707,-3.5797,-3.5797,-3.5782,-3.5794,-3.5794,-3.5794,-3.5794,-3.58,-3.5862,-3.5889,-3.5891,-3.5954,-3.5986,-3.5986,-3.5939,-3.5889,-3.5891,-3.5955,-3.5996,-3.5996,-3.5995,-3.5994,-3.5994,-3.5996,-3.5993,-3.5996,-3.5996,-3.6001,-3.6009,-3.5999,-3.5968,-3.59,-3.5911,-3.5838,-3.5718,-3.5724,-3.5702,-3.5702,-3.6903,-3.6903,-3.7077,-3.7618,-3.727,-3.7077,-3.7618,-3.7986,-3.8199,-3.8199,-3.7735,-3.7386,-3.7386,-3.6651,-3.6157,-3.6122,-3.5813,-3.5596,-3.554,-3.5457,-3.5388,-3.5296,-3.5315,-3.5315,-3.5315,-3.5315,-3.5345,-3.543,-3.5489,-3.554,-3.5639,-3.5673,-3.5704,-3.5704,-3.5704,-3.5704,-3.5704,-3.5704,-3.5704,-3.5704,-3.5704,-3.5704,-3.5704,-3.5704,-3.5704,-3.5704,-3.5704,-3.5704,-3.5704,-3.5704,-3.5704,-3.5704,-3.5704,-3.5704,-3.5704,-3.5704,-3.5704,-3.5704,-3.5704,-3.5673,-3.5643,-3.5612,-3.5608,-3.5596,-3.5604,-3.5591,-3.5604,-3.5596,-3.5596,-3.5604,-3.5654,-3.5654,-3.5674,-3.5719,0.0,-3.5715,-3.5724,-3.5768,-3.5823,-3.5867,-3.5863,-3.5891,-3.5918,-3.5925,-3.5925,-3.5925,-3.5942,-3.5966,-3.5966,-3.5994,-3.6009,-3.5996,-3.5987,-3.5952,-3.5966,-3.5991,-3.5995,-3.6007,-3.6007,-3.601,-3.5994,-3.5994,-3.5992,-3.6003,-3.5963,-3.5947,-3.5934,-3.5853,-3.5803,-3.5779,-3.5784,-3.5741,-3.5697,-3.5641,-3.565,-3.564,-3.6516,-3.6516,-3.6709,-3.7309,-3.6922,-3.6729,-3.7328,-3.7406,-3.7406,-3.7406,-3.6884,-3.6516,-3.6516,-3.6033,-3.5704,-3.5704,-3.5704,-3.5704,-3.5704,-3.5608,-3.5502,-3.5374,-3.5402,-3.5416,-3.5416,-3.5416,-3.5476,-3.5553,-3.5553,-3.5608,-3.5704,-3.5704,-3.5704,-3.5704,-3.5704,-3.5704,-3.5704,-3.5704,-3.5704,-3.5704,-3.5704,-3.5704,-3.5704,-3.5704,-3.5704,-3.5704,-3.5704,-3.5704,-3.5704,-3.5704,-3.5704,-3.5704,-3.5704,-3.5704,-3.5704,-3.5704,-3.5704,-3.5704,-3.5704,-3.5673,-3.5631,-3.5631,-3.562,-3.5628,-3.5628,-3.5628,-3.5628,-3.5631,-3.562,-3.5647,-3.5728,-3.5725,-3.5747,-3.5795,-3.5822,-3.5834,-3.583,-3.586,-3.5875,-3.5923,-3.5927,-3.5947,-3.5995,-3.5996,-3.5996,-3.5996,-3.5996,-3.5996,-3.5994,-3.5994,-3.5991,-3.5999,-3.5994,-3.6001,-3.5994,-3.5995,-3.5993,-3.5999,-3.5994,-3.5999,-3.6007,-3.6007,-3.5982,-3.5968,-3.5918,-3.5877,-3.5833,-3.5735,-3.5679,-3.5678,-3.5678,-3.565,-3.563,-3.5593,-3.557,-3.5558,-3.5704,-3.5704,-3.5704,-3.5704,-3.5704,-3.5704,-3.5704,-3.5704,-3.5704,-3.5704,-3.5704,-3.5704,-3.5704,-3.5704,-3.5704,-3.5704,-3.5704,-3.5704,-3.5704,-3.5704,-3.5651,-3.5515,-3.562,-3.5704,-3.5704,-3.5704,-3.5704,-3.5704,-3.5704,-3.5704,-3.5704,-3.5704,-3.5704,-3.5704,-3.5704,-3.5704,-3.5704,-3.5704,-3.5704,-3.5704,-3.5704,-3.5704,-3.5704,-3.5704,-3.5704,-3.5704,-3.5684,-3.5684,-3.5704,-3.5684,-3.5684,-3.5704,-3.5704,-3.5704,-3.5704,-3.5704,-3.5704,-3.5704,-3.5704,-3.5704,-3.5704,-3.5704,-3.5704,-3.5704,-3.5704,-3.5704,-3.5704,-3.5704,-3.5704,-3.5723,-3.5781,-3.5795,-3.5791,-3.5791,-3.5868,-3.5908,-3.5908,-3.5953,-3.5996,-3.5996,-3.5996,-3.5996,-3.5996,-3.5996,-3.5996,-3.5996,-3.5996,-3.5994,-3.5994,-3.5991,-3.5999,-3.5991,-3.6001,-3.5991,-3.5991,-3.6005,-3.5991,-3.5991,-3.5999,-3.5991,-3.5991,-3.5991,-3.5966,-3.5898,-3.5898,-3.5826,-3.5693,-3.5693,-3.566,-3.5607,-3.5607,-3.5565,-3.5493,-3.5493,-3.5493,-3.5493,-3.5704,-3.5704,-3.5704,-3.5704,-3.5704,-3.5704,-3.5704,-3.5704,-3.5704,-3.5704,-3.5704,-3.5704,-3.5704,-3.5704,-3.5704,-3.5704,-3.5704,-3.5704,-3.5704,-3.5704,-3.5673,-3.5651,-3.5673,-3.5704,-3.5704,-3.5704,-3.5704,-3.5704,-3.5704,-3.5704,-3.5704,-3.5704,-3.5704,-3.5704,-3.5704,-3.5704,-3.5704,-3.5704,-3.5704,-3.5704,-3.5704,-3.5704,-3.5704,-3.5704,-3.5704,-3.5626,-3.5007,-3.5182,-3.5607,-3.4988,-3.5182,-3.5704,-3.5704,-3.5704,-3.5704,-3.5704,-3.5704,-3.5704,-3.5704,-3.5704,-3.5704,-3.5704,-3.5704,-3.5704,-3.5704,-3.5704,-3.5704,-3.5762,-3.5765,-3.5795,-3.5852,-3.5883,-3.5889,-3.594,-3.5957,-3.5965,-3.5965,-3.5991,-3.5996,-3.5996,-3.5996,-3.5996,-3.5996,-3.5992,-3.6003,-3.6003,-3.5991,-3.5992,-3.6007,-3.5999,-3.5994,-3.5999,-3.5994,-3.5991,-3.5991,-3.5996,-3.5999,-3.5999,-3.5994,-3.5981,-3.5934,-3.5934,-3.5878,-3.5757,-3.5717,-3.5679,-3.563,-3.5581,-3.554,-3.5522,-3.5522,-3.5515,-3.5493,-3.5493,-3.5493,-3.5493,-3.5704,-3.5704,-3.5704,-3.5704,-3.5704,-3.5704,-3.5704,-3.5704,-3.5704,-3.5704,-3.5704,-3.5704,-3.5704,-3.5704,-3.5704,-3.5704,-3.5704,-3.5704,-3.5704,-3.5704,-3.5704,-3.5704,-3.5704,-3.5704,-3.5704,-3.5704,-3.5704,-3.5704,-3.5704,-3.5704,-3.5704,-3.5704,-3.5704,-3.5704,-3.5704,-3.5704,-3.5704,-3.5704,-3.5704,-3.5704,-3.5704,-3.5704,-3.5665,-3.5317,-3.5182,-3.5065,-3.4195,-3.4214,-3.464,-3.4466,-3.4969,-3.5704,-3.5704,-3.5704,-3.5704,-3.5704,-3.5704,-3.5704,-3.5704,-3.5723,-3.5742,-3.5742,-3.5723,-3.5704,-3.5723,-3.5737,-3.5747,-3.5822,-3.5853,-3.5857,-3.5924,-3.595,-3.5958,-3.5995,-3.5996,-3.5996,-3.5996,-3.5996,-3.5996,-3.5996,-3.5995,-3.5992,-3.5992,-3.6001,-3.5991,-3.5991,-3.6001,-3.6005,-3.6005,-3.5996,-3.5991,-3.5991,-3.5991,-3.5991,-3.5991,-3.5991,-3.5991,-3.5991,-3.5978,-3.5938,-3.5908,-3.5846,-3.5772,-3.566,-3.562,-3.5585,-3.5565,-3.5515,-3.5493,-3.5493,-3.5493,-3.5493,-3.5493,-3.5493,-3.5493,-3.5565,-3.5704,-3.5704,-3.5704,-3.5704,-3.5704,-3.5704,-3.5704,-3.5704,-3.5704,-3.5704,-3.5704,-3.5704,-3.5704,-3.5704,-3.5704,-3.5704,-3.5704,-3.5704,-3.5704,-3.5704,-3.5704,-3.5704,-3.5704,-3.5704,-3.5704,-3.5704,-3.5704,-3.5704,-3.5704,-3.5704,-3.5704,-3.5704,-3.5704,-3.5704,-3.5704,-3.5704,-3.5704,-3.5704,-3.5704,-3.5684,-3.5626,-3.5568,-3.5491,-3.4621,-3.4272,-3.4176,-3.3305,-3.3024,-3.3218,-3.4098,-3.4969,-3.5704,-3.5704,-3.5704,-3.5704,-3.5704,-3.5704,-3.5715,-3.5716,-3.5755,-3.5794,-3.5811,-3.5762,-3.5723,-3.58,-3.581,-3.5827,-3.5892,-3.5902,-3.5931,-3.5992,-3.5996,-3.5996,-3.5996,-3.5996,-3.5996,-3.5996,-3.5996,-3.5996,-3.5996,-3.6007,-3.5994,-3.5994,-3.6072,-3.613,-3.613,-3.6189,-3.6228,-3.6228,-3.6169,-3.613,-3.613,-3.603,-3.5991,-3.5988,-3.5988,-3.5988,-3.5988,-3.5934,-3.5883,-3.5872,-3.5745,-3.5689,-3.5693,-3.5615,-3.5642,-3.5718,-3.5565,-3.5532,-3.5603,-3.5532,-3.5493,-3.5493,-3.5493,-3.5565,-3.5705,-3.5704,-3.5704,-3.5704,-3.5704,-3.5704,-3.5704,-3.5704,-3.5704,-3.5704,-3.5704,-3.5704,-3.5704,-3.5704,-3.5704,-3.5704,-3.5704,-3.5704,-3.5704,-3.5704,-3.5704,-3.5704,-3.5704,-3.5704,-3.5704,-3.5704,-3.5704,-3.5704,-3.5704,-3.5704,-3.5704,-3.5704,-3.5704,-3.5704,-3.5704,-3.5704,-3.5704,-3.5704,-3.5704,-3.5704,-3.5646,-3.4949,-3.4679,-3.4582,-3.3712,-3.3383,-3.3267,-3.2396,-3.2522,-3.3218,-3.4098,-3.4969,-3.5704,-3.5704,-3.5704,-3.5704,-3.5704,-3.5742,-3.5785,-3.5779,-3.5788,-3.5818,-3.5873,-3.5869,-3.5858,-3.5889,-3.5882,-3.5888,-3.5962,-3.5979,-3.5986,-3.5996,-3.5996,-3.5996,-3.5996,-3.5996,-3.5995,-3.6003,-3.6001,-3.6005,-3.5992,-3.5991,-3.6007,-3.6007,-3.6623,-3.7028,-3.7028,-3.7653,-3.8043,-3.8043,-3.7399,-3.7028,-3.7028,-3.6364,-3.5962,-3.5929,-3.5924,-3.5924,-3.5924,-3.5914,-3.5813,-3.566,-3.563,-3.5921,-3.6433,-3.5797,-3.6265,-3.7353,-3.6045,-3.5872,-3.6392,-3.5757,-3.5493,-3.5493,-3.5493,-3.5911,-3.6454,-3.5704,-3.5704,-3.5704,-3.5704,-3.5704,-3.5704,-3.5704,-3.5704,-3.5704,-3.5704,-3.5704,-3.5704,-3.5704,-3.5704,-3.5704,-3.5704,-3.5704,-3.5704,-3.5704,-3.5704,-3.5704,-3.5704,-3.5704,-3.5704,-3.5704,-3.5697,-3.5697,-3.5704,-3.5704,-3.5704,-3.5704,-3.5704,-3.5704,-3.5704,-3.5704,-3.5704,-3.5704,-3.5704,-3.5452,-3.5027,-3.4582,-3.4156,-3.3673,-3.2822,-3.2483,-3.2367,-3.1526,-3.2029,-3.316,-3.3634,-3.4642,-3.5698,-3.5698,-3.5726,-3.5743,-3.5757,-3.5799,-3.5846,-3.5851,-3.5868,-3.5896,-3.5934,-3.5938,-3.5943,-3.5958,-3.5942,-3.5962,-3.5996,-3.5995,-3.5995,-3.5995,-3.6346,-3.662,-3.662,-3.6971,-3.7243,-3.7233,-3.6875,-3.6777,-3.7194,-3.6862,-3.6784,-3.7194,-3.7658,-3.7926,-3.7926,-3.8336,-3.8593,-3.8593,-3.816,-3.79,-3.7839,-3.7386,-3.7108,-3.7039,-3.7039,-3.7004,-3.6936,-3.6556,-3.6318,-3.6226,-3.6581,-3.696,-3.7276,-3.644,-3.6575,-3.7286,-3.595,-3.5662,-3.6037,-3.5633,-3.546,-3.5551,-3.5921,-3.6579,-3.7275,-3.5704,-3.5704,-3.5704,-3.5704,-3.5704,-3.5704,-3.5704,-3.5704,-3.5704,-3.5704,-3.5704,-3.5704,-3.5704,-3.5704,-3.5704,-3.5704,-3.5704,-3.5704,-3.5704,-3.5704,-3.5695,-3.5695,-3.5706,-3.5706,-3.5716,-3.5718,-3.5718,-3.5706,-3.5706,-3.5706,-3.5716,-3.5706,-3.5706,-3.5716,-3.5716,-3.5716,-3.5716,-3.5716,-3.5203,-3.4409,-3.4245,-3.3674,-3.2773,-3.1913,-3.1584,-3.1507,-3.0849,-3.1681,-3.3122,-3.3122,-3.4284,-3.5715,-3.5721,-3.5768,-3.5821,-3.581,-3.5854,-3.5927,-3.5927,-3.5957,-3.6009,-3.6009,-3.6009,-3.6046,-3.6191,-3.6111,-3.6035,-3.6183,-3.6223,-3.6262,-3.6419,-3.7024,-3.7511,-3.7511,-3.8135,-3.8604,-3.8604,-3.7973,-3.7789,-3.8514,-3.7965,-3.7809,-3.8531,-3.8726,-3.8804,-3.8804,-3.8944,-3.9022,-3.9022,-3.8879,-3.874,-3.863,-3.8462,-3.8354,-3.8258,-3.8258,-3.8208,-3.8073,-3.7552,-3.7223,-3.7119,-3.7704,-3.807,-3.8146,-3.7137,-3.6838,-3.7011,-3.581,-3.5426,-3.5624,-3.5609,-3.5657,-3.582,-3.6757,-3.744,-3.7907,-3.5704,-3.5704,-3.5704,-3.5704,-3.5704,-3.5704,-3.5704,-3.5704,-3.5704,-3.5704,-3.5704,-3.5704,-3.5704,-3.5704,-3.5704,-3.5704,-3.5704,-3.5704,-3.5704,-3.5704,-3.5706,-3.5699,-3.5699,-3.5737,-3.5793,-3.5782,-3.5765,-3.5699,-3.5699,-3.5737,-3.5793,-3.5737,-3.5737,-3.5793,-3.5793,-3.5793,-3.5793,-3.5793,-3.5271,-3.4429,-3.3669,-3.28,-3.1894,-3.106,-3.077,-3.0752,-3.0636,-3.1709,-3.3197,-3.3196,-3.4347,-3.5781,-3.5788,-3.5822,-3.5884,-3.5886,-3.5937,-3.5984,-3.5984,-3.5999,-3.5996,-3.5996,-3.5996,-3.6191,-3.695,-3.654,-3.6208,-3.6972,-3.7128,-3.7343,-3.8107,-3.8341,-3.8417,-3.8417,-3.8512,-3.8593,-3.8593,-3.8492,-3.8473,-3.859,-3.8495,-3.8473,-3.859,-3.9234,-3.9644,-3.9644,-4.0346,-4.0756,-4.0756,-3.9979,-3.9538,-3.9513,-3.8743,-3.8258,-3.8133,-3.8121,-3.8092,-3.8017,-3.8608,-3.8527,-3.7844,-3.789,-3.8319,-3.8946,-3.7322,-3.744,-3.8575,-3.6255,-3.5772,-3.6526,-3.6443,-3.6477,-3.6718,-3.8207,-3.8367,-3.7915,-3.5704,-3.5704,-3.5704,-3.5704,-3.5704,-3.5704,-3.5704,-3.5704,-3.5704,-3.5704,-3.5704,-3.5704,-3.5704,-3.5704,-3.5695,-3.5707,-3.5688,-3.5728,-3.5757,-3.5757,-3.5766,-3.5765,-3.5765,-3.5773,-3.5791,-3.5842,-3.5842,-3.5807,-3.5763,-3.5773,-3.5791,-3.5773,-3.5773,-3.5799,-3.5799,-3.5799,-3.5799,-3.5799,-3.5305,-3.4415,-3.3557,-3.2687,-3.182,-3.0991,-3.0653,-3.0657,-3.0657,-3.1783,-3.3264,-3.3252,-3.4408,-3.5849,-3.586,-3.5893,-3.5957,-3.5956,-3.5987,-3.5991,-3.5991,-3.5991,-3.5991,-3.5991,-3.6364,-3.6833,-3.7204,-3.7379,-3.7555,-3.7946,-3.8024,-3.8141,-3.8534,-3.8961,-3.9273,-3.9273,-3.9683,-3.9995,-3.9995,-3.9585,-3.9273,-3.9273,-3.9702,-3.9995,-3.9995,-4.0327,-4.0522,-4.0522,-4.0873,-4.1081,-4.1052,-4.061,-4.0342,-4.0267,-3.9777,-3.9496,-3.9432,-3.9403,-3.9377,-3.9333,-3.9665,-3.9397,-3.8674,-3.9109,-3.9514,-3.9799,-3.8539,-3.8427,-3.8963,-3.7321,-3.6916,-3.7313,-3.7277,-3.7479,-3.7925,-3.8795,-3.8744,-3.8385]}]]